[[{"header":{"parameterUnit":"m.s-1","parameterCategory":1,"la1":31.0,"la2":29.5877,"lo1":-88.7671,"lo2":-86.6584,"dy":0.0162,"dx":0.0185,"nx":115,"ny":88,"refTime":"2023-04-25T12:00:00:Z","depth":0,"parameterNumber":2,"parameterNumberName":"U-component_of_WINDS"},"data":[0.0,0.0,0.0,0.0,0.0,0.0,0.0,0.0,0.0,0.0,0.0,0.0,0.0,0.0,0.0,0.0,0.0,0.0,0.0,0.0,0.0,0.0,0.0,0.0,0.0,0.0,0.0,0.0,0.0,0.0,0.0,0.0,0.0,0.0,0.0,0.0,0.0,0.0,0.0,0.0,0.0,0.0,0.0,0.0,0.0,0.0,0.0,0.0,0.0,0.0,0.0,0.0,0.0,0.0,0.0,0.0,0.0,0.0,0.0,0.0,0.0,0.0,0.0,0.0,0.0,0.0,0.0,0.0,0.0,0.0,0.0,0.0,0.0,0.0,0.0,0.0,0.0,0.0,0.0,0.0,0.0,0.0,0.0,0.0,0.0,0.0,0.0,0.0,0.0,0.0,0.0,0.0,0.0,0.0,0.0,0.0,0.0,0.0,0.0,0.0,0.0,0.0,0.0,0.0,0.0,0.0,0.0,0.0,0.0,0.0,0.0,0.0,0.0,0.0,0.0,0.0,0.0,0.0,0.0,0.0,0.0,0.0,0.0,0.0,0.0,0.0,0.0,0.0,0.0,0.0,0.0,0.0,0.0,0.0,0.0,0.0,0.0,0.0,0.0,0.0,0.0,0.0,0.0,0.0,0.0,0.0,0.0,0.0,0.0,0.0,0.0,0.0,0.0,0.0,0.0,0.0,0.0,0.0,0.0,0.0,0.0,0.0,0.0,0.0,0.0,0.0,0.0,0.0,0.0,0.0,0.0,0.0,0.0,0.0,0.0,0.0,0.0,0.0,0.0,0.0,0.0,0.0,0.0,0.0,0.0,0.0,0.0,0.0,0.0,0.0,0.0,0.0,0.0,0.0,0.0,0.0,0.0,0.0,0.0,0.0,0.0,0.0,0.0,0.0,0.0,0.0,0.0,0.0,0.0,0.0,0.0,0.0,0.0,0.0,0.0,0.0,0.0,0.0,0.0,0.0,0.0,0.0,0.0,0.0,0.0,0.0,0.0,0.0,0.0,0.0,0.0,0.0,0.0,0.0,0.0,0.0,0.0,0.0,0.0,0.0,0.0,0.0,0.0,0.0,0.0,0.0,0.0,0.0,0.0,0.0,0.0,0.0,0.0,0.0,0.0,0.0,0.0,0.0,0.0,0.0,0.0,0.0,0.0,0.0,0.0,0.0,0.0,0.0,0.0,0.0,0.0,0.0,0.0,0.0,0.0,0.0,0.0,0.0,0.0,0.0,0.0,0.0,0.0,0.0,0.0,0.0,0.0,0.0,0.0,0.0,0.0,0.0,0.0,0.0,0.0,0.0,0.0,0.0,0.0,0.0,0.0,0.0,0.0,0.0,0.0,0.0,0.0,0.0,0.0,0.0,0.0,0.0,0.0,0.0,0.0,0.0,0.0,0.0,0.0,0.0,0.0,0.0,0.0,0.0,0.0,0.0,0.0,0.0,0.0,0.0,0.0,0.0,0.0,0.0,0.0,0.0,0.0,0.0,0.0,0.0,0.0,0.0,0.0,0.0,0.0,0.0,0.0,0.0,0.0,0.0,0.0,0.0,0.0,0.0,0.0,0.0,0.0,0.0,0.0,0.0,0.0,0.0,0.0,0.0,0.0,0.0,0.0,0.0,0.0,0.0,0.0,0.0,0.0,0.0,0.0,0.0,0.0,0.0,0.0,0.0,0.0,0.0,0.0,0.0,0.0,0.0,0.0,0.0,0.0,0.0,0.0,0.0,0.0,0.0,0.0,0.0,0.0,0.0,0.0,0.0,0.0,0.0,0.0,0.0,0.0,0.0,0.0,0.0,0.0,0.0,0.0,0.0,0.0,0.0,0.0,0.0,0.0,0.0,0.0,0.0,0.0,0.0,0.0,0.0,0.0,0.0,0.0,0.0,0.0,0.0,0.0,0.0,0.0,0.0,0.0,0.0,0.0,0.0,0.0,0.0,0.0,0.0,0.0,0.0,0.0,0.0,0.0,0.0,0.0,0.0,0.0,0.0,0.0,0.0,0.0,0.0,0.0,0.0,0.0,0.0,0.0,0.0,0.0,0.0,0.0,0.0,0.0,0.0,0.0,0.0,0.0,0.0,0.0,0.0,0.0,0.0,0.0,0.0,0.0,0.0,0.0,0.0,0.0,0.0,0.0,0.0,0.0,0.0,0.0,0.0,0.0,0.0,0.0,0.0,0.0,0.0,0.0,0.0,0.0,0.0,0.0,0.0,0.0,0.0,0.0,0.0,0.0,0.0,0.0,0.0,0.0,0.0,0.0,0.0,0.0,0.0,0.0,0.0,0.0,0.0,0.0,0.0,0.0,0.0,0.0,0.0,0.0,0.0,0.0,0.0,0.0,0.0,0.0,0.0,0.0,0.0,0.0,0.0,0.0,0.0,0.0,0.0,0.0,0.0,0.0,0.0,0.0,0.0,0.0,0.0,0.0,0.0,0.0,0.0,0.0,0.0,0.0,0.0,0.0,0.0,0.0,0.0,0.0,0.0,0.0,0.0,0.0,0.0,0.0,0.0,0.0,0.0,0.0,0.0,0.0,0.0,0.0,0.0,0.0,0.0,0.0,0.0,0.0,0.0,0.0,0.0,0.0,0.0,0.0,0.0,0.0,0.0,0.0,0.0,0.0,0.0,0.0,0.0,0.0,0.0,0.0,0.0,0.0,0.0,0.0,0.0,0.0,0.0,0.0,0.0,0.0,0.0,0.0,0.0,0.0,0.0,0.0,0.0,0.0,0.0,0.0,0.0,0.0,0.0,0.0,0.0,0.0,0.0,0.0,0.0,0.0,0.0,0.0,0.0,0.0,0.0,0.0,0.0,0.0,0.0,0.0,0.0,0.0,0.0,0.0,0.0,0.0,0.0,0.0,0.0,0.0,0.0,0.0,0.0,0.0,0.0,0.0,0.0,0.0,0.0,0.0,0.0,0.0,0.0,0.0,0.0,0.0,0.0,0.0,0.0,0.0,0.0,0.0,0.0,0.0,0.0,0.0,0.0,0.0,0.0,0.0,0.0,0.0,0.0,0.0,0.0,0.0,0.0,0.0,0.0,0.0,0.0,0.0,0.0,0.0,0.0,0.0,0.0,0.0,0.0,0.0,0.0,0.0,0.0,0.0,0.0,0.0,0.0,0.0,0.0,0.0,0.0,0.0,0.0,0.0,0.0,0.0,0.0,0.0,0.0,0.0,0.0,0.0,0.0,0.0,0.0,0.0,0.0,0.0,0.0,0.0,0.0,0.0,0.0,0.0,0.0,0.0,0.0,0.0,0.0,0.0,0.0,0.0,0.0,0.0,0.0,0.0,0.0,0.0,0.0,0.0,0.0,0.0,0.0,0.0,0.0,0.0,0.0,0.0,0.0,0.0,0.0,0.0,0.0,0.0,0.0,0.0,0.0,0.0,0.0,0.0,0.0,0.0,0.0,0.0,0.0,0.0,0.0,0.0,0.0,0.0,0.0,0.0,0.0,0.0,0.0,0.0,0.0,0.0,0.0,0.0,0.0,0.0,0.0,0.0,0.0,0.0,0.0,0.0,0.0,0.0,0.0,0.0,0.0,0.0,0.0,0.0,0.0,0.0,0.0,0.0,0.0,0.0,0.0,0.0,0.0,0.0,0.0,0.0,0.0,0.0,0.0,0.0,0.0,0.0,0.0,0.0,0.0,0.0,0.0,0.0,0.0,0.0,0.0,0.0,0.0,0.0,0.0,0.0,0.0,0.0,0.0,0.0,0.0,0.0,0.0,0.0,0.0,0.0,0.0,0.0,0.0,0.0,0.0,0.0,0.0,0.0,0.0,0.0,0.0,0.0,0.0,0.0,0.0,0.0,0.0,0.0,0.0,0.0,0.0,0.0,0.0,0.0,0.0,0.0,0.0,0.0,0.0,0.0,0.0,0.0,0.0,0.0,0.0,0.0,0.0,0.0,0.0,0.0,0.0,0.0,0.0,0.0,0.0,0.0,0.0,0.0,0.0,0.0,0.0,0.0,0.0,0.0,0.0,0.0,0.0,0.0,0.0,0.0,0.0,0.0,0.0,0.0,0.0,0.0,0.0,0.0,0.0,0.0,0.0,0.0,0.0,0.0,0.0,0.0,0.0,0.0,0.0,0.0,0.0,0.0,0.0,0.0,0.0,0.0,0.0,0.0,0.0,0.0,0.0,0.0,0.0,0.0,0.0,0.0,0.0,0.0,0.0,0.0,0.0,0.0,0.0,0.0,0.0,0.0,0.0,0.0,0.0,0.0,0.0,0.0,0.0,0.0,0.0,0.0,0.0,1.6211,0.0,0.0,0.0,0.0,0.0,0.0,0.0,0.0,0.0,0.0,0.0,0.0,0.0,0.0,0.0,0.0,0.0,0.0,0.0,0.0,0.0,0.0,0.0,0.0,0.0,0.0,0.0,0.0,0.0,0.0,0.0,0.0,0.0,0.0,0.0,0.0,0.0,0.0,0.0,0.0,0.0,0.0,0.0,0.0,0.0,0.0,0.0,0.0,0.0,0.0,0.0,0.0,0.0,0.0,0.0,0.0,0.0,0.0,0.0,0.0,0.0,0.0,0.0,0.0,0.0,0.0,0.0,0.0,0.0,0.0,0.0,0.0,0.0,0.0,0.0,0.0,0.0,0.0,0.0,0.0,0.0,0.0,0.0,0.0,0.0,0.0,0.0,0.0,0.0,0.0,0.0,0.0,0.0,0.0,0.0,0.0,0.0,0.0,0.0,0.0,0.0,0.0,0.0,0.0,0.0,0.0,0.0,0.0,0.0,0.0,1.8106,1.8168,1.7324,1.6867,1.6761,0.0,0.0,0.0,0.0,0.0,0.0,0.0,0.0,0.0,0.0,0.0,0.0,0.0,0.0,0.0,0.0,0.0,0.0,0.0,0.0,0.0,0.0,0.0,0.0,0.0,0.0,0.0,0.0,0.0,0.0,0.0,0.0,0.0,0.0,0.0,0.0,0.0,0.0,0.0,0.0,0.0,0.0,0.0,0.0,0.0,0.0,0.0,0.0,0.0,0.0,0.0,0.0,0.0,0.0,0.0,0.0,0.0,0.0,0.0,0.0,0.0,0.0,0.0,0.0,0.0,0.0,0.0,0.0,0.0,0.0,0.0,0.0,0.0,0.0,0.0,0.0,0.0,0.0,0.0,0.0,0.0,0.0,0.0,0.0,0.0,0.0,0.0,0.0,0.0,0.0,0.0,0.0,0.0,0.0,0.0,0.0,0.0,0.0,0.0,0.0,0.0,0.0,0.0,0.0,0.0,0.0,0.0,0.0,0.0,0.0,0.0,0.0,1.766,1.7027,1.6665,0.0,0.0,0.0,0.0,0.0,0.0,0.0,0.0,0.0,0.0,0.0,0.0,0.0,0.0,0.0,0.0,0.0,0.0,0.0,0.0,0.0,0.0,0.0,0.0,0.0,0.0,0.0,0.0,0.0,0.0,0.0,0.0,0.0,0.0,0.0,0.0,0.0,0.0,0.0,0.0,0.0,0.0,0.0,0.0,0.0,0.0,0.0,0.0,0.0,0.0,0.0,0.0,0.0,0.0,0.0,0.0,0.0,0.0,0.0,0.0,0.0,0.0,0.0,0.0,0.0,0.0,0.0,0.0,0.0,0.0,0.0,0.0,0.0,0.0,0.0,0.0,0.0,0.0,0.0,0.0,0.0,0.0,0.0,0.0,0.0,0.0,0.0,0.0,0.0,0.0,0.0,0.0,0.0,0.0,0.0,0.0,0.0,0.0,0.0,0.0,0.0,0.0,0.0,0.0,0.0,0.0,0.0,0.0,0.0,0.0,1.95,1.9048,1.8506,0.0,1.5592,0.0,0.0,0.0,0.0,0.0,0.0,0.0,0.0,0.0,0.0,0.0,0.0,0.0,0.0,0.0,0.0,0.0,0.0,0.0,0.0,0.0,0.0,0.0,0.0,0.0,0.0,0.0,0.0,0.0,0.0,0.0,0.0,0.0,0.0,0.0,0.0,0.0,0.0,0.0,0.0,0.0,0.0,0.0,0.0,0.0,0.0,0.0,0.0,0.0,0.0,0.0,0.0,0.0,0.0,0.0,0.0,0.0,0.0,0.0,0.0,0.0,0.0,0.0,0.0,0.0,0.0,0.0,0.0,0.0,0.0,0.0,0.0,0.0,0.0,0.0,0.0,0.0,0.0,0.0,0.0,0.0,0.0,0.0,0.0,0.0,0.0,0.0,0.0,0.0,0.0,0.0,0.0,0.0,0.0,0.0,0.0,0.0,0.0,0.0,0.0,0.0,0.0,0.0,0.0,0.0,0.0,0.0,0.0,0.0,0.0,1.9766,1.935,1.8383,1.7133,0.0,0.0,0.0,0.0,0.0,0.0,0.0,0.0,0.0,0.0,0.0,0.0,0.0,0.0,0.0,0.0,0.0,0.0,0.0,0.0,0.0,0.0,0.0,0.0,0.0,0.0,0.0,0.0,0.0,0.0,0.0,0.0,0.0,0.0,0.0,0.0,0.0,0.0,0.0,0.0,0.0,0.0,0.0,0.0,0.0,0.0,0.0,0.0,0.0,0.0,0.0,0.0,0.0,0.0,0.0,0.0,0.0,0.0,0.0,0.0,0.0,0.0,0.0,0.0,0.0,0.0,0.0,0.0,0.0,0.0,0.0,0.0,0.0,0.0,0.0,0.0,0.0,0.0,0.0,0.0,0.0,0.0,0.0,0.0,0.0,0.0,0.0,0.0,0.0,0.0,0.0,0.0,0.0,0.0,0.0,0.0,0.0,0.0,0.0,0.0,0.0,0.0,0.0,0.0,0.0,0.0,0.0,0.0,0.0,0.0,1.9774,1.9729,1.9133,1.7947,1.6799,1.5697,0.0,0.0,0.0,0.0,0.0,0.0,0.0,0.0,0.0,0.0,0.0,0.0,0.0,0.0,0.0,0.0,0.0,0.0,0.0,0.0,0.0,0.0,0.0,0.0,0.0,0.0,0.0,0.0,0.0,0.0,0.0,0.0,0.0,0.0,0.0,0.0,0.0,0.0,0.0,0.0,0.0,0.0,0.0,0.0,0.0,0.0,0.0,0.0,0.0,0.0,0.0,0.0,0.0,0.0,0.0,0.0,0.0,0.0,0.0,0.0,0.0,0.0,0.0,0.0,0.0,0.0,0.0,0.0,0.0,0.0,0.0,0.0,0.0,0.0,0.0,0.0,0.0,0.0,0.0,0.0,0.0,0.0,0.0,0.0,0.0,0.0,0.0,0.0,0.0,0.0,0.0,0.0,0.0,0.0,0.0,0.0,0.0,0.0,0.0,0.0,0.0,0.0,0.0,0.0,0.0,0.0,0.0,0.0,1.9068,1.948,1.9236,1.8288,1.7341,1.6439,0.0,0.0,0.0,0.0,0.0,0.0,0.0,0.0,0.0,0.0,0.0,0.0,0.0,0.0,0.0,0.0,0.0,0.0,0.0,0.0,0.0,0.0,0.0,0.0,0.0,0.0,0.0,0.0,0.0,0.0,0.0,0.0,0.0,0.0,0.0,0.0,0.0,0.0,0.0,0.0,0.0,0.0,0.0,0.0,0.0,0.0,0.0,0.0,0.0,0.0,0.0,0.0,0.0,0.0,0.0,0.0,0.0,0.0,0.0,0.0,0.0,0.0,0.0,0.0,0.0,0.0,0.0,0.0,0.0,0.0,0.0,0.0,0.0,0.0,0.0,0.0,0.0,0.0,0.0,0.0,0.0,0.0,0.0,0.0,0.0,0.0,0.0,0.0,0.0,0.0,0.0,0.0,0.0,0.0,0.0,0.0,0.0,0.0,0.0,0.0,0.0,0.0,0.0,0.0,0.0,0.0,0.0,0.0,0.0,1.9426,1.9165,1.8582,1.772,1.7113,1.6343,0.0,0.0,0.0,0.0,0.0,0.0,0.0,0.0,0.0,0.0,0.0,0.0,0.0,0.0,0.0,0.0,0.0,0.0,0.0,0.0,0.0,0.0,0.0,0.0,0.0,0.0,0.0,0.0,0.0,0.0,0.0,0.0,0.0,0.0,0.0,0.0,0.0,0.0,0.0,0.0,0.0,0.0,0.0,0.0,0.0,0.0,0.0,0.0,0.0,0.0,0.0,0.0,0.0,0.0,0.0,0.0,0.0,0.0,0.0,0.0,0.0,0.0,0.0,0.0,0.0,0.0,0.0,0.0,0.0,0.0,0.0,0.0,0.0,0.0,0.0,0.0,0.0,0.0,0.0,0.0,0.0,0.0,0.0,0.0,0.0,0.0,0.0,0.0,0.0,0.0,0.0,0.0,0.0,0.0,0.0,0.0,0.0,0.0,0.0,0.0,0.0,0.0,0.0,0.0,0.0,0.0,0.0,0.0,0.0,1.9336,0.0,1.8052,0.0,1.6805,1.6105,0.0,0.0,0.0,0.0,0.0,0.0,0.0,0.0,0.0,0.0,0.0,0.0,0.0,0.0,0.0,0.0,0.0,0.0,0.0,0.0,0.0,0.0,0.0,0.0,0.0,0.0,0.0,0.0,0.0,0.0,0.0,0.0,0.0,0.0,0.0,0.0,0.0,0.0,0.0,0.0,0.0,0.0,0.0,0.0,0.0,0.0,0.0,0.0,0.0,0.0,0.0,0.0,0.0,0.0,0.0,0.0,0.0,0.0,0.0,0.0,0.0,0.0,0.0,0.0,0.0,0.0,0.0,0.0,0.0,0.0,0.0,0.0,0.0,0.0,0.0,0.0,0.0,0.0,0.0,0.0,0.0,0.0,0.0,0.0,0.0,0.0,0.0,0.0,0.0,0.0,0.0,0.0,0.0,0.0,0.0,0.0,0.0,0.0,0.0,0.0,0.0,0.0,0.0,0.0,0.0,0.0,0.0,0.0,1.9363,1.8615,1.8171,1.7638,1.7018,1.6402,1.571,0.0,0.0,0.0,0.0,0.0,0.0,0.0,0.0,0.0,0.0,0.0,0.0,0.0,0.0,0.0,0.0,0.0,0.0,0.0,0.0,0.0,0.0,0.0,0.0,0.0,0.0,0.0,0.0,0.0,0.0,0.0,0.0,0.0,0.0,0.0,0.0,0.0,0.0,0.0,0.0,0.0,0.0,0.0,0.0,0.0,0.0,0.0,0.0,0.0,0.0,0.0,0.0,0.0,0.0,0.0,0.0,0.0,0.0,0.0,0.0,0.0,0.0,0.0,0.0,0.0,0.0,0.0,0.0,0.0,0.0,0.0,0.0,0.0,0.0,0.0,0.0,0.0,0.0,0.0,0.0,0.0,0.0,0.0,0.0,0.0,0.0,0.0,0.0,0.0,0.0,0.0,0.0,0.0,0.0,0.0,0.0,0.0,0.0,0.0,0.0,0.0,0.0,0.0,0.0,0.0,0.0,0.0,0.0,0.0,1.7778,1.7295,1.6871,1.6492,1.5614,1.5005,0.0,0.0,0.0,0.0,0.0,0.0,0.0,0.0,0.0,0.0,0.0,0.0,0.0,0.0,0.0,0.0,0.0,0.0,0.0,0.0,0.0,0.0,0.0,0.0,0.0,0.0,0.0,0.0,0.0,0.0,0.0,0.0,0.0,0.0,0.0,0.0,0.0,0.0,0.0,0.0,0.0,0.0,0.0,0.0,0.0,0.0,0.0,0.0,0.0,0.0,0.0,0.0,0.0,0.0,0.0,0.0,0.0,0.0,0.0,0.0,0.0,0.0,0.0,0.0,0.0,0.0,0.0,0.0,0.0,0.0,0.0,0.0,0.0,0.0,0.0,0.0,0.0,0.0,0.0,0.0,0.0,0.0,0.0,0.0,0.0,0.0,0.0,0.0,0.0,0.0,0.0,0.0,0.0,0.0,0.0,0.0,0.0,0.0,0.0,0.0,0.0,0.0,0.0,0.0,0.0,0.0,0.0,0.0,0.0,1.7023,1.6633,1.6225,1.5821,1.5064,1.4522,1.4229,0.0,0.0,0.0,0.0,0.0,0.0,0.0,0.0,0.0,0.0,0.0,0.0,0.0,0.0,0.0,0.0,0.0,0.0,0.0,0.0,0.0,0.0,0.0,0.0,0.0,0.0,0.0,0.0,0.0,0.0,0.0,0.0,0.0,0.0,0.0,0.0,0.0,0.0,0.0,0.0,0.0,0.0,0.0,0.0,0.0,0.0,0.0,0.0,0.0,0.0,0.0,0.0,0.0,0.0,0.0,0.0,0.0,0.0,0.0,0.0,0.0,0.0,0.0,0.0,0.0,0.0,0.0,0.0,0.0,0.0,0.0,0.0,0.0,0.0,0.0,0.0,0.0,0.0,0.0,0.0,0.0,0.0,0.0,0.0,0.0,0.0,0.0,0.0,0.0,0.0,0.0,0.0,0.0,0.0,0.0,0.0,0.0,0.0,0.0,0.0,0.0,0.0,0.0,0.0,0.0,0.0,0.0,0.0,1.6366,1.6083,1.5652,1.4984,1.4657,1.4213,0.0,0.0,0.0,0.0,0.0,0.0,0.0,0.0,0.0,0.0,0.0,0.0,0.0,0.0,0.0,0.0,0.0,0.0,0.0,0.0,0.0,0.0,0.0,0.0,0.0,0.0,0.0,0.0,0.0,0.0,0.0,0.0,0.0,0.0,0.0,0.0,0.0,0.0,0.0,0.0,0.0,0.0,0.0,0.0,0.0,0.0,0.0,0.0,0.0,0.0,0.0,0.0,0.0,0.0,0.0,0.0,0.0,0.0,0.0,0.0,0.0,0.0,0.0,0.0,0.0,0.0,0.0,0.0,0.0,0.0,0.0,0.0,0.0,0.0,0.0,0.0,0.0,0.0,0.0,0.0,0.0,0.0,0.0,0.0,0.0,0.0,0.0,0.0,0.0,0.0,0.0,0.0,0.0,0.0,0.0,0.0,0.0,0.0,0.0,0.0,0.0,0.0,0.0,0.0,0.0,0.0,0.0,0.0,0.0,1.5727,1.4815,1.4381,1.4462,1.3883,1.3456,0.0,0.0,0.0,0.0,0.0,0.0,0.0,0.0,0.0,0.0,0.0,0.0,0.0,0.0,0.0,0.0,0.0,0.0,0.0,0.0,0.0,0.0,0.0,0.0,0.0,0.0,0.0,0.0,0.0,0.0,0.0,0.0,0.0,0.0,0.0,0.0,0.0,0.0,0.0,0.0,0.0,0.0,0.0,0.0,0.0,0.0,0.0,0.0,0.0,0.0,0.0,0.0,0.0,0.0,0.0,0.0,0.0,0.0,0.0,0.0,0.0,0.0,0.0,0.0,0.0,0.0,0.0,0.0,0.0,0.0,0.0,0.0,0.0,0.0,0.0,0.0,0.0,0.0,0.0,0.0,0.0,0.0,0.0,0.0,0.0,0.0,0.0,0.0,0.0,0.0,0.0,0.0,0.0,0.0,0.0,0.0,0.0,0.0,0.0,0.0,0.0,0.0,0.0,0.0,0.0,0.0,0.0,0.0,1.5482,1.491,1.3988,1.3489,1.3498,1.3321,1.3159,0.0,0.0,0.0,0.0,0.0,0.0,0.0,0.0,0.0,0.0,0.0,0.0,0.0,0.0,0.0,0.0,0.0,0.0,0.0,0.0,0.0,0.0,0.0,0.0,0.0,0.0,0.0,0.0,0.0,0.0,0.0,0.0,0.0,0.0,0.0,0.0,0.0,0.0,0.0,0.0,0.0,0.0,0.0,0.0,0.0,0.0,0.0,0.0,0.0,0.0,0.0,0.0,0.0,0.0,0.0,0.0,0.0,0.0,0.0,0.0,0.0,0.0,0.0,0.0,0.0,0.0,0.0,0.0,0.0,0.0,0.0,0.0,0.0,0.0,0.0,0.0,0.0,0.0,0.0,0.0,0.0,0.0,0.0,0.0,0.0,0.0,0.0,0.0,0.0,0.0,0.0,0.0,0.0,0.0,0.0,0.0,0.0,0.0,0.0,0.0,0.0,0.0,0.0,0.0,0.0,0.0,0.0,0.0,1.502,1.404,1.3424,1.2876,1.2434,1.2873,1.312,0.0,0.0,0.0,0.0,0.0,0.0,0.0,0.0,0.0,0.0,0.0,0.0,0.0,0.0,0.0,0.0,0.0,0.0,0.0,0.0,0.0,0.0,0.0,0.0,0.0,0.0,0.0,0.0,0.0,0.0,0.0,0.0,0.0,0.0,0.0,0.0,0.0,0.0,0.0,0.0,0.0,0.0,0.0,0.0,0.0,0.0,0.0,0.0,0.0,0.0,0.0,0.0,0.0,0.0,0.0,0.0,0.0,0.0,0.0,0.0,0.0,0.0,0.0,0.0,0.0,0.0,0.0,0.0,0.0,0.0,0.0,0.0,0.0,0.0,0.0,0.0,0.0,0.0,0.0,0.0,0.0,0.0,0.0,0.0,0.0,0.0,0.0,0.0,0.0,0.0,0.0,0.0,0.0,0.0,0.0,0.0,0.0,0.0,0.0,0.0,0.0,0.0,0.0,0.0,0.0,0.0,0.0,0.0,1.4429,1.3643,1.2874,1.2437,1.2339,1.2638,1.2671,0.0,0.0,0.0,0.0,0.0,0.0,0.0,0.0,0.0,0.0,0.0,0.0,0.0,0.0,0.0,0.0,0.0,0.0,0.0,0.0,0.0,0.0,0.0,0.0,0.0,0.0,0.0,0.0,0.0,0.0,0.0,0.0,0.0,0.0,0.0,0.0,0.0,0.0,0.0,0.0,0.0,0.0,0.0,0.0,0.0,0.0,0.0,0.0,1.087,0.0,0.0,0.0,0.0,0.0,0.0,0.0,0.0,0.0,0.0,0.0,0.0,0.0,0.0,0.0,0.0,0.0,0.0,0.0,0.0,0.0,0.0,0.0,0.0,0.0,0.0,0.0,0.0,0.0,0.0,0.0,0.0,0.0,0.0,0.0,0.0,0.0,0.0,0.0,0.0,0.0,0.0,0.0,0.0,0.0,0.0,0.0,0.0,0.0,0.0,0.0,0.0,0.0,0.0,0.0,0.0,0.0,0.0,0.0,1.3368,1.2459,1.1967,1.1719,1.1743,1.1999,1.2281,0.0,0.0,0.0,0.0,0.0,0.0,0.0,0.0,0.0,0.0,0.0,0.0,0.0,0.0,0.0,0.0,0.0,0.0,0.0,0.0,0.0,0.0,0.0,0.0,0.0,0.0,0.0,0.0,0.0,0.0,0.0,0.0,0.0,0.0,0.0,0.0,0.0,0.0,0.0,0.0,0.0,0.0,0.0,0.0,0.0,0.0,0.0,0.0,0.0,0.0,0.0,0.0,0.0,0.0,0.0,0.0,0.0,0.0,0.0,0.0,0.0,0.0,0.0,0.0,0.0,0.0,0.0,0.0,0.0,0.0,0.0,0.0,0.0,0.0,0.0,0.0,0.0,0.0,0.0,0.0,0.0,0.0,0.0,0.0,0.0,0.0,0.0,0.0,0.0,0.0,0.0,0.0,0.0,0.0,0.0,0.0,0.0,0.0,0.0,0.0,0.0,0.0,0.0,0.0,0.0,0.0,0.0,1.3378,1.2284,1.1236,1.1064,1.1037,1.1074,1.1288,1.191,1.2927,0.0,0.0,0.0,0.0,0.0,0.0,0.0,0.0,0.0,0.0,0.0,0.0,0.0,0.0,0.0,0.0,0.0,0.0,0.0,0.0,0.0,0.0,0.0,0.0,0.0,0.0,0.0,0.0,0.0,0.0,0.0,0.0,0.0,0.0,0.0,0.0,0.0,0.0,1.0899,1.0816,0.0,0.0,0.0,0.0,0.0,0.0,0.0,0.0,1.0669,0.0,0.0,0.0,0.0,0.0,0.0,0.0,0.0,0.0,0.0,0.0,0.0,0.0,0.0,0.0,0.0,0.0,0.0,0.0,0.0,0.0,0.0,0.0,0.0,0.0,0.0,0.0,0.0,0.0,0.0,0.0,0.0,0.0,0.0,0.0,0.0,0.0,0.0,0.0,0.0,0.0,0.0,0.0,0.0,0.0,0.0,0.0,0.0,0.0,0.0,0.0,0.0,0.0,0.0,0.0,0.0,1.3762,1.2598,1.1702,1.1138,1.077,1.0663,1.0844,1.0997,1.1376,1.1969,0.0,0.0,0.0,0.0,0.0,0.0,0.0,0.0,0.0,0.0,0.0,0.0,0.0,0.0,0.0,0.0,0.0,0.0,0.0,0.0,0.0,0.0,0.0,0.0,0.0,0.0,0.0,0.0,0.0,0.0,0.0,0.0,0.0,0.0,0.0,0.0,0.0,0.0,0.0,1.1199,1.1335,0.0,0.0,0.0,0.0,0.0,0.0,0.0,0.0,1.0666,0.0,0.0,0.0,0.0,0.0,0.0,0.0,0.0,0.0,0.0,0.0,0.0,0.0,0.0,0.0,0.0,0.0,0.0,0.0,0.0,0.0,0.0,0.0,0.0,0.0,0.0,0.0,0.0,0.0,0.0,0.0,0.0,0.0,0.0,0.0,0.0,0.0,0.0,0.0,0.0,0.0,0.0,0.0,0.0,0.0,0.0,0.0,0.0,0.0,0.0,0.0,0.0,0.0,0.0,0.0,1.2962,1.1725,1.0836,1.0338,1.0146,1.0127,1.0324,1.0665,1.0976,0.0,0.0,0.0,0.0,0.0,0.0,0.0,0.0,0.0,0.0,0.0,0.0,0.0,0.0,0.0,0.0,0.0,0.0,0.0,0.0,0.0,0.0,0.0,0.0,0.0,0.0,0.0,0.0,0.0,0.0,0.0,0.0,0.0,0.0,0.0,0.0,0.0,0.0,0.0,0.0,1.1297,1.1405,1.1182,0.0,0.0,0.0,0.0,0.0,0.0,1.1034,1.0813,0.0,0.0,0.0,0.0,0.0,0.0,0.0,0.0,0.0,0.0,0.0,0.0,0.0,0.0,0.0,0.0,0.0,0.0,0.0,0.0,0.0,0.0,0.0,0.0,0.0,0.0,0.0,0.0,0.0,0.0,0.0,0.0,0.0,0.0,0.0,0.0,0.0,0.0,0.0,0.0,0.0,0.0,0.0,0.0,0.0,0.0,0.0,0.0,0.0,0.0,0.0,0.0,0.0,0.0,0.0,1.2142,1.0734,0.9822,0.9385,0.9399,0.9511,0.9712,1.0364,1.0736,0.0,0.0,0.0,0.0,0.0,0.0,0.0,0.0,0.0,0.0,0.0,0.0,0.0,0.0,0.0,0.0,0.0,0.0,0.0,0.0,0.0,0.0,0.0,0.0,0.0,0.0,0.0,0.0,0.0,0.0,0.0,0.0,0.0,0.0,0.0,0.0,0.0,0.0,0.0,0.0,0.0,1.1406,1.1082,1.1254,0.0,0.0,0.0,0.0,1.0976,1.0947,0.0,0.0,0.0,0.0,0.0,0.0,0.0,0.0,0.0,0.0,0.0,0.0,0.0,0.0,0.0,0.0,0.0,0.0,0.0,0.0,0.0,0.0,0.0,0.0,0.0,0.0,0.0,0.0,0.0,0.0,0.0,0.0,0.0,0.0,0.0,0.0,0.0,0.0,0.0,0.0,0.0,0.0,0.0,0.0,0.0,0.0,0.0,0.0,0.0,0.0,0.0,0.0,0.0,0.0,0.0,0.0,1.1215,0.9627,0.8713,0.8558,0.8707,0.8898,0.9114,1.0202,1.0764,0.0,0.0,0.0,0.0,0.0,0.0,0.0,0.0,0.0,0.0,0.0,0.0,0.0,0.0,0.0,0.0,0.0,0.0,0.0,0.0,0.0,0.0,0.0,0.0,0.0,0.0,0.0,0.0,0.0,0.0,0.0,0.0,0.0,0.0,0.0,0.0,0.0,0.0,0.0,0.0,0.0,1.1471,1.1128,1.1314,1.14,0.0,0.0,0.0,1.0713,1.1095,0.0,0.0,0.0,0.0,0.0,0.0,0.0,0.0,0.0,0.0,0.0,0.0,0.0,0.0,0.0,0.0,0.0,0.0,0.0,0.0,0.0,0.0,0.0,0.0,0.0,0.0,0.0,0.0,0.0,0.0,0.0,0.0,0.0,0.0,0.0,0.0,0.0,0.0,0.0,0.0,0.0,0.0,0.0,0.0,0.0,0.0,0.0,0.0,0.0,0.0,0.0,0.0,0.0,0.0,0.0,1.1373,1.0518,0.9036,0.8213,0.8068,0.8324,0.865,0.9005,0.9712,1.0355,0.0,0.0,0.0,0.0,0.0,0.0,0.0,0.0,0.0,0.0,0.0,0.0,0.0,0.0,0.0,0.0,0.0,0.0,0.0,0.0,0.0,0.0,0.0,0.0,0.0,0.0,0.0,0.0,0.0,0.0,0.0,0.0,0.0,0.0,0.0,0.0,0.0,0.0,0.0,0.0,0.0,0.0,1.0807,1.0721,0.0,0.0,0.0,1.1025,1.0422,0.0,0.0,0.0,0.0,0.0,0.0,0.0,0.0,0.0,0.0,0.0,0.0,0.0,0.0,0.0,0.0,0.0,0.0,0.0,0.0,0.0,0.0,0.0,0.0,0.0,0.0,0.0,0.0,0.0,0.0,0.0,0.0,0.0,0.0,0.0,0.0,0.0,0.0,0.0,0.0,0.0,0.0,0.0,0.0,0.0,0.0,0.0,0.0,0.0,0.0,0.0,0.0,0.0,0.0,0.0,0.0,0.0,1.0009,0.8549,0.7722,0.7579,0.7882,0.8251,0.8767,0.9293,0.0,0.0,0.0,0.0,0.0,0.0,0.0,0.0,0.0,0.0,0.0,0.0,0.0,0.0,0.0,0.0,0.0,0.0,0.0,0.0,0.0,0.0,0.0,0.0,0.0,0.0,0.0,1.3613,0.0,0.0,0.0,0.0,0.0,0.0,0.0,0.0,0.0,0.0,0.0,0.0,0.0,0.0,1.0782,1.0479,1.0265,1.0069,0.0,0.0,1.0401,0.995,1.0057,1.0114,0.0,0.0,0.0,0.0,0.0,0.0,0.0,0.0,0.0,0.0,0.0,0.0,0.0,0.0,0.0,0.0,0.0,0.0,0.0,0.0,0.0,0.0,0.0,0.0,0.0,0.0,0.0,0.0,0.0,0.0,0.0,0.0,0.0,0.0,0.0,0.0,0.0,0.0,0.0,0.0,0.0,0.0,0.0,0.0,0.0,0.0,0.0,0.0,0.0,0.0,0.0,0.0,0.0,0.0,0.0,0.9786,0.8128,0.7176,0.6968,0.7157,0.7567,0.8144,0.9035,0.9862,0.0,0.0,0.0,0.0,0.0,0.0,0.0,0.0,0.0,0.0,0.0,0.0,0.0,0.0,0.0,0.0,0.0,0.0,0.0,0.0,0.0,0.0,0.0,0.0,0.0,0.0,0.0,0.0,0.0,0.0,0.0,0.0,0.0,0.0,0.0,0.0,0.0,0.0,0.0,0.0,0.0,1.0544,1.0339,1.0177,0.9944,0.0,0.0,1.0374,0.9175,0.9666,0.9902,0.9047,0.0,0.0,0.0,0.0,0.0,0.0,0.0,0.0,0.0,0.0,0.0,0.0,0.0,0.0,0.0,0.0,0.0,0.0,0.0,0.0,0.0,0.0,0.0,0.0,0.0,0.0,0.0,0.0,0.0,0.0,0.0,0.0,0.0,0.0,0.0,0.0,0.0,0.0,0.0,0.0,0.0,0.0,0.0,0.0,0.0,0.0,0.0,0.0,0.0,0.0,0.0,0.0,0.0,1.0182,0.9608,0.8134,0.7286,0.7106,0.7368,0.7763,0.8277,0.886,0.9655,0.0,0.0,0.0,0.0,0.0,0.0,0.0,0.0,0.0,0.0,0.0,0.0,0.0,0.0,0.0,0.0,0.0,0.0,0.0,0.0,0.0,0.0,0.0,0.0,0.0,0.0,0.0,0.0,1.1501,1.1209,1.1019,0.0,0.0,0.0,0.0,0.0,0.0,0.0,0.0,0.0,0.0,1.0016,0.9936,0.9735,0.0,0.0,0.9849,1.0038,0.9424,0.9574,0.9619,0.9179,0.938,0.0,0.0,0.0,0.0,0.0,0.0,0.0,0.0,0.0,0.0,0.0,0.0,0.0,0.0,0.0,0.0,0.0,0.0,0.0,0.0,0.0,0.0,0.0,0.0,0.0,0.0,0.0,0.0,0.0,0.0,0.0,0.0,0.0,0.0,0.0,0.0,0.0,0.0,0.0,0.0,0.0,0.0,0.0,0.0,0.0,0.0,0.0,0.0,0.0,0.0,0.0,0.0,1.0006,0.9486,0.822,0.7449,0.7204,0.7421,0.7783,0.8271,0.8652,0.9346,0.0,0.0,0.0,0.0,0.0,0.0,0.0,0.0,0.0,0.0,0.0,0.0,0.0,0.0,0.0,0.0,0.0,0.0,0.0,0.0,0.0,0.0,0.0,0.0,0.0,0.0,0.0,0.0,1.0945,1.0796,1.101,0.0,0.0,0.0,0.0,0.0,0.0,0.0,0.0,0.0,0.0,0.9726,0.9761,0.9511,0.9284,0.9224,0.9499,0.9623,0.9356,0.9299,0.9209,0.9092,0.0,0.0,0.0,0.0,0.0,0.0,0.0,0.0,0.0,0.0,0.0,0.0,0.0,0.0,0.0,0.0,0.0,0.0,0.0,0.0,0.0,0.0,0.0,0.0,0.0,0.0,0.0,0.0,0.0,0.0,0.0,0.0,0.0,0.0,0.0,0.0,0.0,0.0,0.0,0.0,0.0,0.0,0.0,0.0,0.0,0.0,0.0,0.0,0.0,0.0,0.0,0.0,0.0,0.0,0.949,0.8306,0.7536,0.722,0.7204,0.7487,0.7981,0.8333,0.8937,0.9817,0.0,0.0,0.0,0.0,0.0,0.0,0.0,0.0,0.0,0.0,0.0,0.0,0.0,0.0,0.0,0.0,0.0,0.0,0.0,0.0,0.0,0.0,0.0,0.0,0.0,0.0,1.0589,1.0396,1.0533,0.0,0.0,0.0,0.0,0.0,0.0,0.0,0.0,0.0,0.0,1.009,0.9774,0.9955,0.9593,0.9231,0.9051,0.9194,0.9194,0.8818,0.8743,0.8676,0.0,0.0,0.0,0.0,0.0,0.0,0.0,0.0,0.0,0.0,0.0,0.0,0.0,0.0,0.0,0.0,0.0,0.0,0.0,0.0,0.0,0.0,0.0,0.0,0.0,0.0,0.0,1.3437,1.3524,0.0,0.0,0.0,0.0,0.0,0.0,0.0,0.0,0.0,0.0,0.0,1.2747,1.2798,0.0,0.0,0.0,0.0,0.0,0.0,0.0,0.0,0.0,0.0,0.0,0.0,0.9775,0.9468,0.8431,0.7738,0.7412,0.7482,0.7678,0.7982,0.8317,0.8948,0.991,0.0,0.0,0.0,0.0,0.0,0.0,0.0,0.0,0.0,0.0,0.0,0.0,0.0,0.0,0.0,0.0,0.0,0.0,0.0,0.0,0.0,0.0,0.0,0.0,0.0,1.0488,0.0,0.0,0.0,0.0,0.0,0.0,0.0,0.0,0.0,0.0,0.0,1.0609,1.0598,0.9812,0.9355,0.9673,0.9473,0.9265,0.0,0.0,0.0,0.0,0.0,0.0,0.0,0.0,0.0,0.0,0.0,0.0,0.0,0.0,0.8514,0.8641,0.8556,0.8505,0.8646,0.0,0.0,0.0,0.0,0.0,0.0,0.0,0.0,0.0,0.0,0.0,0.0,0.0,0.0,0.0,0.0,1.3197,0.0,0.0,0.0,0.0,0.0,0.0,0.0,0.0,1.3093,1.2896,1.236,1.2547,1.2495,0.0,1.2708,1.2879,0.0,0.0,0.0,0.0,0.0,0.0,0.0,0.0,0.9779,0.9474,0.8511,0.7857,0.7591,0.7596,0.7727,0.7906,0.8349,0.9006,0.9802,1.0134,1.0525,0.0,0.0,0.0,0.0,0.0,0.0,0.0,0.0,0.0,0.0,0.0,0.0,0.0,0.0,0.0,0.0,0.0,0.0,0.0,0.0,0.0,0.0,0.0,1.0059,0.0,0.0,0.0,0.0,0.0,0.0,0.0,0.0,0.0,1.0228,1.0127,1.0077,1.0227,0.959,0.9251,0.9638,0.0,0.0,0.0,0.0,0.0,0.0,0.0,0.9097,0.8784,0.8842,0.8808,0.8336,0.8159,0.7928,0.7488,0.0,0.0,0.7513,0.732,0.7158,0.7374,0.7121,0.6818,0.6654,0.6091,0.5365,0.0,0.0,0.0,0.0,0.0,0.0,0.0,0.0,1.2986,1.2977,0.0,1.2839,0.0,0.0,0.0,0.0,0.0,0.0,0.0,0.0,1.256,1.2355,1.2262,1.2052,1.2066,1.2285,1.2328,1.2344,1.2376,1.2566,0.0,0.0,0.0,0.0,0.0,0.0,0.9668,0.9426,0.8479,0.7906,0.7683,0.7559,0.7563,0.7715,0.8414,0.9022,0.9492,0.9993,1.0364,1.0593,1.0935,0.0,0.0,0.0,0.0,0.0,0.0,0.0,0.0,0.0,0.0,0.0,0.0,0.0,0.0,0.0,0.0,0.0,0.0,0.0,0.0,1.0056,0.0,0.0,0.0,0.0,0.0,0.0,0.0,0.0,0.0,0.0,0.9107,0.9417,0.9663,0.9622,0.0,0.0,0.0,0.0,0.9221,0.9011,0.899,0.8921,0.8642,0.8604,0.8513,0.8219,0.0,0.0,0.7658,0.7289,0.6801,0.6029,0.5814,0.602,0.6888,0.6323,0.5835,0.5983,0.5408,0.488,0.4709,0.4206,0.351,1.333,0.0,0.0,0.0,0.0,1.42,1.4033,1.3774,1.3568,1.3464,1.342,1.3143,0.0,0.0,0.0,0.0,0.0,0.0,1.2989,1.2482,1.2413,1.221,1.1891,1.219,1.2273,1.2168,1.2497,1.237,1.1836,1.1753,1.1725,1.1753,0.0,0.0,0.0,0.0,0.8941,0.8763,0.8269,0.7857,0.758,0.7526,0.7563,0.7699,0.8414,0.8894,0.9139,0.9648,1.0085,1.0364,1.0274,0.0,0.0,0.0,0.0,0.0,0.0,0.0,0.0,0.0,0.0,0.0,0.0,0.0,0.0,0.0,0.0,0.0,0.0,0.0,0.9391,0.9374,0.9445,0.0,0.0,0.0,0.0,0.0,0.0,0.0,0.0,0.0,0.8204,0.8729,0.9297,0.0,0.0,0.9009,0.9437,0.9262,0.9017,0.8823,0.0,0.0,0.0,0.8603,0.8342,0.7611,0.7215,0.6938,0.6787,0.6398,0.5918,0.5343,0.4812,0.4489,0.459,0.4683,0.4634,0.4501,0.4033,0.3614,0.35,0.3036,0.2503,1.3612,1.3693,1.3654,1.3736,1.388,1.3853,1.38,1.3706,1.3508,1.3422,1.3404,1.3038,1.3064,1.3292,1.2525,0.0,0.0,0.0,1.269,1.2177,1.2286,1.2278,1.2235,1.2561,1.2614,1.2478,1.2702,1.2519,1.1933,1.1443,1.1264,1.1397,0.0,0.0,0.983,0.9108,0.8614,0.8371,0.8047,0.7754,0.751,0.751,0.7563,0.7715,0.8349,0.8748,0.8926,0.9494,0.9894,1.0085,0.9966,1.0102,0.0,0.0,0.0,0.0,0.0,0.0,0.0,0.0,0.0,0.0,0.0,1.1324,0.0,0.0,0.0,0.0,0.9605,0.9366,0.866,0.9002,0.0,0.0,0.0,0.0,0.0,0.0,0.0,0.8612,0.8305,0.8061,0.794,0.823,0.8712,0.9338,0.901,0.8801,0.9144,0.0,0.8754,0.853,0.8467,0.8333,0.8055,0.7895,0.7468,0.6492,0.5997,0.565,0.5428,0.5097,0.4699,0.4229,0.3715,0.327,0.3094,0.3158,0.3254,0.3213,0.2829,0.2449,0.2261,0.1838,0.1397,1.3599,1.3398,1.3033,1.2886,1.2854,1.2989,1.3059,1.3059,1.3045,1.305,1.3045,1.2737,1.2485,1.227,1.2469,0.0,0.0,1.2045,1.2198,1.1995,1.2089,1.2371,1.284,1.2823,1.2846,1.2844,1.2708,1.253,1.2345,1.1395,1.0821,1.0602,0.9833,0.9273,0.8973,0.8806,0.8522,0.8123,0.7824,0.7629,0.7493,0.7472,0.7526,0.7666,0.8236,0.8592,0.8759,0.942,0.9788,0.9766,0.9903,1.0088,1.0278,0.0,0.0,0.0,0.0,0.0,0.0,0.0,0.0,0.0,0.0,0.0,0.0,0.0,0.0,0.0,0.9144,0.0,0.8341,0.8805,0.0,0.0,0.0,0.8684,0.9002,0.8505,0.8126,0.824,0.0,0.0,0.0,0.0,0.7978,0.8489,0.8582,0.8675,0.8867,0.8653,0.8408,0.808,0.7788,0.7447,0.7042,0.6628,0.6027,0.5171,0.4723,0.4392,0.3979,0.3697,0.3361,0.298,0.2645,0.2401,0.2177,0.1993,0.1829,0.2024,0.1757,0.1409,0.1165,0.0758,0.0392,1.3766,1.3626,1.3575,1.3459,1.326,1.3459,1.3531,1.3531,1.3531,1.3531,1.3498,1.2879,1.2361,1.2034,1.2555,1.2609,1.2226,1.2281,1.22,1.1977,1.1663,1.1539,1.1532,1.1404,1.1515,1.181,1.1354,1.1213,1.1386,1.0566,1.0071,0.9903,0.9181,0.875,0.8612,0.8194,0.7792,0.7428,0.751,0.7461,0.7281,0.7265,0.7347,0.7542,0.8295,0.856,0.8214,0.9221,0.967,0.945,0.9792,1.004,1.0142,1.0474,0.0,0.0,0.0,0.0,0.0,0.0,0.0,0.0,0.0,1.0426,0.9583,0.0,0.9309,0.0,0.8934,0.8778,0.8364,0.8571,0.0,0.0,0.8444,0.8482,0.8564,0.8282,0.7984,0.7709,0.7808,0.7703,0.7253,0.7422,0.7499,0.7361,0.7594,0.7812,0.7842,0.776,0.7506,0.711,0.6864,0.6592,0.5988,0.5094,0.4471,0.4392,0.3756,0.3229,0.3148,0.2936,0.267,0.2399,0.2154,0.1885,0.1637,0.1413,0.1175,0.0921,0.0999,0.1055,0.0669,0.0316,0.0025,1.3134,1.2994,1.3032,1.2841,1.2581,1.3429,1.3623,1.3338,1.3281,1.3236,1.3179,1.2614,1.2211,1.194,1.2299,1.2365,1.2224,1.2255,1.2228,1.2166,1.1912,1.1821,1.1895,1.1793,1.1877,1.2088,1.1778,1.1569,1.1448,1.0566,0.9977,0.9643,0.8686,0.8179,0.8138,0.789,0.7532,0.7077,0.7265,0.7358,0.7347,0.733,0.7477,0.7819,0.8457,0.8732,0.8598,0.943,0.9758,0.9455,0.9731,1.0003,1.0181,1.0235,1.0235,0.0,0.0,0.0,0.0,0.0,0.0,0.0,0.0,0.0,0.0,0.0,0.899,0.0,0.8858,0.8832,0.8514,0.8674,0.8661,0.8376,0.8385,0.833,0.8173,0.795,0.767,0.7396,0.7388,0.7277,0.6942,0.6999,0.7019,0.6791,0.6868,0.7048,0.7243,0.719,0.6926,0.6468,0.6103,0.5571,0.4701,0.3867,0.3267,0.3089,0.2758,0.2429,0.222,0.2198,0.2102,0.1903,0.1626,0.1458,0.1279,0.1076,0.0811,0.0545,0.0616,0.0623,0.0308,-0.0073,-0.0392,1.2312,1.2157,1.2145,1.186,1.1592,1.3068,1.3316,1.2697,1.2606,1.2509,1.2393,1.2163,1.1991,1.1905,1.1947,1.1985,1.2002,1.2131,1.2265,1.2378,1.2272,1.239,1.2672,1.2654,1.2667,1.2727,1.2654,1.2373,1.1839,1.0821,1.0055,0.9498,0.8385,0.7787,0.7731,0.7772,0.751,0.6951,0.7073,0.7248,0.7456,0.7456,0.7668,0.809,0.8501,0.8845,0.9091,0.9594,0.975,0.9488,0.9623,0.9842,1.0092,0.9849,0.9749,0.0,0.9781,0.0,0.0,0.0,0.0,0.0,0.0,0.0,0.0,0.8958,0.8811,0.8641,0.8803,0.8835,0.8642,0.8774,0.8746,0.8363,0.8318,0.8173,0.7801,0.7521,0.732,0.7142,0.6984,0.6884,0.6768,0.6656,0.6602,0.6447,0.6374,0.6415,0.6781,0.6701,0.6429,0.5985,0.5353,0.445,0.3408,0.2839,0.2417,0.188,0.1905,0.1824,0.1434,0.1562,0.1668,0.1414,0.1235,0.1094,0.103,0.0807,0.0605,0.0382,0.036,0.0273,0.0047,-0.0335,-0.075,1.2364,1.2424,1.2312,1.2101,1.1924,1.2399,1.2259,1.1701,1.1827,1.174,1.1507,1.1681,1.1781,1.1857,1.2283,1.2483,1.2451,1.2282,1.2206,1.2201,1.1623,1.1381,1.1433,1.1336,1.1477,1.1794,1.1358,1.1135,1.1171,1.0343,0.9689,0.9265,0.871,0.8215,0.781,0.0,0.0,0.0,0.7028,0.704,0.7248,0.7253,0.7379,0.7635,0.809,0.0,0.8036,0.8775,0.9032,0.8741,0.914,0.0,0.0,0.0,0.0,0.0,0.0,0.0,0.0,0.0,0.0,0.0,0.8551,0.8669,0.8919,0.8809,0.8736,0.8679,0.8585,0.8439,0.822,0.8251,0.8187,0.7943,0.7922,0.7795,0.7513,0.7332,0.7115,0.6764,0.6811,0.6691,0.6231,0.637,0.6386,0.5925,0.5902,0.5935,0.5905,0.5979,0.5787,0.5149,0.414,0.3224,0.2493,0.2205,0.1973,0.167,0.1495,0.1443,0.134,0.135,0.1345,0.1124,0.1048,0.0924,0.0603,0.0493,0.038,0.0112,0.0,0.0045,0.0,-0.0254,-0.0584,1.1301,0.0,1.1301,1.1036,0.0,1.1103,1.0991,1.0602,1.1304,1.1387,1.1028,1.1181,1.1279,1.1333,1.1698,1.191,1.2021,1.1969,1.1957,1.1926,1.1566,1.1388,1.1405,1.1323,1.1417,1.1624,1.1351,1.1126,1.1004,1.0253,0.9608,0.9101,0.8518,0.8017,0.7664,0.7747,0.764,0.7347,0.7337,0.7337,0.7356,0.7449,0.7598,0.7841,0.0,0.0,0.0,0.0,0.0,0.0,0.0,0.0,0.0,0.0,0.0,0.8849,0.8733,0.8653,0.8652,0.881,0.8798,0.858,0.8459,0.8417,0.8511,0.8528,0.852,0.8408,0.8227,0.8074,0.7963,0.7848,0.7718,0.7551,0.751,0.7413,0.718,0.6998,0.6834,0.6637,0.6602,0.6425,0.5957,0.6046,0.6042,0.5696,0.5653,0.5596,0.5367,0.5298,0.4976,0.3978,0.3172,0.2447,0.2008,0.1826,0.1675,0.1497,0.138,0.1326,0.1321,0.1316,0.1227,0.1031,0.0913,0.0752,0.0455,0.0283,0.0153,0.0,0.0,0.0,0.0,-0.0205,-0.053,1.0026,1.0034,0.9971,0.9685,0.926,0.9807,0.9922,0.9793,0.0,0.0,0.0,1.0715,1.0728,1.0762,1.0997,1.1178,1.1298,1.1521,1.1614,1.1632,1.1614,1.1614,1.1651,1.1683,1.1683,1.1651,1.1683,1.1453,1.0965,1.0251,0.9581,0.8913,0.8226,0.7786,0.7615,0.7741,0.776,0.7614,0.7726,0.769,0.7503,0.7664,0.7841,0.8074,0.8074,0.8258,0.8592,0.87,0.8649,0.8439,0.8532,0.8673,0.8807,0.8426,0.8361,0.867,0.8283,0.8141,0.837,0.8369,0.8403,0.8532,0.8384,0.825,0.8102,0.825,0.8274,0.8121,0.7882,0.7744,0.7763,0.7518,0.733,0.718,0.7146,0.7065,0.6884,0.6714,0.6588,0.647,0.6306,0.6101,0.5777,0.5679,0.5604,0.5502,0.5353,0.512,0.4759,0.4518,0.4114,0.3183,0.2596,0.2081,0.1748,0.1631,0.1513,0.1358,0.1318,0.1317,0.132,0.1317,0.1214,0.0939,0.0807,0.0649,0.0379,0.019,0.0042,0.0,0.0,0.0,0.0,-0.0181,-0.0501,0.9335,0.933,0.9165,0.8993,0.8898,0.9209,0.9495,0.9792,1.0087,1.0231,1.0285,1.0338,1.0431,1.0567,1.1002,1.1074,1.0912,1.1093,1.1279,0.0,1.126,1.1279,1.1459,1.1657,1.167,1.1478,1.1676,1.1345,1.0525,1.0116,0.9484,0.8725,0.8368,0.8114,0.7957,0.7954,0.7957,0.7928,0.7843,0.7707,0.7515,0.7534,0.7571,0.7608,0.7603,0.7673,0.7846,0.7889,0.7944,0.8055,0.7936,0.7946,0.8116,0.798,0.8054,0.84,0.8235,0.8175,0.8382,0.8237,0.8087,0.7934,0.7895,0.7934,0.8083,0.8121,0.8121,0.8083,0.7733,0.7561,0.7518,0.7211,0.6961,0.6922,0.6945,0.6868,0.6656,0.6602,0.6414,0.6009,0.5885,0.5707,0.5344,0.519,0.5155,0.5057,0.4844,0.4346,0.3715,0.3485,0.3431,0.308,0.2568,0.2158,0.1847,0.1691,0.1513,0.1336,0.1317,0.1317,0.1317,0.1322,0.1176,0.075,0.0795,0.0658,0.0209,0.0168,0.0168,0.0,0.0,0.0,0.0,-0.0066,-0.0376,0.8529,0.8602,0.851,0.8349,0.8179,0.8539,0.8789,0.8947,0.9147,0.9621,1.0202,1.0264,1.0277,1.0256,1.0418,1.0504,1.0527,1.0737,1.0934,1.1131,1.1131,1.1111,1.1092,1.1301,1.1351,1.1235,1.1376,1.1134,1.0635,1.0236,0.9746,0.9131,0.8596,0.8265,0.8184,0.8164,0.811,0.7998,0.7968,0.7861,0.7669,0.7664,0.7612,0.7515,0.751,0.7583,0.7731,0.7637,0.7633,0.7719,0.7657,0.7632,0.7722,0.7556,0.765,0.8018,0.7682,0.7627,0.8053,0.7925,0.7826,0.781,0.7517,0.7485,0.7748,0.7753,0.7776,0.7753,0.7311,0.7061,0.7153,0.6811,0.6583,0.6579,0.6583,0.6544,0.6447,0.6432,0.627,0.5892,0.5853,0.5661,0.5152,0.5078,0.4995,0.4839,0.4375,0.3735,0.3171,0.2901,0.2627,0.2316,0.2061,0.1806,0.1631,0.1513,0.1395,0.1317,0.1317,0.1317,0.1317,0.1317,0.1145,0.0836,0.0859,0.0741,0.0365,0.0304,0.0265,0.0186,0.0062,0.0,0.0,-0.0285,-0.0777,0.7741,0.7855,0.7855,0.773,0.7601,0.7963,0.8135,0.8156,0.8448,0.9046,0.9764,0.9879,0.9852,0.9771,0.9806,1.0005,1.0274,1.0392,1.0569,1.0816,1.0939,1.0923,1.086,1.1042,1.1132,1.1138,1.1187,1.1024,1.0661,1.0312,0.9873,0.9379,0.8752,0.8449,0.8455,0.8441,0.8379,0.8235,0.8163,0.8057,0.7875,0.7865,0.7802,0.7645,0.7636,0.7707,0.7859,0.77,0.7645,0.7628,0.7554,0.7515,0.7561,0.7357,0.7402,0.7708,0.7302,0.7242,0.7677,0.7631,0.7605,0.7653,0.7287,0.7168,0.7387,0.735,0.735,0.735,0.6949,0.6679,0.6768,0.6505,0.628,0.628,0.628,0.6315,0.63,0.628,0.6145,0.5791,0.572,0.556,0.5141,0.4958,0.4773,0.4419,0.3848,0.3313,0.2922,0.2451,0.2002,0.167,0.1553,0.1572,0.1395,0.1336,0.1317,0.1317,0.1317,0.1317,0.1317,0.1317,0.1199,0.0965,0.0964,0.0867,0.0669,0.0472,0.0357,0.0282,0.0121,0.0,0.0,0.0,-0.0918,0.6977,0.709,0.7132,0.7263,0.7482,0.7544,0.7694,0.7932,0.8323,0.8555,0.8615,0.8713,0.8868,0.905,0.9426,0.9841,1.0207,1.0055,1.0196,1.054,1.0383,1.0509,1.0818,1.1144,1.1246,1.1181,1.1354,1.1,1.0289,1.0035,0.9537,0.8875,0.8883,0.8895,0.8838,0.8832,0.8842,0.8889,0.8514,0.8199,0.8069,0.8069,0.806,0.8045,0.8031,0.8068,0.8069,0.805,0.8028,0.802,0.7696,0.7579,0.7698,0.7467,0.7442,0.7751,0.7571,0.7498,0.7527,0.7517,0.7432,0.7273,0.7195,0.7149,0.7215,0.6891,0.6834,0.7046,0.6834,0.6602,0.6602,0.6412,0.6257,0.6241,0.6257,0.628,0.6261,0.628,0.6073,0.5401,0.5399,0.5192,0.4857,0.456,0.4234,0.3907,0.3477,0.2981,0.251,0.2178,0.1866,0.1533,0.1474,0.1573,0.1513,0.1415,0.1336,0.1317,0.1317,0.1317,0.1317,0.1297,0.1218,0.1061,0.11,0.1061,0.0805,0.057,0.0511,0.0396,0.0219,0.0,0.0,-0.0131,-0.0447,0.6858,0.6993,0.6912,0.6861,0.6849,0.6855,0.6918,0.7029,0.718,0.7199,0.7132,0.7403,0.7955,0.8727,0.905,0.923,0.9287,0.9303,0.9403,0.9631,1.0005,0.9997,0.9745,1.0468,1.0613,1.0233,1.0418,1.0361,1.0037,0.9815,0.9497,0.91,0.9035,0.8987,0.8954,0.8846,0.8801,0.8831,0.8637,0.8504,0.8424,0.8102,0.7922,0.7922,0.7918,0.805,0.8244,0.8168,0.803,0.7911,0.7633,0.7509,0.7509,0.716,0.7103,0.7443,0.7333,0.723,0.7317,0.7125,0.7078,0.7188,0.6874,0.676,0.6973,0.666,0.6548,0.6756,0.6586,0.6432,0.6393,0.6199,0.6025,0.5928,0.5986,0.6022,0.5909,0.6125,0.6017,0.5343,0.5361,0.5266,0.4783,0.4329,0.3937,0.3553,0.3184,0.2762,0.2431,0.2196,0.2021,0.1845,0.1728,0.1552,0.1454,0.1356,0.1317,0.1317,0.1317,0.1317,0.1317,0.1317,0.1258,0.114,0.1238,0.1258,0.11,0.0864,0.0746,0.0591,0.0364,0.0144,0.0021,-0.0218,-0.0558,0.6703,0.6849,0.6788,0.658,0.6346,0.6362,0.6406,0.6406,0.6406,0.6321,0.6235,0.6615,0.726,0.8068,0.8439,0.861,0.8674,0.8781,0.882,0.8862,0.9528,0.9454,0.8873,0.97,0.9935,0.9588,0.9675,0.971,0.9706,0.9455,0.9254,0.9052,0.8918,0.887,0.8893,0.8761,0.8701,0.8709,0.8642,0.8562,0.8417,0.8018,0.7871,0.8006,0.7949,0.8054,0.837,0.8226,0.8029,0.7892,0.7652,0.7421,0.7269,0.6886,0.6799,0.7055,0.7034,0.7004,0.7117,0.6881,0.6823,0.6961,0.6601,0.6492,0.6685,0.6505,0.6416,0.6544,0.6354,0.618,0.6157,0.5964,0.575,0.5634,0.5767,0.5825,0.5676,0.5967,0.5889,0.5275,0.5279,0.5229,0.4596,0.4022,0.3527,0.331,0.2961,0.2648,0.247,0.2273,0.2176,0.2119,0.1847,0.1631,0.1434,0.1336,0.1317,0.1317,0.1317,0.1317,0.1317,0.1317,0.1317,0.1238,0.1297,0.1277,0.1199,0.1061,0.0864,0.0773,0.0569,0.0314,0.0146,-0.0195,-0.0444,0.6433,0.6587,0.6595,0.6394,0.613,0.6308,0.6387,0.6365,0.6396,0.6374,0.6374,0.6643,0.6814,0.6981,0.7562,0.8225,0.8764,0.8607,0.8494,0.8428,0.879,0.8798,0.8563,0.9096,0.9379,0.9321,0.9354,0.9336,0.9197,0.893,0.8636,0.8479,0.846,0.8527,0.8685,0.8673,0.8681,0.8618,0.8454,0.8231,0.7908,0.7813,0.8037,0.8477,0.8282,0.8155,0.8323,0.819,0.8075,0.8089,0.7667,0.7384,0.7192,0.682,0.6628,0.667,0.6821,0.6908,0.6915,0.6889,0.6812,0.6672,0.6623,0.6588,0.6598,0.6412,0.6374,0.656,0.6173,0.5938,0.5883,0.5731,0.5598,0.5579,0.5767,0.575,0.5618,0.577,0.5663,0.5221,0.508,0.4805,0.4112,0.3461,0.3129,0.2973,0.2726,0.247,0.2332,0.2234,0.2157,0.2022,0.1906,0.1808,0.1612,0.1454,0.1356,0.1317,0.1317,0.1317,0.1317,0.1317,0.1317,0.1317,0.1317,0.1297,0.1238,0.11,0.0884,0.0756,0.0696,0.05,0.0249,0.0325,0.0044,0.593,0.5809,0.615,0.6047,0.5696,0.5961,0.6023,0.5989,0.6142,0.6162,0.6142,0.6362,0.6479,0.6521,0.6761,0.7139,0.7536,0.7474,0.7338,0.7243,0.7735,0.7779,0.7492,0.8039,0.8279,0.8245,0.8342,0.8486,0.8577,0.8726,0.8653,0.8369,0.8329,0.8414,0.8482,0.8328,0.8212,0.8127,0.8033,0.7874,0.7633,0.7485,0.7647,0.8075,0.7993,0.7947,0.8012,0.794,0.7848,0.7714,0.7328,0.7035,0.6827,0.6666,0.66,0.6604,0.6663,0.6776,0.6869,0.6787,0.6684,0.6607,0.6602,0.6525,0.6435,0.6338,0.6257,0.6135,0.6038,0.5822,0.5553,0.5456,0.5362,0.5268,0.5401,0.5456,0.5346,0.5498,0.5535,0.5089,0.4731,0.4277,0.3889,0.3323,0.2917,0.2814,0.2627,0.2485,0.2412,0.2412,0.2354,0.2276,0.2158,0.2002,0.1828,0.1632,0.1474,0.1356,0.1317,0.1317,0.1317,0.1317,0.1317,0.1317,0.1317,0.1297,0.1258,0.1238,0.1002,0.0874,0.0798,0.0627,0.0333,0.0304,0.0066,0.5623,0.5296,0.5722,0.5701,0.5405,0.5698,0.5851,0.5843,0.6015,0.6063,0.6013,0.611,0.6205,0.6279,0.623,0.6302,0.6571,0.6637,0.6545,0.6365,0.6962,0.7051,0.6814,0.729,0.7558,0.7544,0.7724,0.7946,0.8086,0.8354,0.8334,0.8084,0.8019,0.8045,0.8091,0.7954,0.7808,0.7741,0.7691,0.7585,0.7367,0.7204,0.7196,0.7368,0.7419,0.752,0.7683,0.7591,0.7457,0.7291,0.7041,0.6813,0.6614,0.6539,0.6501,0.6501,0.6505,0.6563,0.6662,0.6559,0.6491,0.6491,0.649,0.6432,0.63,0.6238,0.608,0.5918,0.5744,0.5573,0.5379,0.5265,0.5149,0.5054,0.5168,0.5185,0.4954,0.5268,0.5268,0.4842,0.4297,0.3882,0.356,0.2993,0.2654,0.2532,0.2467,0.2409,0.2412,0.247,0.251,0.249,0.2294,0.2119,0.1906,0.1691,0.1493,0.1375,0.1317,0.1317,0.1317,0.1317,0.1317,0.1317,0.1317,0.1317,0.1317,0.1317,0.1204,0.1032,0.0918,0.0777,0.049,0.0218,0.011,0.5564,0.5025,0.5345,0.5458,0.5334,0.5606,0.585,0.5994,0.6071,0.6066,0.5984,0.5928,0.6011,0.6125,0.5851,0.5827,0.606,0.621,0.6213,0.6149,0.6548,0.6637,0.6454,0.6808,0.7165,0.7393,0.7724,0.783,0.7822,0.7742,0.7645,0.7573,0.743,0.7467,0.7608,0.7608,0.7559,0.7518,0.7435,0.727,0.7116,0.6921,0.6797,0.6673,0.6651,0.6876,0.74,0.708,0.6884,0.6861,0.6853,0.6784,0.6561,0.643,0.6309,0.6318,0.6305,0.6312,0.6315,0.6347,0.6334,0.6335,0.6319,0.6319,0.6277,0.608,0.5922,0.5825,0.5573,0.5321,0.5282,0.5149,0.5035,0.5018,0.5149,0.5107,0.4874,0.501,0.5046,0.4445,0.3921,0.3469,0.3073,0.2597,0.2239,0.223,0.2266,0.2254,0.2273,0.2392,0.249,0.247,0.2333,0.2139,0.1924,0.171,0.1533,0.1356,0.1336,0.1317,0.1336,0.1336,0.1356,0.1336,0.1317,0.1317,0.1317,0.1319,0.1313,0.1186,0.1074,0.095,0.073,0.0524,0.0441,0.5513,0.4865,0.5302,0.5304,0.5128,0.5595,0.5734,0.5588,0.5863,0.5894,0.5707,0.5643,0.5612,0.5572,0.5377,0.531,0.5349,0.5411,0.5569,0.5822,0.6,0.6108,0.6194,0.6171,0.6346,0.6722,0.7013,0.7149,0.7165,0.7227,0.7265,0.7211,0.7049,0.7103,0.7299,0.7186,0.7084,0.6971,0.6942,0.6791,0.6548,0.6379,0.6312,0.636,0.6178,0.6225,0.6499,0.6324,0.6212,0.6231,0.6209,0.627,0.6354,0.6338,0.63,0.628,0.628,0.628,0.628,0.628,0.628,0.628,0.628,0.628,0.6257,0.6057,0.5844,0.5731,0.5559,0.5423,0.5168,0.5168,0.5129,0.4998,0.5037,0.4935,0.456,0.4384,0.4136,0.3887,0.3469,0.3147,0.2935,0.2499,0.2221,0.2163,0.2255,0.2352,0.2255,0.2353,0.251,0.249,0.2314,0.2119,0.1925,0.1691,0.1493,0.1356,0.1336,0.1317,0.1336,0.1356,0.1375,0.1356,0.1317,0.1317,0.1317,0.1306,0.132,0.1259,0.1122,0.1037,0.0989,0.0873,0.0729,0.5332,0.4806,0.51,0.5163,0.5061,0.5466,0.5603,0.5582,0.5738,0.5765,0.5682,0.5482,0.5487,0.5463,0.5275,0.5217,0.5218,0.5112,0.5205,0.547,0.5565,0.5774,0.6072,0.6093,0.6187,0.6498,0.6603,0.6604,0.6626,0.6685,0.6722,0.67,0.6678,0.6747,0.688,0.6784,0.667,0.6592,0.6539,0.6429,0.6249,0.6083,0.6052,0.612,0.5908,0.5804,0.5859,0.5727,0.5683,0.5779,0.586,0.598,0.6138,0.6238,0.628,0.628,0.628,0.628,0.628,0.628,0.628,0.628,0.628,0.628,0.6238,0.6038,0.5825,0.5657,0.5521,0.5362,0.5093,0.5093,0.5132,0.5018,0.494,0.472,0.4328,0.3938,0.3628,0.3425,0.3178,0.2962,0.2733,0.2491,0.2227,0.211,0.2234,0.2335,0.2217,0.2315,0.2431,0.2431,0.2217,0.2061,0.1907,0.1691,0.1434,0.1356,0.1317,0.1317,0.1317,0.1356,0.1375,0.1336,0.1317,0.1317,0.1317,0.1314,0.1309,0.1231,0.1194,0.1201,0.1182,0.1017,0.0916,0.5062,0.4809,0.4807,0.4977,0.5147,0.5231,0.545,0.5765,0.5575,0.5585,0.5678,0.5293,0.5386,0.5615,0.5301,0.5301,0.557,0.5292,0.5177,0.527,0.5375,0.5627,0.6029,0.6219,0.642,0.6587,0.6423,0.6311,0.6302,0.6238,0.6106,0.6247,0.6321,0.6358,0.6393,0.6368,0.6344,0.6311,0.6257,0.6208,0.6184,0.6035,0.5972,0.5975,0.5787,0.5649,0.5545,0.5379,0.536,0.5578,0.5747,0.5841,0.5941,0.6138,0.6238,0.6277,0.628,0.628,0.628,0.6238,0.6238,0.6219,0.6219,0.6277,0.6199,0.6018,0.5844,0.5657,0.5459,0.5243,0.5073,0.5018,0.4998,0.4918,0.4684,0.4409,0.4077,0.3645,0.3285,0.3064,0.2966,0.2863,0.2563,0.2324,0.2158,0.2063,0.2155,0.2198,0.2159,0.2315,0.2451,0.2374,0.2199,0.2016,0.1863,0.1592,0.1376,0.1352,0.1304,0.1314,0.1322,0.1337,0.1415,0.1375,0.1317,0.1317,0.1303,0.1319,0.1303,0.129,0.1299,0.1377,0.133,0.1162,0.1055,0.5211,0.4809,0.4782,0.4834,0.4935,0.5087,0.5165,0.5108,0.5035,0.498,0.4797,0.4493,0.4634,0.4974,0.4926,0.5071,0.5372,0.5376,0.5402,0.5514,0.5354,0.5505,0.5764,0.5883,0.6082,0.6251,0.6206,0.6134,0.6154,0.611,0.616,0.6308,0.6007,0.5926,0.6008,0.595,0.5877,0.5919,0.6076,0.6119,0.6091,0.5889,0.5791,0.5782,0.5637,0.5552,0.5479,0.5299,0.5251,0.5354,0.5437,0.5612,0.586,0.598,0.6099,0.6257,0.628,0.628,0.6257,0.6119,0.6018,0.6018,0.6035,0.6018,0.5999,0.5941,0.5864,0.5747,0.5515,0.5285,0.5207,0.5073,0.484,0.4392,0.4253,0.3938,0.3468,0.3018,0.2686,0.2487,0.259,0.2593,0.2536,0.2458,0.2373,0.2349,0.2374,0.2413,0.2375,0.2335,0.251,0.2393,0.2223,0.2026,0.1802,0.151,0.1342,0.1325,0.132,0.1303,0.1321,0.1318,0.1415,0.1493,0.1356,0.1317,0.1307,0.1321,0.1312,0.1348,0.1354,0.1406,0.14,0.1301,0.1169,0.5085,0.4809,0.491,0.496,0.5012,0.5263,0.5213,0.4979,0.4823,0.4631,0.4375,0.4072,0.418,0.4565,0.4712,0.4931,0.5293,0.5417,0.5444,0.5391,0.5269,0.5367,0.5588,0.571,0.5874,0.601,0.592,0.5923,0.5979,0.5968,0.6013,0.6062,0.5922,0.5867,0.5995,0.5749,0.5708,0.5767,0.5824,0.5841,0.5908,0.5777,0.573,0.5702,0.5613,0.5567,0.5494,0.5366,0.5289,0.5283,0.5316,0.5453,0.5747,0.5864,0.6018,0.6257,0.628,0.6257,0.6119,0.596,0.5892,0.5855,0.5871,0.5886,0.5949,0.5999,0.6052,0.5827,0.5658,0.549,0.529,0.511,0.4801,0.447,0.4175,0.3741,0.3095,0.2726,0.249,0.2412,0.249,0.2628,0.2628,0.2687,0.2725,0.2725,0.2668,0.2648,0.2609,0.2568,0.2474,0.2362,0.2203,0.1988,0.179,0.1537,0.1345,0.1327,0.1326,0.133,0.1325,0.1313,0.136,0.1419,0.1357,0.1322,0.1356,0.1378,0.1417,0.1429,0.1433,0.1366,0.1339,0.1327,0.1195,0.4834,0.4834,0.5037,0.519,0.5215,0.5436,0.5338,0.5125,0.4794,0.4527,0.4239,0.3938,0.4006,0.4386,0.4545,0.4855,0.515,0.534,0.529,0.5232,0.5156,0.5232,0.5283,0.5672,0.5834,0.5887,0.5637,0.5679,0.5798,0.5744,0.5704,0.5759,0.5913,0.601,0.5907,0.5694,0.568,0.5732,0.5577,0.5599,0.571,0.5688,0.5644,0.5708,0.5705,0.5626,0.5559,0.5453,0.5359,0.5256,0.5289,0.5412,0.5617,0.582,0.6041,0.6244,0.6289,0.6211,0.6028,0.595,0.5854,0.582,0.5811,0.5836,0.5953,0.6115,0.6157,0.588,0.5891,0.5685,0.5357,0.5095,0.4849,0.4594,0.4462,0.3897,0.3176,0.2746,0.2627,0.2568,0.2764,0.2883,0.2942,0.3022,0.3137,0.3253,0.3079,0.2824,0.2746,0.2648,0.2542,0.2379,0.2165,0.1931,0.1731,0.1545,0.1414,0.1346,0.1341,0.1329,0.1329,0.1322,0.1317,0.1305,0.1304,0.1375,0.1475,0.1486,0.1473,0.1477,0.143,0.1303,0.117,0.1197,0.111,0.4987,0.4809,0.486,0.5012,0.519,0.5265,0.5163,0.4883,0.4593,0.4243,0.3805,0.349,0.3667,0.411,0.4209,0.4433,0.486,0.5112,0.5234,0.5184,0.5184,0.4935,0.4883,0.5298,0.5635,0.5629,0.5617,0.5601,0.5634,0.5639,0.5614,0.5625,0.565,0.5623,0.5601,0.5488,0.5425,0.559,0.55,0.5488,0.5621,0.5552,0.5552,0.5666,0.5688,0.5702,0.5637,0.5556,0.548,0.5453,0.5428,0.5477,0.5662,0.5846,0.6047,0.6208,0.6244,0.6297,0.637,0.5972,0.5707,0.5905,0.585,0.5738,0.5779,0.6142,0.6183,0.6012,0.5968,0.5847,0.5449,0.4955,0.4781,0.4678,0.4446,0.4086,0.3688,0.355,0.3311,0.3153,0.3292,0.3567,0.3548,0.3391,0.3507,0.3704,0.345,0.3057,0.2881,0.2785,0.2551,0.2353,0.2149,0.1915,0.1726,0.153,0.1344,0.1264,0.1281,0.1334,0.1335,0.1341,0.1312,0.1317,0.131,0.1405,0.1525,0.1388,0.1305,0.1375,0.1408,0.1219,0.1082,0.1087,0.0916,0.491,0.4834,0.4935,0.5062,0.5215,0.5338,0.5163,0.4811,0.4537,0.4187,0.3759,0.3381,0.3432,0.381,0.3934,0.4182,0.441,0.4688,0.4813,0.4813,0.4811,0.4587,0.4386,0.4736,0.5085,0.5211,0.5336,0.5461,0.5561,0.5561,0.56,0.5584,0.5555,0.556,0.5505,0.5348,0.5426,0.5565,0.5501,0.5463,0.5508,0.5463,0.5441,0.553,0.5574,0.5599,0.5675,0.5654,0.5597,0.5575,0.5572,0.5586,0.5686,0.5809,0.5978,0.6126,0.615,0.6122,0.6077,0.5965,0.582,0.5948,0.5963,0.6005,0.6077,0.6355,0.6336,0.6211,0.6165,0.609,0.5606,0.5242,0.4989,0.4936,0.4809,0.463,0.4395,0.4053,0.3724,0.3526,0.3626,0.3802,0.3821,0.3838,0.4008,0.4249,0.3675,0.3281,0.3194,0.3044,0.2527,0.2274,0.2109,0.1901,0.1714,0.1492,0.1248,0.1158,0.1147,0.1239,0.1304,0.1313,0.1322,0.1311,0.1301,0.1429,0.1505,0.1345,0.1216,0.1319,0.1289,0.1115,0.0951,0.0845,0.0626,0.4782,0.4809,0.5037,0.5165,0.524,0.5413,0.5236,0.4809,0.4562,0.4311,0.3934,0.3456,0.3433,0.361,0.3758,0.3883,0.4009,0.4135,0.4289,0.4388,0.4288,0.4162,0.4034,0.421,0.4411,0.4636,0.4914,0.5165,0.5313,0.5436,0.5359,0.5434,0.5511,0.5472,0.5487,0.5385,0.536,0.5534,0.542,0.537,0.5421,0.5394,0.5416,0.5441,0.5508,0.5552,0.5666,0.57,0.5702,0.571,0.571,0.5711,0.5709,0.5765,0.5825,0.6017,0.6071,0.6119,0.6129,0.6042,0.6036,0.6036,0.6162,0.6315,0.6408,0.6549,0.6527,0.6433,0.6344,0.6313,0.5864,0.5661,0.5506,0.5408,0.5427,0.5368,0.5043,0.4434,0.4192,0.4034,0.421,0.4394,0.4406,0.4401,0.4599,0.4626,0.4014,0.3579,0.3516,0.32,0.269,0.2282,0.2096,0.1833,0.1616,0.1411,0.1169,0.1093,0.1039,0.1108,0.1199,0.119,0.1186,0.1263,0.1296,0.1361,0.1324,0.1124,0.1082,0.1225,0.1138,0.0911,0.0745,0.0598,0.0373,0.4782,0.4809,0.486,0.4987,0.519,0.5265,0.5085,0.4834,0.4736,0.446,0.4009,0.3685,0.3536,0.3584,0.3381,0.3457,0.366,0.3761,0.3862,0.3961,0.3862,0.371,0.371,0.3734,0.381,0.3912,0.4262,0.4587,0.4711,0.4809,0.4985,0.5012,0.5163,0.5263,0.5259,0.5196,0.5213,0.5367,0.5259,0.5251,0.5318,0.5287,0.5327,0.5349,0.5463,0.5577,0.5666,0.5688,0.571,0.571,0.571,0.5706,0.5725,0.5865,0.5993,0.6079,0.6187,0.6282,0.6409,0.6347,0.6439,0.6543,0.6521,0.6411,0.6489,0.6656,0.6681,0.6514,0.6427,0.6373,0.6299,0.6131,0.589,0.5715,0.5664,0.565,0.5218,0.5015,0.492,0.4743,0.492,0.4984,0.4862,0.4801,0.4887,0.4836,0.4428,0.4024,0.3861,0.34,0.2758,0.2398,0.2113,0.1817,0.1514,0.1313,0.1104,0.1047,0.0993,0.0938,0.1021,0.1025,0.1065,0.1072,0.1058,0.104,0.0961,0.0842,0.0816,0.0862,0.0764,0.0684,0.0541,0.0391,0.0323,0.4634,0.441,0.4684,0.486,0.4987,0.4987,0.4935,0.4786,0.4661,0.4537,0.4286,0.3885,0.3685,0.3659,0.3356,0.3282,0.3358,0.3383,0.3458,0.3533,0.3458,0.3383,0.3383,0.3383,0.3383,0.3509,0.3786,0.4137,0.4388,0.4537,0.4661,0.4809,0.4935,0.4987,0.5016,0.5089,0.5101,0.5171,0.5185,0.5152,0.5073,0.4959,0.4948,0.5169,0.5218,0.5307,0.553,0.5552,0.5552,0.5574,0.5644,0.5688,0.5733,0.5797,0.5975,0.609,0.6242,0.6402,0.6596,0.6524,0.6646,0.6751,0.6745,0.6764,0.6786,0.6874,0.6855,0.6741,0.6473,0.6451,0.6574,0.6458,0.6174,0.5941,0.597,0.5876,0.5658,0.5572,0.5472,0.5319,0.5023,0.4987,0.5107,0.5097,0.5166,0.5004,0.4743,0.4459,0.417,0.3539,0.2823,0.2357,0.2012,0.1653,0.1355,0.1181,0.0972,0.0918,0.0863,0.081,0.0787,0.0801,0.0817,0.0839,0.0796,0.0747,0.0704,0.0626,0.0553,0.0496,0.0501,0.0464,0.0317,0.0207,0.0161,0.4234,0.3907,0.441,0.4634,0.4634,0.4782,0.4809,0.4759,0.4585,0.4562,0.4611,0.4086,0.3836,0.3759,0.3457,0.3205,0.3205,0.3205,0.323,0.3205,0.2978,0.2927,0.2927,0.2851,0.275,0.2901,0.318,0.366,0.4138,0.4363,0.4537,0.4661,0.4734,0.4782,0.4841,0.4947,0.5027,0.5072,0.5168,0.5093,0.4857,0.4621,0.4632,0.4988,0.4882,0.4993,0.5394,0.5349,0.5371,0.5416,0.5485,0.5574,0.5621,0.5644,0.5752,0.5991,0.6213,0.6318,0.6451,0.6561,0.6643,0.6678,0.683,0.6918,0.6918,0.683,0.6896,0.6896,0.6675,0.6451,0.6587,0.6495,0.627,0.6068,0.6046,0.6118,0.5963,0.5893,0.5918,0.5621,0.5121,0.4974,0.5125,0.518,0.5194,0.5083,0.4794,0.4406,0.4087,0.353,0.2863,0.2279,0.1833,0.1461,0.1214,0.1043,0.0839,0.0683,0.063,0.0558,0.0556,0.0557,0.0576,0.0582,0.049,0.0432,0.0407,0.0382,0.0324,0.0283,0.0284,0.0,0.0,0.0,0.0114,0.3356,0.3356,0.3857,0.4108,0.4158,0.4533,0.4759,0.4734,0.4634,0.4611,0.4386,0.4262,0.3935,0.361,0.3306,0.318,0.3205,0.3104,0.3079,0.3004,0.2522,0.2194,0.2093,0.1639,0.1942,0.2219,0.2472,0.2978,0.3635,0.4138,0.4415,0.4512,0.4709,0.4782,0.4805,0.4845,0.4804,0.4818,0.4986,0.5081,0.5009,0.4894,0.5007,0.5124,0.5057,0.5035,0.5238,0.5169,0.5146,0.5305,0.5191,0.5235,0.5394,0.5419,0.5547,0.5769,0.5991,0.621,0.6362,0.6473,0.6498,0.652,0.6539,0.6498,0.6564,0.6583,0.6561,0.6473,0.6406,0.6451,0.652,0.6428,0.6163,0.6118,0.6166,0.6099,0.5966,0.6121,0.6176,0.6066,0.5595,0.5223,0.5144,0.5172,0.5173,0.5051,0.4849,0.4428,0.3906,0.3311,0.2633,0.1971,0.1646,0.1314,0.1063,0.0893,0.0733,0.0513,0.0442,0.0373,0.0332,0.0334,0.0341,0.0324,0.0,0.0,0.0262,0.0218,0.0088,0.0,0.0,0.0,0.0,0.0,0.0,0.2474,0.2801,0.3305,0.3556,0.3581,0.3808,0.3882,0.3882,0.3882,0.3833,0.3682,0.3533,0.3355,0.313,0.2876,0.2927,0.3029,0.275,0.2623,0.2623,0.2093,0.1689,0.1538,0.1361,0.1462,0.1689,0.1942,0.2422,0.3103,0.381,0.4237,0.4413,0.4638,0.4782,0.4728,0.4763,0.4755,0.4784,0.4824,0.4859,0.4806,0.4748,0.4759,0.4978,0.475,0.4815,0.4931,0.4926,0.4879,0.4993,0.4944,0.5055,0.5146,0.5191,0.5322,0.57,0.568,0.5924,0.6296,0.6387,0.6384,0.6406,0.6406,0.6428,0.6406,0.6384,0.6384,0.6406,0.6406,0.6451,0.652,0.6476,0.6432,0.6365,0.6343,0.6273,0.6185,0.6273,0.6341,0.6217,0.6025,0.5532,0.5083,0.4896,0.488,0.479,0.4625,0.4322,0.366,0.2892,0.2205,0.1497,0.1299,0.1142,0.0956,0.0769,0.0631,0.0453,0.0361,0.0273,0.0148,0.0128,0.0,0.0,0.0,0.0,0.0,0.0,0.0,0.0,0.0,0.0,0.0,0.0,0.0,0.1641,0.2043,0.2725,0.3004,0.3029,0.3155,0.323,0.3205,0.3256,0.318,0.3029,0.2851,0.2725,0.2649,0.2472,0.2472,0.27,0.2169,0.2068,0.1967,0.1639,0.1211,0.0984,0.0908,0.0958,0.1412,0.1613,0.2118,0.2825,0.3481,0.4011,0.4214,0.4386,0.4533,0.457,0.452,0.4508,0.4641,0.4697,0.4699,0.4643,0.4487,0.4585,0.4598,0.4512,0.4424,0.4669,0.4621,0.4614,0.4748,0.4746,0.481,0.4901,0.4855,0.5057,0.5375,0.5424,0.5639,0.6031,0.6236,0.625,0.6235,0.6235,0.6169,0.6169,0.621,0.621,0.6166,0.6299,0.6412,0.6523,0.6454,0.6476,0.6498,0.6542,0.652,0.652,0.6542,0.6498,0.6366,0.6072,0.5486,0.5068,0.4685,0.4529,0.4491,0.4333,0.4077,0.3307,0.2354,0.1772,0.1076,0.1031,0.0919,0.0737,0.0576,0.0483,0.0,0.0,0.0,0.0,0.0,0.0,0.0,0.0,0.0,0.0,0.0,0.0,0.0,0.0,0.0,0.0,0.0,0.0,0.0859,0.0985,0.2018,0.2422,0.2472,0.3004,0.318,0.3054,0.313,0.2953,0.2725,0.2549,0.2396,0.2371,0.217,0.1967,0.1815,0.1664,0.1664,0.1412,0.0908,0.0581,0.0379,0.0227,0.0202,0.0833,0.1211,0.1891,0.2675,0.3104,0.3509,0.3712,0.4034,0.4058,0.4105,0.4194,0.4251,0.4414,0.4559,0.4647,0.46,0.4535,0.4574,0.4701,0.4559,0.4449,0.4741,0.455,0.4492,0.4676,0.4588,0.4563,0.4691,0.4595,0.4827,0.5175,0.5167,0.5428,0.5878,0.5913,0.5788,0.5755,0.5774,0.5819,0.5819,0.5777,0.5777,0.5841,0.6016,0.6149,0.6238,0.6279,0.6321,0.6587,0.6653,0.6634,0.6656,0.6745,0.6678,0.6523,0.6088,0.5493,0.4734,0.4295,0.3882,0.3793,0.3124,0.2843,0.2324,0.1525,0.1188,0.0785,0.0762,0.065,0.0471,0.0357,0.0289,0.0,0.0,0.0,0.0,0.0,0.0,0.0,0.0,0.0,0.0,0.0,0.0,0.0,0.0,0.0,0.0,0.0,0.0,0.0631,0.0833,0.106,0.1363,0.1691,0.1893,0.2045,0.2197,0.2222,0.2171,0.207,0.1969,0.1995,0.2045,0.1919,0.1892,0.1942,0.1337,0.1287,0.106,0.0606,0.0126,-0.0101,-0.0126,-0.0126,0.0353,0.0757,0.1262,0.1995,0.2576,0.2853,0.313,0.3655,0.3932,0.4009,0.3981,0.4036,0.4136,0.4354,0.4497,0.4478,0.456,0.4641,0.4671,0.4648,0.4551,0.4652,0.458,0.4587,0.4602,0.4528,0.4568,0.461,0.452,0.4752,0.513,0.5027,0.5248,0.5673,0.5643,0.5446,0.5349,0.5416,0.5535,0.5588,0.5624,0.5691,0.5755,0.5799,0.5975,0.6276,0.6146,0.6105,0.6545,0.6745,0.6722,0.6722,0.6789,0.6501,0.6188,0.5855,0.5406,0.4623,0.3842,0.3428,0.3019,0.2284,0.1619,0.1272,0.0965,0.0695,0.0516,0.0516,0.0426,0.0247,0.018,0.0,0.0,0.0,0.0,0.0,0.0,0.0,0.0,0.0,0.0,0.0,0.0,0.0,0.0,0.0,0.0,0.0,-0.0458,-0.0293,0.0202,0.0404,0.0177,0.0455,0.1035,0.1086,0.1187,0.1364,0.1465,0.1491,0.1491,0.1566,0.1541,0.1516,0.144,0.1414,0.1438,0.1035,0.0934,0.0783,0.0556,0.0151,0.0025,0.005,0.0227,0.0353,0.0657,0.1237,0.1819,0.1995,0.2373,0.2826,0.3278,0.3581,0.3883,0.3954,0.3929,0.3934,0.4193,0.4368,0.4381,0.4565,0.4685,0.4665,0.4621,0.4607,0.4635,0.4621,0.46,0.46,0.4602,0.461,0.4614,0.467,0.4847,0.4974,0.5056,0.5106,0.5494,0.5547,0.5428,0.5511,0.551,0.5593,0.5577,0.5645,0.5691,0.571,0.5777,0.5972,0.634,0.6213,0.626,0.67,0.67,0.6678,0.6656,0.6634,0.6188,0.5788,0.5389,0.4855,0.3916,0.3066,0.2638,0.2275,0.1851,0.1293,0.0917,0.0651,0.0426,0.0314,0.0269,0.0157,0.0045,0.0,0.0,0.0,0.0,0.0,0.0,-0.0067,-0.009,0.0,0.0,0.0,0.0,0.0,0.0,0.0,-0.0717,-0.0805,-0.0816,-0.0735,-0.047,-0.0606,-0.0404,-0.0657,-0.0151,0.0682,0.0783,0.0808,0.0859,0.1061,0.1187,0.1237,0.144,0.1162,0.0783,0.0884,0.0934,0.0808,0.0606,0.0631,0.0758,0.0732,0.0707,0.0682,0.0657,0.0631,0.1111,0.1263,0.1465,0.1895,0.2045,0.2296,0.2522,0.29,0.3305,0.3633,0.3858,0.3831,0.3732,0.416,0.4304,0.4385,0.4559,0.4707,0.4724,0.4679,0.4655,0.4679,0.4677,0.4654,0.465,0.4644,0.4644,0.464,0.4636,0.4807,0.5074,0.4971,0.5225,0.5832,0.5698,0.5642,0.5722,0.5609,0.5721,0.5808,0.5797,0.5802,0.5911,0.5922,0.6127,0.6299,0.6365,0.6479,0.67,0.67,0.6634,0.659,0.652,0.6121,0.5497,0.4743,0.4009,0.3069,0.2264,0.1838,0.1501,0.1278,0.0964,0.0628,0.0,0.0,0.0,0.0,0.0,0.0,0.0,0.0,0.0,0.0,0.0,-0.0135,-0.0135,-0.0202,-0.0314,0.0,0.0,0.0,0.0,-0.044,-0.0848,-0.0981,-0.1047,-0.1084,-0.1042,-0.0825,-0.0909,-0.0682,-0.096,-0.0758,-0.0278,-0.0076,0.0101,0.0303,0.0556,0.0758,0.0909,0.1035,0.0985,0.0758,0.0707,0.0707,0.0657,0.0682,0.0758,0.0808,0.0808,0.0783,0.0808,0.0859,0.0884,0.0985,0.1212,0.1415,0.144,0.1817,0.1995,0.2197,0.275,0.3379,0.3457,0.3482,0.3256,0.3608,0.3935,0.416,0.4207,0.4508,0.475,0.4755,0.4712,0.4701,0.473,0.4732,0.4726,0.4724,0.4722,0.4724,0.4702,0.4704,0.4847,0.5017,0.4952,0.4948,0.5272,0.5288,0.5291,0.5434,0.5562,0.5743,0.594,0.5889,0.6025,0.6136,0.5983,0.6208,0.6507,0.613,0.6174,0.67,0.6767,0.6612,0.6523,0.6432,0.6121,0.5319,0.4518,0.3664,0.2727,0.2167,0.1694,0.1308,0.1127,0.0854,0.0538,0.0,0.0,0.0,0.0,0.0,0.0,0.0,0.0,0.0,0.0,0.0,-0.009,-0.0203,-0.0225,-0.0292,-0.0337,-0.0383,-0.0253,-0.0258,-0.0723,-0.108,-0.1282,-0.1485,-0.1595,-0.1502,-0.1281,-0.1187,-0.0985,-0.1212,-0.1187,-0.0934,-0.0657,-0.0379,-0.0126,0.005,0.0227,0.0353,0.0455,0.0429,0.0429,0.048,0.0606,0.0631,0.0657,0.0859,0.0884,0.096,0.1035,0.1061,0.1035,0.1162,0.1136,0.1212,0.1364,0.144,0.1541,0.1768,0.2122,0.2599,0.2901,0.3104,0.3256,0.3279,0.3506,0.3607,0.3883,0.3984,0.423,0.4531,0.4611,0.4651,0.468,0.4757,0.4784,0.4782,0.4782,0.4782,0.4782,0.4782,0.4809,0.4885,0.4912,0.502,0.495,0.5125,0.5297,0.5398,0.5485,0.5458,0.5627,0.5913,0.5889,0.6082,0.6161,0.6051,0.6309,0.6561,0.6094,0.6228,0.6757,0.67,0.6523,0.6379,0.629,0.5888,0.5068,0.4462,0.3534,0.26,0.2183,0.1731,0.1364,0.1043,0.0746,0.0473,0.0,0.0,0.0,0.0,0.0,0.0,0.0,0.0,0.0,0.0,0.0,-0.0182,-0.0295,-0.0271,-0.027,-0.0386,-0.0437,-0.0377,-0.0506,-0.0932,-0.1389,-0.1794,-0.1978,-0.2091,-0.1992,-0.1791,-0.1465,-0.1288,-0.1516,-0.144,-0.1187,-0.0934,-0.0682,-0.0455,-0.0429,-0.0404,-0.0379,-0.0101,-0.0126,-0.0278,-0.0126,0.0101,0.0328,0.0379,0.0657,0.096,0.101,0.1237,0.1389,0.144,0.1415,0.1491,0.1541,0.1491,0.1592,0.1592,0.1743,0.1895,0.2044,0.2347,0.2775,0.3179,0.3278,0.3254,0.3356,0.3608,0.3761,0.3935,0.421,0.4336,0.4438,0.456,0.4661,0.4761,0.4784,0.4782,0.4782,0.4782,0.4782,0.4782,0.4782,0.4857,0.5031,0.5074,0.5145,0.5313,0.5515,0.5595,0.5799,0.5811,0.5876,0.6009,0.6212,0.6321,0.628,0.6499,0.6662,0.6535,0.6452,0.6547,0.6534,0.639,0.6228,0.5946,0.5504,0.4965,0.45,0.3668,0.2629,0.2082,0.183,0.1436,0.1087,0.0852,0.0551,0.0,0.0,0.0,0.0,0.0,0.0,0.0,0.0,0.0,0.0,-0.016,-0.0297,-0.0437,-0.0528,-0.0552,-0.0531,-0.0632,-0.1031,-0.1097,-0.1088,-0.1596,-0.2331,-0.2536,-0.2696,-0.2545,-0.2445,-0.1844,-0.1743,-0.1642,-0.1541,-0.1465,-0.1389,-0.1212,-0.101,-0.0985,-0.0884,-0.0682,-0.0606,-0.0606,-0.0682,-0.0606,-0.0379,-0.0177,0.005,0.0303,0.0581,0.0808,0.1061,0.1237,0.1338,0.144,0.1541,0.1592,0.1566,0.1566,0.1566,0.1566,0.1693,0.1868,0.2045,0.2272,0.275,0.2928,0.3079,0.3181,0.3332,0.3559,0.3784,0.3984,0.411,0.4313,0.4462,0.4562,0.4736,0.4784,0.4782,0.4782,0.4782,0.4782,0.4782,0.4782,0.4782,0.4857,0.4908,0.496,0.5163,0.5413,0.5639,0.5805,0.6222,0.6293,0.6313,0.6404,0.6453,0.6414,0.6548,0.674,0.6717,0.6672,0.6658,0.6498,0.6187,0.6,0.5668,0.5207,0.4683,0.4227,0.346,0.2473,0.2194,0.1939,0.1513,0.1156,0.0917,0.0608,0.0256,0.0,0.0,0.0,0.0,0.0,0.0,0.0,0.0,0.0,-0.0302,-0.0401,-0.0569,-0.0776,-0.0893,-0.097,-0.1484,-0.2142,-0.2074,-0.1798,-0.238,-0.3045,-0.3173,-0.325,-0.3175,-0.3124,-0.2347,-0.2146,-0.1869,-0.1819,-0.1869,-0.1693,-0.1592,-0.1616,-0.1465,-0.1212,-0.096,-0.096,-0.0909,-0.0783,-0.0783,-0.0682,-0.053,-0.0404,-0.0126,0.0252,0.0404,0.0732,0.0934,0.1136,0.1288,0.144,0.1516,0.1541,0.1465,0.1313,0.1288,0.1465,0.1843,0.1768,0.1843,0.2121,0.2399,0.2625,0.2802,0.2953,0.3204,0.3506,0.3682,0.3882,0.4135,0.4338,0.4512,0.4711,0.4759,0.4782,0.4782,0.4782,0.4782,0.4782,0.491,0.491,0.4987,0.5163,0.5338,0.5466,0.5566,0.5689,0.5939,0.6259,0.6391,0.6401,0.6554,0.6647,0.6532,0.6484,0.6672,0.6834,0.6837,0.6864,0.6421,0.5996,0.5692,0.5387,0.4899,0.4356,0.3713,0.3009,0.2511,0.2302,0.2028,0.1592,0.1206,0.0891,0.0622,0.0285,0.0,0.0,0.0,0.0,-0.0072,-0.0143,0.0,0.0,0.0,-0.0524,-0.0584,-0.0776,-0.1051,-0.1272,-0.1456,-0.2035,-0.2619,-0.2694,-0.2669,-0.3228,-0.363,-0.3754,-0.3904,-0.4004,-0.4004,-0.3024,-0.2573,-0.2248,-0.2322,-0.2422,-0.202,-0.2045,-0.2371,-0.1995,-0.1541,-0.1288,-0.1212,-0.1061,-0.0909,-0.0909,-0.0833,-0.0783,-0.0707,-0.053,-0.0076,0.0,0.0278,0.0657,0.096,0.1035,0.1212,0.1288,0.1313,0.1136,0.1035,0.1035,0.1162,0.1263,0.1364,0.1566,0.1667,0.1895,0.1996,0.2222,0.2423,0.2599,0.2901,0.3254,0.3503,0.3857,0.4234,0.4535,0.4684,0.4732,0.4757,0.4782,0.4782,0.486,0.4885,0.5012,0.5163,0.5238,0.5388,0.5614,0.5792,0.5992,0.6164,0.6387,0.6412,0.6404,0.6394,0.6537,0.6647,0.656,0.6605,0.6785,0.6667,0.6599,0.6404,0.6011,0.5661,0.5371,0.4935,0.4305,0.3792,0.3254,0.2611,0.2337,0.2126,0.192,0.1551,0.1181,0.0861,0.0563,0.0291,0.0,0.0,0.0,-0.0147,-0.027,-0.0343,-0.0392,0.0,-0.063,-0.0656,-0.0617,-0.0931,-0.1329,-0.1758,-0.2199,-0.2459,-0.2853,-0.3145,-0.353,-0.3831,-0.4157,-0.4309,-0.4458,-0.4533,-0.4558,-0.4053,-0.3877,-0.3402,-0.3251,-0.3251,-0.2953,-0.2877,-0.3004,-0.2901,-0.2297,-0.1592,-0.1313,-0.1162,-0.1086,-0.1061,-0.101,-0.0884,-0.101,-0.0884,-0.0606,-0.0429,-0.0177,0.0177,0.0455,0.0682,0.0859,0.0934,0.0985,0.0884,0.0808,0.0808,0.0909,0.101,0.1187,0.1313,0.1415,0.1516,0.1465,0.1641,0.1969,0.2245,0.2396,0.2674,0.2748,0.3001,0.3428,0.3729,0.3956,0.4307,0.4634,0.4759,0.4885,0.5087,0.5062,0.5213,0.5436,0.5336,0.5436,0.5589,0.5739,0.5892,0.6064,0.6187,0.6337,0.6401,0.6382,0.6424,0.6522,0.6626,0.6707,0.668,0.6439,0.6179,0.5866,0.5523,0.5225,0.495,0.4306,0.3657,0.3217,0.2748,0.2447,0.217,0.1939,0.1734,0.143,0.1079,0.0752,0.05,0.0,0.0,0.0,0.0,-0.0325,-0.0426,-0.0475,-0.0472,-0.0546,-0.0665,-0.0694,-0.07,-0.1093,-0.1579,-0.244,-0.299,-0.3141,-0.3493,-0.4175,-0.4483,-0.4508,-0.4483,-0.4558,-0.4609,-0.4684,-0.4734,-0.496,-0.4682,-0.418,-0.3956,-0.3907,-0.3682,-0.3556,-0.3531,-0.343,-0.2977,-0.2297,-0.1792,-0.1439,-0.1263,-0.1187,-0.1263,-0.1162,-0.1313,-0.1187,-0.0985,-0.0808,-0.0631,-0.0353,-0.005,0.0177,0.0379,0.0556,0.0631,0.0606,0.0505,0.0455,0.0606,0.0808,0.0909,0.0985,0.1162,0.1187,0.1035,0.1187,0.1439,0.1841,0.2069,0.2346,0.2422,0.2674,0.3001,0.3228,0.353,0.383,0.4157,0.4205,0.4131,0.4183,0.416,0.4384,0.4609,0.4732,0.4958,0.5133,0.5311,0.5489,0.5611,0.5586,0.5559,0.5561,0.557,0.5994,0.6105,0.6075,0.6142,0.592,0.5699,0.5351,0.5043,0.4482,0.402,0.3703,0.326,0.2943,0.2795,0.2397,0.2146,0.1869,0.1615,0.1411,0.1134,0.0808,0.0656,0.0404,0.0,0.0,0.0,0.0,0.0,-0.0403,-0.0452,-0.0476,-0.0576,-0.0675,-0.0927,-0.1106,-0.1386,-0.1843,-0.2623,-0.3251,-0.358,-0.4058,-0.4609,-0.4784,-0.4684,-0.4709,-0.4759,-0.4782,-0.4782,-0.4782,-0.5864,-0.5365,-0.4855,-0.4634,-0.4562,-0.4334,-0.4209,-0.4133,-0.393,-0.363,-0.3229,-0.2572,-0.1943,-0.1566,-0.1313,-0.1465,-0.1541,-0.1516,-0.1414,-0.1288,-0.1162,-0.096,-0.0758,-0.0556,-0.0252,-0.0025,0.0151,0.0278,0.0353,0.0177,0.0101,0.0278,0.0353,0.0429,0.0631,0.0758,0.0758,0.0783,0.0833,0.0808,0.1212,0.164,0.1943,0.2296,0.2624,0.2903,0.3078,0.3228,0.3352,0.3578,0.3654,0.3654,0.3605,0.3632,0.3731,0.3956,0.4183,0.4358,0.4481,0.4657,0.4784,0.4832,0.4757,0.4707,0.4734,0.4935,0.5359,0.5457,0.5404,0.54,0.5175,0.4924,0.4574,0.4146,0.3524,0.3024,0.2698,0.2396,0.2346,0.2296,0.2044,0.1794,0.1516,0.1263,0.1061,0.0783,0.0606,0.0455,0.0,0.0,0.0,0.0,0.0,0.0,0.0,-0.0454,-0.0528,-0.0554,-0.0704,-0.1135,-0.149,-0.1717,-0.2096,-0.2701,-0.3256,-0.3783,-0.4185,-0.4636,-0.4759,-0.4784,-0.4782,-0.4782,-0.4782,-0.4782,-0.4782,-0.6792,-0.647,-0.6162,-0.5887,-0.5666,-0.5413,-0.5188,-0.4989,-0.4887,-0.451,-0.3957,-0.3706,-0.3228,-0.2473,-0.2018,-0.1917,-0.1918,-0.1793,-0.1617,-0.1516,-0.1338,-0.1212,-0.1061,-0.0859,-0.0581,-0.0404,-0.0252,-0.0151,-0.005,-0.0227,-0.0303,-0.0202,-0.0202,-0.0076,0.0151,0.0278,0.0429,0.0429,0.053,0.0556,0.053,0.0858,0.101,0.1162,0.1212,0.1666,0.2043,0.2268,0.2699,0.3053,0.3204,0.3228,0.3177,0.3127,0.3226,0.3277,0.353,0.3754,0.3904,0.3981,0.4081,0.4381,0.4305,0.413,0.4131,0.4131,0.4383,0.4408,0.4431,0.4628,0.4477,0.4205,0.3853,0.3349,0.2772,0.2545,0.2269,0.207,0.1944,0.1768,0.154,0.1263,0.0985,0.0808,0.0732,0.0505,0.0379,0.0,0.0,0.0,0.0,0.0,0.0,0.0,-0.0353,-0.0505,-0.058,-0.0581,-0.0707,-0.1162,-0.1591,-0.1994,-0.2448,-0.3078,-0.3556,-0.4034,-0.4435,-0.4709,-0.4759,-0.4782,-0.4782,-0.4782,-0.4782,-0.4782,-0.4782]},{"header":{"parameterUnit":"m.s-1","parameterCategory":1,"la1":31.0,"la2":29.5877,"lo1":-88.7671,"lo2":-86.6584,"dy":0.0162,"dx":0.0185,"nx":115,"ny":88,"refTime":"2023-04-25T12:00:00:Z","depth":0,"parameterNumber":3,"parameterNumberName":"V-component_of_WINDS"},"data":[0.0,0.0,0.0,0.0,0.0,0.0,0.0,0.0,0.0,0.0,0.0,0.0,0.0,0.0,0.0,0.0,0.0,0.0,0.0,0.0,0.0,0.0,0.0,0.0,0.0,0.0,0.0,0.0,0.0,0.0,0.0,0.0,0.0,0.0,0.0,0.0,0.0,0.0,0.0,0.0,0.0,0.0,0.0,0.0,0.0,0.0,0.0,0.0,0.0,0.0,0.0,0.0,0.0,0.0,0.0,0.0,0.0,0.0,0.0,0.0,0.0,0.0,0.0,0.0,0.0,0.0,0.0,0.0,0.0,0.0,0.0,0.0,0.0,0.0,0.0,0.0,0.0,0.0,0.0,0.0,0.0,0.0,0.0,0.0,0.0,0.0,0.0,0.0,0.0,0.0,0.0,0.0,0.0,0.0,0.0,0.0,0.0,0.0,0.0,0.0,0.0,0.0,0.0,0.0,0.0,0.0,0.0,0.0,0.0,0.0,0.0,0.0,0.0,0.0,0.0,0.0,0.0,0.0,0.0,0.0,0.0,0.0,0.0,0.0,0.0,0.0,0.0,0.0,0.0,0.0,0.0,0.0,0.0,0.0,0.0,0.0,0.0,0.0,0.0,0.0,0.0,0.0,0.0,0.0,0.0,0.0,0.0,0.0,0.0,0.0,0.0,0.0,0.0,0.0,0.0,0.0,0.0,0.0,0.0,0.0,0.0,0.0,0.0,0.0,0.0,0.0,0.0,0.0,0.0,0.0,0.0,0.0,0.0,0.0,0.0,0.0,0.0,0.0,0.0,0.0,0.0,0.0,0.0,0.0,0.0,0.0,0.0,0.0,0.0,0.0,0.0,0.0,0.0,0.0,0.0,0.0,0.0,0.0,0.0,0.0,0.0,0.0,0.0,0.0,0.0,0.0,0.0,0.0,0.0,0.0,0.0,0.0,0.0,0.0,0.0,0.0,0.0,0.0,0.0,0.0,0.0,0.0,0.0,0.0,0.0,0.0,0.0,0.0,0.0,0.0,0.0,0.0,0.0,0.0,0.0,0.0,0.0,0.0,0.0,0.0,0.0,0.0,0.0,0.0,0.0,0.0,0.0,0.0,0.0,0.0,0.0,0.0,0.0,0.0,0.0,0.0,0.0,0.0,0.0,0.0,0.0,0.0,0.0,0.0,0.0,0.0,0.0,0.0,0.0,0.0,0.0,0.0,0.0,0.0,0.0,0.0,0.0,0.0,0.0,0.0,0.0,0.0,0.0,0.0,0.0,0.0,0.0,0.0,0.0,0.0,0.0,0.0,0.0,0.0,0.0,0.0,0.0,0.0,0.0,0.0,0.0,0.0,0.0,0.0,0.0,0.0,0.0,0.0,0.0,0.0,0.0,0.0,0.0,0.0,0.0,0.0,0.0,0.0,0.0,0.0,0.0,0.0,0.0,0.0,0.0,0.0,0.0,0.0,0.0,0.0,0.0,0.0,0.0,0.0,0.0,0.0,0.0,0.0,0.0,0.0,0.0,0.0,0.0,0.0,0.0,0.0,0.0,0.0,0.0,0.0,0.0,0.0,0.0,0.0,0.0,0.0,0.0,0.0,0.0,0.0,0.0,0.0,0.0,0.0,0.0,0.0,0.0,0.0,0.0,0.0,0.0,0.0,0.0,0.0,0.0,0.0,0.0,0.0,0.0,0.0,0.0,0.0,0.0,0.0,0.0,0.0,0.0,0.0,0.0,0.0,0.0,0.0,0.0,0.0,0.0,0.0,0.0,0.0,0.0,0.0,0.0,0.0,0.0,0.0,0.0,0.0,0.0,0.0,0.0,0.0,0.0,0.0,0.0,0.0,0.0,0.0,0.0,0.0,0.0,0.0,0.0,0.0,0.0,0.0,0.0,0.0,0.0,0.0,0.0,0.0,0.0,0.0,0.0,0.0,0.0,0.0,0.0,0.0,0.0,0.0,0.0,0.0,0.0,0.0,0.0,0.0,0.0,0.0,0.0,0.0,0.0,0.0,0.0,0.0,0.0,0.0,0.0,0.0,0.0,0.0,0.0,0.0,0.0,0.0,0.0,0.0,0.0,0.0,0.0,0.0,0.0,0.0,0.0,0.0,0.0,0.0,0.0,0.0,0.0,0.0,0.0,0.0,0.0,0.0,0.0,0.0,0.0,0.0,0.0,0.0,0.0,0.0,0.0,0.0,0.0,0.0,0.0,0.0,0.0,0.0,0.0,0.0,0.0,0.0,0.0,0.0,0.0,0.0,0.0,0.0,0.0,0.0,0.0,0.0,0.0,0.0,0.0,0.0,0.0,0.0,0.0,0.0,0.0,0.0,0.0,0.0,0.0,0.0,0.0,0.0,0.0,0.0,0.0,0.0,0.0,0.0,0.0,0.0,0.0,0.0,0.0,0.0,0.0,0.0,0.0,0.0,0.0,0.0,0.0,0.0,0.0,0.0,0.0,0.0,0.0,0.0,0.0,0.0,0.0,0.0,0.0,0.0,0.0,0.0,0.0,0.0,0.0,0.0,0.0,0.0,0.0,0.0,0.0,0.0,0.0,0.0,0.0,0.0,0.0,0.0,0.0,0.0,0.0,0.0,0.0,0.0,0.0,0.0,0.0,0.0,0.0,0.0,0.0,0.0,0.0,0.0,0.0,0.0,0.0,0.0,0.0,0.0,0.0,0.0,0.0,0.0,0.0,0.0,0.0,0.0,0.0,0.0,0.0,0.0,0.0,0.0,0.0,0.0,0.0,0.0,0.0,0.0,0.0,0.0,0.0,0.0,0.0,0.0,0.0,0.0,0.0,0.0,0.0,0.0,0.0,0.0,0.0,0.0,0.0,0.0,0.0,0.0,0.0,0.0,0.0,0.0,0.0,0.0,0.0,0.0,0.0,0.0,0.0,0.0,0.0,0.0,0.0,0.0,0.0,0.0,0.0,0.0,0.0,0.0,0.0,0.0,0.0,0.0,0.0,0.0,0.0,0.0,0.0,0.0,0.0,0.0,0.0,0.0,0.0,0.0,0.0,0.0,0.0,0.0,0.0,0.0,0.0,0.0,0.0,0.0,0.0,0.0,0.0,0.0,0.0,0.0,0.0,0.0,0.0,0.0,0.0,0.0,0.0,0.0,0.0,0.0,0.0,0.0,0.0,0.0,0.0,0.0,0.0,0.0,0.0,0.0,0.0,0.0,0.0,0.0,0.0,0.0,0.0,0.0,0.0,0.0,0.0,0.0,0.0,0.0,0.0,0.0,0.0,0.0,0.0,0.0,0.0,0.0,0.0,0.0,0.0,0.0,0.0,0.0,0.0,0.0,0.0,0.0,0.0,0.0,0.0,0.0,0.0,0.0,0.0,0.0,0.0,0.0,0.0,0.0,0.0,0.0,0.0,0.0,0.0,0.0,0.0,0.0,0.0,0.0,0.0,0.0,0.0,0.0,0.0,0.0,0.0,0.0,0.0,0.0,0.0,0.0,0.0,0.0,0.0,0.0,0.0,0.0,0.0,0.0,0.0,0.0,0.0,0.0,0.0,0.0,0.0,0.0,0.0,0.0,0.0,0.0,0.0,0.0,0.0,0.0,0.0,0.0,0.0,0.0,0.0,0.0,0.0,0.0,0.0,0.0,0.0,0.0,0.0,0.0,0.0,0.0,0.0,0.0,0.0,0.0,0.0,0.0,0.0,0.0,0.0,0.0,0.0,0.0,0.0,0.0,0.0,0.0,0.0,0.0,0.0,0.0,0.0,0.0,0.0,0.0,0.0,0.0,0.0,0.0,0.0,0.0,0.0,0.0,0.0,0.0,0.0,0.0,0.0,0.0,0.0,0.0,0.0,0.0,0.0,0.0,0.0,0.0,0.0,0.0,0.0,0.0,0.0,0.0,0.0,0.0,0.0,0.0,0.0,0.0,0.0,0.0,0.0,0.0,0.0,0.0,0.0,0.0,0.0,0.0,0.0,0.0,0.0,0.0,0.0,0.0,0.0,0.0,0.0,0.0,0.0,0.0,0.0,0.0,0.0,0.0,0.0,0.0,0.0,0.0,0.0,0.0,0.0,0.0,0.0,0.0,0.0,0.0,0.0,0.0,0.0,0.0,0.0,0.0,0.0,0.0,0.0,0.0,0.0,0.0,0.0,0.0,0.0,0.0,0.0,0.0,0.0,0.0,0.0,0.0,0.0,0.0,0.0,0.0,0.0,0.0,0.0,0.0,0.0,0.0,0.0,0.0,0.0,0.0,0.0,0.0,0.0,0.0,0.0,0.0,0.0,0.0,0.0,0.0,0.0,0.0,1.5827,0.0,0.0,0.0,0.0,0.0,0.0,0.0,0.0,0.0,0.0,0.0,0.0,0.0,0.0,0.0,0.0,0.0,0.0,0.0,0.0,0.0,0.0,0.0,0.0,0.0,0.0,0.0,0.0,0.0,0.0,0.0,0.0,0.0,0.0,0.0,0.0,0.0,0.0,0.0,0.0,0.0,0.0,0.0,0.0,0.0,0.0,0.0,0.0,0.0,0.0,0.0,0.0,0.0,0.0,0.0,0.0,0.0,0.0,0.0,0.0,0.0,0.0,0.0,0.0,0.0,0.0,0.0,0.0,0.0,0.0,0.0,0.0,0.0,0.0,0.0,0.0,0.0,0.0,0.0,0.0,0.0,0.0,0.0,0.0,0.0,0.0,0.0,0.0,0.0,0.0,0.0,0.0,0.0,0.0,0.0,0.0,0.0,0.0,0.0,0.0,0.0,0.0,0.0,0.0,0.0,0.0,0.0,0.0,0.0,0.0,1.2722,1.3306,1.3642,1.4743,1.6743,0.0,0.0,0.0,0.0,0.0,0.0,0.0,0.0,0.0,0.0,0.0,0.0,0.0,0.0,0.0,0.0,0.0,0.0,0.0,0.0,0.0,0.0,0.0,0.0,0.0,0.0,0.0,0.0,0.0,0.0,0.0,0.0,0.0,0.0,0.0,0.0,0.0,0.0,0.0,0.0,0.0,0.0,0.0,0.0,0.0,0.0,0.0,0.0,0.0,0.0,0.0,0.0,0.0,0.0,0.0,0.0,0.0,0.0,0.0,0.0,0.0,0.0,0.0,0.0,0.0,0.0,0.0,0.0,0.0,0.0,0.0,0.0,0.0,0.0,0.0,0.0,0.0,0.0,0.0,0.0,0.0,0.0,0.0,0.0,0.0,0.0,0.0,0.0,0.0,0.0,0.0,0.0,0.0,0.0,0.0,0.0,0.0,0.0,0.0,0.0,0.0,0.0,0.0,0.0,0.0,0.0,0.0,0.0,0.0,0.0,0.0,0.0,1.4348,1.5416,1.76,0.0,0.0,0.0,0.0,0.0,0.0,0.0,0.0,0.0,0.0,0.0,0.0,0.0,0.0,0.0,0.0,0.0,0.0,0.0,0.0,0.0,0.0,0.0,0.0,0.0,0.0,0.0,0.0,0.0,0.0,0.0,0.0,0.0,0.0,0.0,0.0,0.0,0.0,0.0,0.0,0.0,0.0,0.0,0.0,0.0,0.0,0.0,0.0,0.0,0.0,0.0,0.0,0.0,0.0,0.0,0.0,0.0,0.0,0.0,0.0,0.0,0.0,0.0,0.0,0.0,0.0,0.0,0.0,0.0,0.0,0.0,0.0,0.0,0.0,0.0,0.0,0.0,0.0,0.0,0.0,0.0,0.0,0.0,0.0,0.0,0.0,0.0,0.0,0.0,0.0,0.0,0.0,0.0,0.0,0.0,0.0,0.0,0.0,0.0,0.0,0.0,0.0,0.0,0.0,0.0,0.0,0.0,0.0,0.0,0.0,1.4429,1.5084,1.5563,0.0,1.8685,0.0,0.0,0.0,0.0,0.0,0.0,0.0,0.0,0.0,0.0,0.0,0.0,0.0,0.0,0.0,0.0,0.0,0.0,0.0,0.0,0.0,0.0,0.0,0.0,0.0,0.0,0.0,0.0,0.0,0.0,0.0,0.0,0.0,0.0,0.0,0.0,0.0,0.0,0.0,0.0,0.0,0.0,0.0,0.0,0.0,0.0,0.0,0.0,0.0,0.0,0.0,0.0,0.0,0.0,0.0,0.0,0.0,0.0,0.0,0.0,0.0,0.0,0.0,0.0,0.0,0.0,0.0,0.0,0.0,0.0,0.0,0.0,0.0,0.0,0.0,0.0,0.0,0.0,0.0,0.0,0.0,0.0,0.0,0.0,0.0,0.0,0.0,0.0,0.0,0.0,0.0,0.0,0.0,0.0,0.0,0.0,0.0,0.0,0.0,0.0,0.0,0.0,0.0,0.0,0.0,0.0,0.0,0.0,0.0,0.0,1.553,1.6075,1.7086,1.8233,0.0,0.0,0.0,0.0,0.0,0.0,0.0,0.0,0.0,0.0,0.0,0.0,0.0,0.0,0.0,0.0,0.0,0.0,0.0,0.0,0.0,0.0,0.0,0.0,0.0,0.0,0.0,0.0,0.0,0.0,0.0,0.0,0.0,0.0,0.0,0.0,0.0,0.0,0.0,0.0,0.0,0.0,0.0,0.0,0.0,0.0,0.0,0.0,0.0,0.0,0.0,0.0,0.0,0.0,0.0,0.0,0.0,0.0,0.0,0.0,0.0,0.0,0.0,0.0,0.0,0.0,0.0,0.0,0.0,0.0,0.0,0.0,0.0,0.0,0.0,0.0,0.0,0.0,0.0,0.0,0.0,0.0,0.0,0.0,0.0,0.0,0.0,0.0,0.0,0.0,0.0,0.0,0.0,0.0,0.0,0.0,0.0,0.0,0.0,0.0,0.0,0.0,0.0,0.0,0.0,0.0,0.0,0.0,0.0,0.0,1.5676,1.6445,1.7134,1.8263,1.9325,2.0205,0.0,0.0,0.0,0.0,0.0,0.0,0.0,0.0,0.0,0.0,0.0,0.0,0.0,0.0,0.0,0.0,0.0,0.0,0.0,0.0,0.0,0.0,0.0,0.0,0.0,0.0,0.0,0.0,0.0,0.0,0.0,0.0,0.0,0.0,0.0,0.0,0.0,0.0,0.0,0.0,0.0,0.0,0.0,0.0,0.0,0.0,0.0,0.0,0.0,0.0,0.0,0.0,0.0,0.0,0.0,0.0,0.0,0.0,0.0,0.0,0.0,0.0,0.0,0.0,0.0,0.0,0.0,0.0,0.0,0.0,0.0,0.0,0.0,0.0,0.0,0.0,0.0,0.0,0.0,0.0,0.0,0.0,0.0,0.0,0.0,0.0,0.0,0.0,0.0,0.0,0.0,0.0,0.0,0.0,0.0,0.0,0.0,0.0,0.0,0.0,0.0,0.0,0.0,0.0,0.0,0.0,0.0,0.0,1.5184,1.604,1.7018,1.8089,1.8945,1.9657,0.0,0.0,0.0,0.0,0.0,0.0,0.0,0.0,0.0,0.0,0.0,0.0,0.0,0.0,0.0,0.0,0.0,0.0,0.0,0.0,0.0,0.0,0.0,0.0,0.0,0.0,0.0,0.0,0.0,0.0,0.0,0.0,0.0,0.0,0.0,0.0,0.0,0.0,0.0,0.0,0.0,0.0,0.0,0.0,0.0,0.0,0.0,0.0,0.0,0.0,0.0,0.0,0.0,0.0,0.0,0.0,0.0,0.0,0.0,0.0,0.0,0.0,0.0,0.0,0.0,0.0,0.0,0.0,0.0,0.0,0.0,0.0,0.0,0.0,0.0,0.0,0.0,0.0,0.0,0.0,0.0,0.0,0.0,0.0,0.0,0.0,0.0,0.0,0.0,0.0,0.0,0.0,0.0,0.0,0.0,0.0,0.0,0.0,0.0,0.0,0.0,0.0,0.0,0.0,0.0,0.0,0.0,0.0,0.0,1.6014,1.6863,1.773,1.8673,1.9152,1.9737,0.0,0.0,0.0,0.0,0.0,0.0,0.0,0.0,0.0,0.0,0.0,0.0,0.0,0.0,0.0,0.0,0.0,0.0,0.0,0.0,0.0,0.0,0.0,0.0,0.0,0.0,0.0,0.0,0.0,0.0,0.0,0.0,0.0,0.0,0.0,0.0,0.0,0.0,0.0,0.0,0.0,0.0,0.0,0.0,0.0,0.0,0.0,0.0,0.0,0.0,0.0,0.0,0.0,0.0,0.0,0.0,0.0,0.0,0.0,0.0,0.0,0.0,0.0,0.0,0.0,0.0,0.0,0.0,0.0,0.0,0.0,0.0,0.0,0.0,0.0,0.0,0.0,0.0,0.0,0.0,0.0,0.0,0.0,0.0,0.0,0.0,0.0,0.0,0.0,0.0,0.0,0.0,0.0,0.0,0.0,0.0,0.0,0.0,0.0,0.0,0.0,0.0,0.0,0.0,0.0,0.0,0.0,0.0,0.0,1.6845,0.0,1.827,0.0,1.9396,1.9932,0.0,0.0,0.0,0.0,0.0,0.0,0.0,0.0,0.0,0.0,0.0,0.0,0.0,0.0,0.0,0.0,0.0,0.0,0.0,0.0,0.0,0.0,0.0,0.0,0.0,0.0,0.0,0.0,0.0,0.0,0.0,0.0,0.0,0.0,0.0,0.0,0.0,0.0,0.0,0.0,0.0,0.0,0.0,0.0,0.0,0.0,0.0,0.0,0.0,0.0,0.0,0.0,0.0,0.0,0.0,0.0,0.0,0.0,0.0,0.0,0.0,0.0,0.0,0.0,0.0,0.0,0.0,0.0,0.0,0.0,0.0,0.0,0.0,0.0,0.0,0.0,0.0,0.0,0.0,0.0,0.0,0.0,0.0,0.0,0.0,0.0,0.0,0.0,0.0,0.0,0.0,0.0,0.0,0.0,0.0,0.0,0.0,0.0,0.0,0.0,0.0,0.0,0.0,0.0,0.0,0.0,0.0,0.0,1.6814,1.7723,1.8151,1.875,1.9341,1.9764,2.0244,0.0,0.0,0.0,0.0,0.0,0.0,0.0,0.0,0.0,0.0,0.0,0.0,0.0,0.0,0.0,0.0,0.0,0.0,0.0,0.0,0.0,0.0,0.0,0.0,0.0,0.0,0.0,0.0,0.0,0.0,0.0,0.0,0.0,0.0,0.0,0.0,0.0,0.0,0.0,0.0,0.0,0.0,0.0,0.0,0.0,0.0,0.0,0.0,0.0,0.0,0.0,0.0,0.0,0.0,0.0,0.0,0.0,0.0,0.0,0.0,0.0,0.0,0.0,0.0,0.0,0.0,0.0,0.0,0.0,0.0,0.0,0.0,0.0,0.0,0.0,0.0,0.0,0.0,0.0,0.0,0.0,0.0,0.0,0.0,0.0,0.0,0.0,0.0,0.0,0.0,0.0,0.0,0.0,0.0,0.0,0.0,0.0,0.0,0.0,0.0,0.0,0.0,0.0,0.0,0.0,0.0,0.0,0.0,0.0,1.9551,2.0006,2.0718,2.1712,2.1053,2.1109,0.0,0.0,0.0,0.0,0.0,0.0,0.0,0.0,0.0,0.0,0.0,0.0,0.0,0.0,0.0,0.0,0.0,0.0,0.0,0.0,0.0,0.0,0.0,0.0,0.0,0.0,0.0,0.0,0.0,0.0,0.0,0.0,0.0,0.0,0.0,0.0,0.0,0.0,0.0,0.0,0.0,0.0,0.0,0.0,0.0,0.0,0.0,0.0,0.0,0.0,0.0,0.0,0.0,0.0,0.0,0.0,0.0,0.0,0.0,0.0,0.0,0.0,0.0,0.0,0.0,0.0,0.0,0.0,0.0,0.0,0.0,0.0,0.0,0.0,0.0,0.0,0.0,0.0,0.0,0.0,0.0,0.0,0.0,0.0,0.0,0.0,0.0,0.0,0.0,0.0,0.0,0.0,0.0,0.0,0.0,0.0,0.0,0.0,0.0,0.0,0.0,0.0,0.0,0.0,0.0,0.0,0.0,0.0,0.0,2.2412,2.1973,2.2204,2.3182,2.2492,2.2335,2.2799,0.0,0.0,0.0,0.0,0.0,0.0,0.0,0.0,0.0,0.0,0.0,0.0,0.0,0.0,0.0,0.0,0.0,0.0,0.0,0.0,0.0,0.0,0.0,0.0,0.0,0.0,0.0,0.0,0.0,0.0,0.0,0.0,0.0,0.0,0.0,0.0,0.0,0.0,0.0,0.0,0.0,0.0,0.0,0.0,0.0,0.0,0.0,0.0,0.0,0.0,0.0,0.0,0.0,0.0,0.0,0.0,0.0,0.0,0.0,0.0,0.0,0.0,0.0,0.0,0.0,0.0,0.0,0.0,0.0,0.0,0.0,0.0,0.0,0.0,0.0,0.0,0.0,0.0,0.0,0.0,0.0,0.0,0.0,0.0,0.0,0.0,0.0,0.0,0.0,0.0,0.0,0.0,0.0,0.0,0.0,0.0,0.0,0.0,0.0,0.0,0.0,0.0,0.0,0.0,0.0,0.0,0.0,0.0,2.6001,2.4183,2.3508,2.4009,2.4095,2.3861,0.0,0.0,0.0,0.0,0.0,0.0,0.0,0.0,0.0,0.0,0.0,0.0,0.0,0.0,0.0,0.0,0.0,0.0,0.0,0.0,0.0,0.0,0.0,0.0,0.0,0.0,0.0,0.0,0.0,0.0,0.0,0.0,0.0,0.0,0.0,0.0,0.0,0.0,0.0,0.0,0.0,0.0,0.0,0.0,0.0,0.0,0.0,0.0,0.0,0.0,0.0,0.0,0.0,0.0,0.0,0.0,0.0,0.0,0.0,0.0,0.0,0.0,0.0,0.0,0.0,0.0,0.0,0.0,0.0,0.0,0.0,0.0,0.0,0.0,0.0,0.0,0.0,0.0,0.0,0.0,0.0,0.0,0.0,0.0,0.0,0.0,0.0,0.0,0.0,0.0,0.0,0.0,0.0,0.0,0.0,0.0,0.0,0.0,0.0,0.0,0.0,0.0,0.0,0.0,0.0,0.0,0.0,0.0,0.0,2.7343,2.8046,2.8074,2.7415,2.6352,2.5407,0.0,0.0,0.0,0.0,0.0,0.0,0.0,0.0,0.0,0.0,0.0,0.0,0.0,0.0,0.0,0.0,0.0,0.0,0.0,0.0,0.0,0.0,0.0,0.0,0.0,0.0,0.0,0.0,0.0,0.0,0.0,0.0,0.0,0.0,0.0,0.0,0.0,0.0,0.0,0.0,0.0,0.0,0.0,0.0,0.0,0.0,0.0,0.0,0.0,0.0,0.0,0.0,0.0,0.0,0.0,0.0,0.0,0.0,0.0,0.0,0.0,0.0,0.0,0.0,0.0,0.0,0.0,0.0,0.0,0.0,0.0,0.0,0.0,0.0,0.0,0.0,0.0,0.0,0.0,0.0,0.0,0.0,0.0,0.0,0.0,0.0,0.0,0.0,0.0,0.0,0.0,0.0,0.0,0.0,0.0,0.0,0.0,0.0,0.0,0.0,0.0,0.0,0.0,0.0,0.0,0.0,0.0,0.0,2.793,2.8834,3.0693,3.1256,3.0272,2.8937,2.7589,0.0,0.0,0.0,0.0,0.0,0.0,0.0,0.0,0.0,0.0,0.0,0.0,0.0,0.0,0.0,0.0,0.0,0.0,0.0,0.0,0.0,0.0,0.0,0.0,0.0,0.0,0.0,0.0,0.0,0.0,0.0,0.0,0.0,0.0,0.0,0.0,0.0,0.0,0.0,0.0,0.0,0.0,0.0,0.0,0.0,0.0,0.0,0.0,0.0,0.0,0.0,0.0,0.0,0.0,0.0,0.0,0.0,0.0,0.0,0.0,0.0,0.0,0.0,0.0,0.0,0.0,0.0,0.0,0.0,0.0,0.0,0.0,0.0,0.0,0.0,0.0,0.0,0.0,0.0,0.0,0.0,0.0,0.0,0.0,0.0,0.0,0.0,0.0,0.0,0.0,0.0,0.0,0.0,0.0,0.0,0.0,0.0,0.0,0.0,0.0,0.0,0.0,0.0,0.0,0.0,0.0,0.0,0.0,2.9677,3.0282,3.2408,3.3217,3.255,3.1368,2.9862,0.0,0.0,0.0,0.0,0.0,0.0,0.0,0.0,0.0,0.0,0.0,0.0,0.0,0.0,0.0,0.0,0.0,0.0,0.0,0.0,0.0,0.0,0.0,0.0,0.0,0.0,0.0,0.0,0.0,0.0,0.0,0.0,0.0,0.0,0.0,0.0,0.0,0.0,0.0,0.0,0.0,0.0,0.0,0.0,0.0,0.0,0.0,0.0,0.0,0.0,0.0,0.0,0.0,0.0,0.0,0.0,0.0,0.0,0.0,0.0,0.0,0.0,0.0,0.0,0.0,0.0,0.0,0.0,0.0,0.0,0.0,0.0,0.0,0.0,0.0,0.0,0.0,0.0,0.0,0.0,0.0,0.0,0.0,0.0,0.0,0.0,0.0,0.0,0.0,0.0,0.0,0.0,0.0,0.0,0.0,0.0,0.0,0.0,0.0,0.0,0.0,0.0,0.0,0.0,0.0,0.0,0.0,0.0,3.0294,3.1424,3.2945,3.3654,3.3503,3.1778,3.0034,0.0,0.0,0.0,0.0,0.0,0.0,0.0,0.0,0.0,0.0,0.0,0.0,0.0,0.0,0.0,0.0,0.0,0.0,0.0,0.0,0.0,0.0,0.0,0.0,0.0,0.0,0.0,0.0,0.0,0.0,0.0,0.0,0.0,0.0,0.0,0.0,0.0,0.0,0.0,0.0,0.0,0.0,0.0,0.0,0.0,0.0,0.0,0.0,2.4557,0.0,0.0,0.0,0.0,0.0,0.0,0.0,0.0,0.0,0.0,0.0,0.0,0.0,0.0,0.0,0.0,0.0,0.0,0.0,0.0,0.0,0.0,0.0,0.0,0.0,0.0,0.0,0.0,0.0,0.0,0.0,0.0,0.0,0.0,0.0,0.0,0.0,0.0,0.0,0.0,0.0,0.0,0.0,0.0,0.0,0.0,0.0,0.0,0.0,0.0,0.0,0.0,0.0,0.0,0.0,0.0,0.0,0.0,0.0,3.0883,3.2247,3.3389,3.3973,3.3923,3.2525,3.1227,0.0,0.0,0.0,0.0,0.0,0.0,0.0,0.0,0.0,0.0,0.0,0.0,0.0,0.0,0.0,0.0,0.0,0.0,0.0,0.0,0.0,0.0,0.0,0.0,0.0,0.0,0.0,0.0,0.0,0.0,0.0,0.0,0.0,0.0,0.0,0.0,0.0,0.0,0.0,0.0,0.0,0.0,0.0,0.0,0.0,0.0,0.0,0.0,0.0,0.0,0.0,0.0,0.0,0.0,0.0,0.0,0.0,0.0,0.0,0.0,0.0,0.0,0.0,0.0,0.0,0.0,0.0,0.0,0.0,0.0,0.0,0.0,0.0,0.0,0.0,0.0,0.0,0.0,0.0,0.0,0.0,0.0,0.0,0.0,0.0,0.0,0.0,0.0,0.0,0.0,0.0,0.0,0.0,0.0,0.0,0.0,0.0,0.0,0.0,0.0,0.0,0.0,0.0,0.0,0.0,0.0,0.0,3.0004,3.1435,3.2982,3.3802,3.4221,3.4209,3.3253,3.2558,3.2147,0.0,0.0,0.0,0.0,0.0,0.0,0.0,0.0,0.0,0.0,0.0,0.0,0.0,0.0,0.0,0.0,0.0,0.0,0.0,0.0,0.0,0.0,0.0,0.0,0.0,0.0,0.0,0.0,0.0,0.0,0.0,0.0,0.0,0.0,0.0,0.0,0.0,0.0,2.2564,2.4046,0.0,0.0,0.0,0.0,0.0,0.0,0.0,0.0,2.56,0.0,0.0,0.0,0.0,0.0,0.0,0.0,0.0,0.0,0.0,0.0,0.0,0.0,0.0,0.0,0.0,0.0,0.0,0.0,0.0,0.0,0.0,0.0,0.0,0.0,0.0,0.0,0.0,0.0,0.0,0.0,0.0,0.0,0.0,0.0,0.0,0.0,0.0,0.0,0.0,0.0,0.0,0.0,0.0,0.0,0.0,0.0,0.0,0.0,0.0,0.0,0.0,0.0,0.0,0.0,0.0,3.0024,3.0699,3.1989,3.3901,3.4224,3.434,3.4262,3.3351,3.2748,3.239,0.0,0.0,0.0,0.0,0.0,0.0,0.0,0.0,0.0,0.0,0.0,0.0,0.0,0.0,0.0,0.0,0.0,0.0,0.0,0.0,0.0,0.0,0.0,0.0,0.0,0.0,0.0,0.0,0.0,0.0,0.0,0.0,0.0,0.0,0.0,0.0,0.0,0.0,0.0,2.6224,2.6867,0.0,0.0,0.0,0.0,0.0,0.0,0.0,0.0,2.6193,0.0,0.0,0.0,0.0,0.0,0.0,0.0,0.0,0.0,0.0,0.0,0.0,0.0,0.0,0.0,0.0,0.0,0.0,0.0,0.0,0.0,0.0,0.0,0.0,0.0,0.0,0.0,0.0,0.0,0.0,0.0,0.0,0.0,0.0,0.0,0.0,0.0,0.0,0.0,0.0,0.0,0.0,0.0,0.0,0.0,0.0,0.0,0.0,0.0,0.0,0.0,0.0,0.0,0.0,0.0,3.0399,3.0646,3.1695,3.3683,3.3844,3.3849,3.3769,3.3254,3.2452,0.0,0.0,0.0,0.0,0.0,0.0,0.0,0.0,0.0,0.0,0.0,0.0,0.0,0.0,0.0,0.0,0.0,0.0,0.0,0.0,0.0,0.0,0.0,0.0,0.0,0.0,0.0,0.0,0.0,0.0,0.0,0.0,0.0,0.0,0.0,0.0,0.0,0.0,0.0,0.0,2.6735,2.724,2.7332,0.0,0.0,0.0,0.0,0.0,0.0,2.7013,2.6976,0.0,0.0,0.0,0.0,0.0,0.0,0.0,0.0,0.0,0.0,0.0,0.0,0.0,0.0,0.0,0.0,0.0,0.0,0.0,0.0,0.0,0.0,0.0,0.0,0.0,0.0,0.0,0.0,0.0,0.0,0.0,0.0,0.0,0.0,0.0,0.0,0.0,0.0,0.0,0.0,0.0,0.0,0.0,0.0,0.0,0.0,0.0,0.0,0.0,0.0,0.0,0.0,0.0,0.0,0.0,3.0483,3.0469,3.1329,3.3069,3.3187,3.3236,3.332,3.3123,3.2203,0.0,0.0,0.0,0.0,0.0,0.0,0.0,0.0,0.0,0.0,0.0,0.0,0.0,0.0,0.0,0.0,0.0,0.0,0.0,0.0,0.0,0.0,0.0,0.0,0.0,0.0,0.0,0.0,0.0,0.0,0.0,0.0,0.0,0.0,0.0,0.0,0.0,0.0,0.0,0.0,0.0,2.7536,2.7647,2.7725,0.0,0.0,0.0,0.0,2.7731,2.8015,0.0,0.0,0.0,0.0,0.0,0.0,0.0,0.0,0.0,0.0,0.0,0.0,0.0,0.0,0.0,0.0,0.0,0.0,0.0,0.0,0.0,0.0,0.0,0.0,0.0,0.0,0.0,0.0,0.0,0.0,0.0,0.0,0.0,0.0,0.0,0.0,0.0,0.0,0.0,0.0,0.0,0.0,0.0,0.0,0.0,0.0,0.0,0.0,0.0,0.0,0.0,0.0,0.0,0.0,0.0,0.0,3.0045,3.0591,3.1351,3.2364,3.2425,3.2778,3.3428,3.3174,3.2523,0.0,0.0,0.0,0.0,0.0,0.0,0.0,0.0,0.0,0.0,0.0,0.0,0.0,0.0,0.0,0.0,0.0,0.0,0.0,0.0,0.0,0.0,0.0,0.0,0.0,0.0,0.0,0.0,0.0,0.0,0.0,0.0,0.0,0.0,0.0,0.0,0.0,0.0,0.0,0.0,0.0,2.848,2.8615,2.9235,2.9411,0.0,0.0,0.0,2.894,2.9923,0.0,0.0,0.0,0.0,0.0,0.0,0.0,0.0,0.0,0.0,0.0,0.0,0.0,0.0,0.0,0.0,0.0,0.0,0.0,0.0,0.0,0.0,0.0,0.0,0.0,0.0,0.0,0.0,0.0,0.0,0.0,0.0,0.0,0.0,0.0,0.0,0.0,0.0,0.0,0.0,0.0,0.0,0.0,0.0,0.0,0.0,0.0,0.0,0.0,0.0,0.0,0.0,0.0,0.0,0.0,2.8918,3.0172,3.0262,3.0718,3.1624,3.1618,3.1935,3.2749,3.2078,3.1403,0.0,0.0,0.0,0.0,0.0,0.0,0.0,0.0,0.0,0.0,0.0,0.0,0.0,0.0,0.0,0.0,0.0,0.0,0.0,0.0,0.0,0.0,0.0,0.0,0.0,0.0,0.0,0.0,0.0,0.0,0.0,0.0,0.0,0.0,0.0,0.0,0.0,0.0,0.0,0.0,0.0,0.0,2.8905,2.9707,0.0,0.0,0.0,3.1795,3.0701,0.0,0.0,0.0,0.0,0.0,0.0,0.0,0.0,0.0,0.0,0.0,0.0,0.0,0.0,0.0,0.0,0.0,0.0,0.0,0.0,0.0,0.0,0.0,0.0,0.0,0.0,0.0,0.0,0.0,0.0,0.0,0.0,0.0,0.0,0.0,0.0,0.0,0.0,0.0,0.0,0.0,0.0,0.0,0.0,0.0,0.0,0.0,0.0,0.0,0.0,0.0,0.0,0.0,0.0,0.0,0.0,0.0,3.0077,2.9936,3.02,3.09,3.0825,3.1132,3.1883,3.1123,0.0,0.0,0.0,0.0,0.0,0.0,0.0,0.0,0.0,0.0,0.0,0.0,0.0,0.0,0.0,0.0,0.0,0.0,0.0,0.0,0.0,0.0,0.0,0.0,0.0,0.0,0.0,2.1733,0.0,0.0,0.0,0.0,0.0,0.0,0.0,0.0,0.0,0.0,0.0,0.0,0.0,0.0,2.9227,2.9337,3.0404,3.1106,0.0,0.0,3.2989,3.2045,3.2769,3.3017,0.0,0.0,0.0,0.0,0.0,0.0,0.0,0.0,0.0,0.0,0.0,0.0,0.0,0.0,0.0,0.0,0.0,0.0,0.0,0.0,0.0,0.0,0.0,0.0,0.0,0.0,0.0,0.0,0.0,0.0,0.0,0.0,0.0,0.0,0.0,0.0,0.0,0.0,0.0,0.0,0.0,0.0,0.0,0.0,0.0,0.0,0.0,0.0,0.0,0.0,0.0,0.0,0.0,0.0,0.0,2.9246,2.9749,3.0033,3.0183,3.0098,3.0421,3.114,3.0873,3.0578,0.0,0.0,0.0,0.0,0.0,0.0,0.0,0.0,0.0,0.0,0.0,0.0,0.0,0.0,0.0,0.0,0.0,0.0,0.0,0.0,0.0,0.0,0.0,0.0,0.0,0.0,0.0,0.0,0.0,0.0,0.0,0.0,0.0,0.0,0.0,0.0,0.0,0.0,0.0,0.0,0.0,3.0246,3.0296,3.1851,3.2783,0.0,0.0,3.3734,3.2398,3.3435,3.3631,3.1358,0.0,0.0,0.0,0.0,0.0,0.0,0.0,0.0,0.0,0.0,0.0,0.0,0.0,0.0,0.0,0.0,0.0,0.0,0.0,0.0,0.0,0.0,0.0,0.0,0.0,0.0,0.0,0.0,0.0,0.0,0.0,0.0,0.0,0.0,0.0,0.0,0.0,0.0,0.0,0.0,0.0,0.0,0.0,0.0,0.0,0.0,0.0,0.0,0.0,0.0,0.0,0.0,0.0,2.8655,2.9243,2.9707,2.9987,3.003,2.9967,3.029,3.1024,3.0334,3.0049,0.0,0.0,0.0,0.0,0.0,0.0,0.0,0.0,0.0,0.0,0.0,0.0,0.0,0.0,0.0,0.0,0.0,0.0,0.0,0.0,0.0,0.0,0.0,0.0,0.0,0.0,0.0,0.0,2.2943,2.3369,2.404,0.0,0.0,0.0,0.0,0.0,0.0,0.0,0.0,0.0,0.0,3.1349,3.1395,3.254,0.0,0.0,3.4277,3.4934,3.391,3.4233,3.4322,3.3451,3.2847,0.0,0.0,0.0,0.0,0.0,0.0,0.0,0.0,0.0,0.0,0.0,0.0,0.0,0.0,0.0,0.0,0.0,0.0,0.0,0.0,0.0,0.0,0.0,0.0,0.0,0.0,0.0,0.0,0.0,0.0,0.0,0.0,0.0,0.0,0.0,0.0,0.0,0.0,0.0,0.0,0.0,0.0,0.0,0.0,0.0,0.0,0.0,0.0,0.0,0.0,0.0,0.0,2.8551,2.9304,2.9704,2.9947,3.0007,2.9974,3.0164,3.0601,2.9927,2.9697,0.0,0.0,0.0,0.0,0.0,0.0,0.0,0.0,0.0,0.0,0.0,0.0,0.0,0.0,0.0,0.0,0.0,0.0,0.0,0.0,0.0,0.0,0.0,0.0,0.0,0.0,0.0,0.0,2.3472,2.4141,2.4986,0.0,0.0,0.0,0.0,0.0,0.0,0.0,0.0,0.0,0.0,3.2379,3.2369,3.3236,3.3908,3.3904,3.4842,3.5374,3.484,3.4552,3.4293,3.4081,0.0,0.0,0.0,0.0,0.0,0.0,0.0,0.0,0.0,0.0,0.0,0.0,0.0,0.0,0.0,0.0,0.0,0.0,0.0,0.0,0.0,0.0,0.0,0.0,0.0,0.0,0.0,0.0,0.0,0.0,0.0,0.0,0.0,0.0,0.0,0.0,0.0,0.0,0.0,0.0,0.0,0.0,0.0,0.0,0.0,0.0,0.0,0.0,0.0,0.0,0.0,0.0,0.0,0.0,2.9261,2.97,2.9945,3.0003,3.0007,2.9958,2.985,2.9733,2.9578,2.9339,0.0,0.0,0.0,0.0,0.0,0.0,0.0,0.0,0.0,0.0,0.0,0.0,0.0,0.0,0.0,0.0,0.0,0.0,0.0,0.0,0.0,0.0,0.0,0.0,0.0,0.0,2.3506,2.438,2.5234,0.0,0.0,0.0,0.0,0.0,0.0,0.0,0.0,0.0,0.0,3.2002,3.3262,3.3208,3.4086,3.4752,3.484,3.4843,3.4843,3.4879,3.4193,3.3323,0.0,0.0,0.0,0.0,0.0,0.0,0.0,0.0,0.0,0.0,0.0,0.0,0.0,0.0,0.0,0.0,0.0,0.0,0.0,0.0,0.0,0.0,0.0,0.0,0.0,0.0,0.0,1.7631,1.7565,0.0,0.0,0.0,0.0,0.0,0.0,0.0,0.0,0.0,0.0,0.0,2.3326,2.3943,0.0,0.0,0.0,0.0,0.0,0.0,0.0,0.0,0.0,0.0,0.0,0.0,2.7991,2.9248,2.9645,2.9853,2.9936,2.9939,2.9889,2.9789,2.9738,2.9554,2.9246,0.0,0.0,0.0,0.0,0.0,0.0,0.0,0.0,0.0,0.0,0.0,0.0,0.0,0.0,0.0,0.0,0.0,0.0,0.0,0.0,0.0,0.0,0.0,0.0,0.0,2.4596,0.0,0.0,0.0,0.0,0.0,0.0,0.0,0.0,0.0,0.0,0.0,3.1421,3.2022,3.3393,3.4314,3.4226,3.4525,3.4804,0.0,0.0,0.0,0.0,0.0,0.0,0.0,0.0,0.0,0.0,0.0,0.0,0.0,0.0,3.5377,3.4179,3.3999,3.4112,3.4358,0.0,0.0,0.0,0.0,0.0,0.0,0.0,0.0,0.0,0.0,0.0,0.0,0.0,0.0,0.0,0.0,1.8847,0.0,0.0,0.0,0.0,0.0,0.0,0.0,0.0,2.2909,2.3845,2.4522,2.5062,2.5371,0.0,2.5593,2.531,0.0,0.0,0.0,0.0,0.0,0.0,0.0,0.0,2.8299,2.9266,2.9622,2.9842,2.9891,2.991,2.9876,2.9829,2.9729,2.9516,2.9241,2.8568,2.8385,0.0,0.0,0.0,0.0,0.0,0.0,0.0,0.0,0.0,0.0,0.0,0.0,0.0,0.0,0.0,0.0,0.0,0.0,0.0,0.0,0.0,0.0,0.0,2.5825,0.0,0.0,0.0,0.0,0.0,0.0,0.0,0.0,0.0,3.0457,3.1518,3.2517,3.3064,3.4147,3.4827,3.4682,0.0,0.0,0.0,0.0,0.0,0.0,0.0,3.5493,3.6155,3.6221,3.6511,3.7503,3.8181,3.8429,3.786,0.0,0.0,3.6321,3.6081,3.6193,3.6449,3.6957,3.7471,3.7857,3.8189,3.8475,0.0,0.0,0.0,0.0,0.0,0.0,0.0,0.0,1.9276,1.9329,0.0,1.9351,0.0,0.0,0.0,0.0,0.0,0.0,0.0,0.0,2.3936,2.4612,2.5528,2.5736,2.5729,2.5647,2.6512,2.6892,2.677,2.5836,0.0,0.0,0.0,0.0,0.0,0.0,2.8379,2.9282,2.9631,2.9829,2.9908,2.9899,2.9918,2.9899,2.971,2.9511,2.9322,2.9176,2.9067,2.9005,2.7894,0.0,0.0,0.0,0.0,0.0,0.0,0.0,0.0,0.0,0.0,0.0,0.0,0.0,0.0,0.0,0.0,0.0,0.0,0.0,0.0,2.6412,0.0,0.0,0.0,0.0,0.0,0.0,0.0,0.0,0.0,0.0,3.1055,3.2308,3.3355,3.3489,0.0,0.0,0.0,0.0,3.5179,3.6059,3.6225,3.6544,3.7433,3.6901,3.6421,3.6508,0.0,0.0,3.7747,3.933,3.9972,3.8476,3.8904,3.911,3.8093,3.7914,3.8189,3.9016,3.9258,3.9741,4.0548,4.023,3.9865,2.4743,0.0,0.0,0.0,0.0,2.3116,2.3012,2.2895,2.3063,2.3146,2.3127,2.2565,0.0,0.0,0.0,0.0,0.0,0.0,2.4017,2.4898,2.5628,2.6222,2.6668,2.7219,2.7525,2.7571,2.7702,2.7866,2.8054,2.7772,2.7168,2.6281,0.0,0.0,0.0,0.0,2.8575,2.9467,2.969,2.9842,2.9914,2.9907,2.9918,2.9904,2.971,2.955,2.9434,2.9312,2.9186,2.9067,2.8227,0.0,0.0,0.0,0.0,0.0,0.0,0.0,0.0,0.0,0.0,0.0,0.0,0.0,0.0,0.0,0.0,0.0,0.0,0.0,2.7565,2.8169,2.8906,0.0,0.0,0.0,0.0,0.0,0.0,0.0,0.0,0.0,3.2979,3.3228,3.3884,0.0,0.0,3.5072,3.5607,3.5733,3.5916,3.6226,0.0,0.0,0.0,3.7923,3.8221,3.8373,3.8927,3.9473,3.9757,4.0256,4.0507,4.0075,4.028,4.0376,4.009,3.9017,3.861,3.9313,4.0051,4.0797,4.1572,4.2098,4.2446,2.7564,2.6802,2.5345,2.4654,2.4596,2.4611,2.4641,2.4694,2.4847,2.4915,2.4881,2.4456,2.4154,2.3918,2.3158,0.0,0.0,0.0,2.5558,2.6604,2.7155,2.7821,2.8564,2.9019,2.9273,2.9352,2.9256,2.9314,2.9536,2.9331,2.8919,2.8341,0.0,0.0,2.7806,2.8399,2.9022,2.9621,2.9771,2.9849,2.9911,2.9911,2.9918,2.9899,2.9729,2.9593,2.954,2.9383,2.9251,2.9186,2.8689,2.8331,0.0,0.0,0.0,0.0,0.0,0.0,0.0,0.0,0.0,0.0,0.0,2.5103,0.0,0.0,0.0,0.0,2.7698,2.8665,2.9294,3.0027,0.0,0.0,0.0,0.0,0.0,0.0,0.0,3.2855,3.3699,3.432,3.4308,3.4199,3.4463,3.539,3.5475,3.5628,3.6086,0.0,3.6906,3.7319,3.7513,3.7883,3.8622,3.8914,3.9217,3.9727,4.0279,4.0684,4.0714,4.0776,4.0844,4.0876,4.0925,4.0983,4.1036,4.013,3.9691,4.0537,4.1427,4.2312,4.3144,4.375,4.4157,3.0633,3.0316,2.7021,2.5635,2.5607,2.5561,2.5525,2.5525,2.5533,2.5508,2.5533,2.5513,2.5528,2.5546,2.5601,0.0,0.0,2.5868,2.6766,2.8517,2.8393,2.9143,3.062,3.0627,3.0681,3.0724,3.0823,3.0917,3.0991,3.0478,3.0293,3.0412,2.9765,2.9023,2.8299,2.9087,2.9598,2.9731,2.9851,2.9901,2.9916,2.9901,2.9907,2.9912,2.976,2.9659,2.9631,2.9427,2.9307,2.9294,2.9227,2.9143,2.8973,0.0,0.0,0.0,0.0,0.0,0.0,0.0,0.0,0.0,0.0,0.0,0.0,0.0,0.0,0.0,2.8675,0.0,3.1128,3.1751,0.0,0.0,0.0,3.328,3.2527,3.4031,3.4766,3.3916,0.0,0.0,0.0,0.0,3.5081,3.494,3.5661,3.6222,3.6236,3.6929,3.7827,3.8637,3.8278,3.8425,3.9812,3.9605,3.9444,4.0294,4.0664,4.0721,4.0861,4.0966,4.0995,4.1005,4.1048,4.1102,4.1114,4.1026,4.1366,4.2139,4.2933,4.3766,4.4496,4.4818,4.4901,3.2137,3.1431,2.983,2.9195,2.9222,2.9153,2.9141,2.9141,2.9141,2.9141,2.907,2.7936,2.7163,2.6754,2.7912,2.8529,2.8716,2.8672,2.8961,2.9413,2.8866,2.8831,2.9275,2.9325,2.9659,3.0173,3.0369,3.0754,3.1335,3.0796,3.088,3.1528,3.0932,3.0142,2.9308,2.961,2.9859,2.9932,2.9911,2.9924,2.9968,2.9972,2.9952,2.9903,2.9723,2.9669,2.9746,2.947,2.9326,2.9356,2.9265,2.885,2.8151,2.7737,0.0,0.0,0.0,0.0,0.0,0.0,0.0,0.0,0.0,2.694,2.7251,0.0,2.9749,0.0,3.0902,3.1718,3.2052,3.2199,0.0,0.0,3.3946,3.4098,3.5164,3.5171,3.5019,3.4861,3.5039,3.5202,3.5258,3.5202,3.5186,3.5195,3.5346,3.5698,3.6311,3.6608,3.71,3.8013,3.8078,3.8363,3.9332,3.9024,3.8865,3.9699,3.9921,4.0183,4.0855,4.1028,4.1085,4.1063,4.1096,4.1109,4.11,4.1108,4.1429,4.2197,4.2586,4.2975,4.3823,4.453,4.5019,3.3829,3.3359,3.282,3.2391,3.199,3.043,2.9851,2.9958,3.0005,3.0216,3.0582,2.9761,2.9253,2.9006,2.983,3.0225,3.0303,3.0333,3.0554,3.0936,3.0532,3.0546,3.0937,3.0975,3.1194,3.1594,3.1712,3.2058,3.2496,3.158,3.1402,3.1976,3.0993,3.0262,2.9787,3.0237,3.0349,3.0057,2.9972,2.9929,2.9952,2.9956,2.992,2.9832,2.9678,2.9598,2.9617,2.9404,2.9111,2.8779,2.8667,2.8345,2.7783,2.7743,2.7513,0.0,0.0,0.0,0.0,0.0,0.0,0.0,0.0,0.0,0.0,0.0,3.1415,0.0,3.2283,3.2817,3.2921,3.3242,3.3871,3.4887,3.4925,3.5119,3.5757,3.5768,3.5609,3.5268,3.523,3.5273,3.53,3.5289,3.5285,3.535,3.5335,3.5638,3.6415,3.6884,3.7371,3.7889,3.7732,3.7696,3.8287,3.8399,3.8553,3.8979,3.9141,3.9359,3.986,4.0252,4.0531,4.0541,4.0827,4.1107,4.1113,4.1099,4.1301,4.1656,4.1831,4.23,4.3456,4.4394,4.494,3.5504,3.5433,3.5334,3.4751,3.3666,3.0693,2.9647,3.0002,3.0062,3.0482,3.1161,3.1377,3.1443,3.1372,3.1481,3.1529,3.1523,3.1348,3.1694,3.2404,3.2339,3.265,3.3337,3.3344,3.338,3.3483,3.3511,3.3595,3.3724,3.2401,3.1828,3.1938,3.0691,3.0042,3.0097,3.0812,3.0837,3.0106,3.0038,2.9976,2.9905,2.9905,2.9851,2.9739,2.9645,2.9564,2.9449,2.931,2.8929,2.8254,2.8146,2.7988,2.7774,2.7861,2.7917,0.0,2.8712,0.0,0.0,0.0,0.0,0.0,0.0,0.0,0.0,3.183,3.2458,3.2605,3.3289,3.3705,3.3795,3.4467,3.4998,3.5172,3.5764,3.5938,3.5461,3.596,3.6081,3.54,3.5312,3.5312,3.5334,3.5375,3.5405,3.5434,3.5467,3.5698,3.6365,3.7055,3.7539,3.7791,3.7353,3.7078,3.709,3.7647,3.8146,3.8274,3.8351,3.8414,3.8645,3.9207,3.9691,3.9877,4.043,4.0942,4.1061,4.1105,4.1109,4.117,4.1209,4.164,4.293,4.3924,4.4369,3.6951,3.6209,3.5442,3.4233,3.2761,3.204,3.2303,3.3214,3.3169,3.2868,3.2495,3.3159,3.304,3.2411,3.2962,3.322,3.3191,3.2524,3.2323,3.2471,3.1935,3.1752,3.19,3.1955,3.2299,3.2849,3.3044,3.3099,3.3087,3.2311,3.2003,3.2047,3.121,3.0859,3.0964,0.0,0.0,0.0,3.0068,3.0046,2.9976,2.9995,2.9944,2.9859,2.9739,0.0,2.9795,2.9565,2.9426,2.9392,2.9209,0.0,0.0,0.0,0.0,0.0,0.0,0.0,0.0,0.0,0.0,0.0,3.2992,3.2638,3.2023,3.2803,3.363,3.433,3.4595,3.4732,3.4824,3.4957,3.5373,3.6109,3.5734,3.5622,3.6121,3.584,3.5465,3.5415,3.5346,3.5349,3.5453,3.5448,3.5425,3.5525,3.5509,3.5583,3.5766,3.5971,3.628,3.6928,3.7055,3.6851,3.6223,3.6378,3.6881,3.7306,3.7529,3.7785,3.8375,3.8668,3.9117,3.9632,4.0025,4.0341,4.0913,4.111,4.1014,4.1152,4.1152,4.1289,4.1641,4.2343,4.2847,3.7922,0.0,3.6963,3.5819,0.0,3.5082,3.526,3.4951,3.3846,3.3426,3.3567,3.3969,3.3895,3.3445,3.3794,3.3927,3.3888,3.345,3.3247,3.3217,3.2889,3.2724,3.2717,3.2767,3.2982,3.3344,3.3438,3.3493,3.3493,3.2892,3.2435,3.2135,3.1445,3.0931,3.0598,3.1,3.0785,2.9952,3.0416,3.0416,2.999,3.0369,3.0332,2.9847,0.0,0.0,0.0,0.0,0.0,0.0,0.0,0.0,0.0,0.0,0.0,2.9461,3.033,3.1266,3.2218,3.3025,3.3715,3.4254,3.4325,3.4154,3.3667,3.4046,3.4491,3.494,3.5023,3.5059,3.5104,3.513,3.5359,3.5814,3.5523,3.5444,3.5791,3.5588,3.5361,3.5379,3.5405,3.5418,3.548,3.5069,3.5049,3.5463,3.5193,3.5084,3.5515,3.5584,3.5828,3.6326,3.6483,3.6422,3.6057,3.5969,3.6113,3.6571,3.6654,3.6832,3.7242,3.7672,3.8105,3.856,3.8935,3.9407,3.9743,3.9862,4.0,4.043,4.0566,4.0742,4.1094,4.1835,4.2243,3.8683,3.8539,3.8556,3.7702,3.646,3.7751,3.7519,3.6077,0.0,0.0,0.0,3.4507,3.4483,3.4329,3.4419,3.434,3.4136,3.4061,3.403,3.4023,3.403,3.403,3.4017,3.4171,3.4171,3.4017,3.4171,3.4167,3.3998,3.3465,3.287,3.2207,3.1522,3.0728,2.9986,3.076,3.0835,3.0187,3.0844,3.0772,2.9953,3.0598,3.0593,2.9744,2.9744,2.9714,2.9659,2.9608,2.9256,2.8605,2.8517,2.8535,2.8637,2.8792,2.9644,3.1261,3.2173,3.3035,3.3884,3.4608,3.5001,3.495,3.5006,3.5038,3.5092,3.5038,3.5052,3.5088,3.5102,3.5113,3.5109,3.5182,3.5242,3.5293,3.5319,3.5316,3.5312,3.5364,3.5328,3.5231,3.5201,3.5277,3.5232,3.4516,3.441,3.5237,3.4904,3.4643,3.5404,3.5672,3.576,3.5933,3.6,3.5955,3.5973,3.5998,3.6003,3.6068,3.605,3.6011,3.6109,3.6578,3.707,3.741,3.7921,3.8393,3.8592,3.873,3.8848,3.9531,3.9687,3.9941,4.0781,4.1484,4.1716,3.9357,3.8676,3.8735,3.8194,3.7333,3.7459,3.7387,3.7028,3.5915,3.5102,3.4516,3.5254,3.5145,3.443,3.5093,3.4989,3.4282,3.4203,3.4142,0.0,3.4148,3.4142,3.4123,3.484,3.4815,3.4179,3.4833,3.4532,3.338,3.3282,3.2939,3.2279,3.1505,3.0683,2.9957,3.0685,3.1047,3.0934,3.1096,3.0768,2.993,3.0006,3.0017,2.9887,2.9868,2.987,2.9866,2.9834,2.9779,2.9607,2.9619,2.9981,3.0622,3.0719,3.1567,3.3151,3.3495,3.3971,3.4745,3.4981,3.5116,3.5151,3.5159,3.5151,3.5097,3.5088,3.5088,3.5097,3.5155,3.5193,3.5182,3.5246,3.5297,3.5304,3.532,3.5335,3.5375,3.5405,3.5142,3.452,3.4363,3.4452,3.4471,3.3843,3.3986,3.5146,3.5018,3.4768,3.5529,3.5788,3.5832,3.5884,3.5885,3.5931,3.5988,3.6015,3.6003,3.601,3.6011,3.6011,3.6011,3.6167,3.6524,3.716,3.7374,3.7709,3.832,3.8613,3.8574,3.875,3.8789,3.9101,3.9961,4.0351,4.0545,4.1117,4.0363,4.0362,3.9598,3.8376,3.8318,3.8261,3.8184,3.7735,3.6952,3.6024,3.6393,3.6064,3.5257,3.5597,3.5531,3.5116,3.5052,3.5012,3.497,3.497,3.471,3.4265,3.4587,3.455,3.4198,3.4563,3.4395,3.3796,3.3878,3.3575,3.2856,3.1666,3.0845,3.0544,3.1357,3.1573,3.1137,3.1589,3.1454,3.0617,3.0598,3.0389,2.993,2.9911,3.0135,3.0581,3.0141,3.0122,3.0604,3.064,3.0827,3.1187,3.1248,3.1788,3.2924,3.2704,3.3037,3.4282,3.4412,3.4675,3.5139,3.4803,3.475,3.5132,3.5151,3.5166,3.5151,3.5246,3.5297,3.5258,3.5346,3.5409,3.539,3.5409,3.5416,3.5434,3.5456,3.5109,3.4401,3.4626,3.4757,3.4342,3.3978,3.4188,3.5413,3.5316,3.535,3.5797,3.5859,3.588,3.5941,3.5956,3.597,3.5998,3.6003,3.6008,3.6011,3.6011,3.6011,3.6011,3.6011,3.6173,3.6494,3.6611,3.6731,3.7205,3.7186,3.7362,3.7851,3.791,3.8379,3.9473,4.0214,4.0676,4.2544,4.1748,4.1748,4.0837,3.945,3.9359,3.9324,3.9319,3.9218,3.8703,3.7923,3.7692,3.7093,3.6306,3.6438,3.6384,3.6126,3.6092,3.6041,3.6008,3.5991,3.5588,3.4974,3.5019,3.4908,3.4599,3.4686,3.4635,3.4401,3.4467,3.4148,3.3395,3.2171,3.1463,3.128,3.1991,3.2108,3.1702,3.2144,3.209,3.1511,3.1473,3.1147,3.0522,3.0484,3.0768,3.1374,3.081,3.0804,3.1471,3.1389,3.1378,3.1568,3.1396,3.1746,3.2577,3.227,3.2584,3.3927,3.4158,3.4484,3.5153,3.4652,3.4557,3.513,3.5238,3.5238,3.5238,3.5339,3.5391,3.5334,3.5423,3.5503,3.5503,3.5503,3.5477,3.55,3.5503,3.5071,3.426,3.4529,3.4615,3.4146,3.368,3.3825,3.4739,3.5495,3.5843,3.5877,3.5893,3.594,3.5996,3.6021,3.6001,3.6008,3.601,3.6011,3.6011,3.6011,3.6011,3.6011,3.6011,3.6015,3.6081,3.6061,3.6103,3.6048,3.6071,3.6365,3.6893,3.7011,3.7559,3.916,4.0351,4.1025,4.2695,4.1944,4.1917,4.132,4.0367,4.0336,4.0287,4.0221,4.0122,4.0034,3.9781,3.9099,3.8223,3.7517,3.8069,3.7883,3.7118,3.7119,3.7081,3.6984,3.7049,3.6953,3.6741,3.7398,3.7,3.5733,3.6149,3.5769,3.4596,3.4569,3.4244,3.3634,3.3369,3.284,3.2208,3.2189,3.2571,3.3246,3.2699,3.2356,3.2288,3.2288,3.225,3.2193,3.2137,3.2208,3.2288,3.2212,3.2198,3.224,3.1676,3.1644,3.2218,3.1711,3.1997,3.349,3.3631,3.4087,3.4941,3.5083,3.5061,3.5254,3.517,3.5139,3.5266,3.535,3.5361,3.532,3.5361,3.5405,3.5405,3.546,3.5488,3.551,3.5488,3.5503,3.5507,3.5503,3.4885,3.3275,3.3493,3.3249,3.3241,3.2317,3.2026,3.3798,3.5102,3.5872,3.5889,3.593,3.5987,3.6002,3.6005,3.602,3.6003,3.6007,3.601,3.6011,3.6011,3.6011,3.6011,3.6012,3.6014,3.6019,3.6018,3.6019,3.6007,3.6011,3.6031,3.6267,3.6464,3.6777,3.8398,4.0,4.0954,4.3763,4.3385,4.2884,4.1843,4.0657,4.0557,4.0527,4.0508,4.0462,4.0438,4.045,4.0064,3.932,3.8375,3.8622,3.8539,3.8224,3.82,3.8155,3.8098,3.8002,3.7721,3.7343,3.7431,3.7167,3.6665,3.6938,3.6507,3.5442,3.4875,3.4538,3.4261,3.3793,3.3321,3.2986,3.3015,3.3209,3.3544,3.3776,3.3871,3.3709,3.2421,3.1701,3.1701,3.1682,3.2212,3.2989,3.2686,3.266,3.3111,3.2494,3.2203,3.2523,3.1802,3.1874,3.2979,3.3164,3.3566,3.4426,3.4068,3.4217,3.5231,3.4856,3.4779,3.5255,3.5394,3.5435,3.5376,3.5428,3.5456,3.5463,3.5498,3.5528,3.5544,3.5534,3.5509,3.5547,3.553,3.5014,3.3977,3.4211,3.4088,3.337,3.3018,3.3421,3.4525,3.5502,3.5851,3.5894,3.5909,3.5939,3.5949,3.5974,3.6002,3.6006,3.601,3.6011,3.6011,3.6011,3.6011,3.6011,3.6011,3.6013,3.6017,3.6014,3.6013,3.6018,3.6005,3.6008,3.6128,3.7088,3.7812,3.8496,3.9941,4.0895,4.4518,4.4337,4.3319,4.1987,4.064,4.0598,4.0591,4.0591,4.0591,4.0624,4.0657,4.0617,4.015,3.9437,3.9279,3.9242,3.9228,3.9204,3.9176,3.9166,3.903,3.8726,3.8242,3.802,3.7818,3.7666,3.7664,3.7211,3.6303,3.5521,3.515,3.5081,3.4329,3.3918,3.3851,3.3724,3.372,3.398,3.442,3.4581,3.4315,3.2844,3.2015,3.2183,3.2258,3.2835,3.3964,3.3457,3.3444,3.4099,3.3392,3.2964,3.2958,3.2222,3.216,3.2924,3.3268,3.3674,3.4309,3.3819,3.401,3.5097,3.4769,3.4711,3.5211,3.5423,3.5479,3.5416,3.547,3.5501,3.5485,3.5518,3.5554,3.5572,3.5531,3.5522,3.5585,3.5538,3.5194,3.4521,3.4678,3.4726,3.3633,3.3824,3.4645,3.5177,3.5639,3.5898,3.5892,3.5885,3.5891,3.5934,3.5988,3.5998,3.6007,3.601,3.6011,3.6011,3.6011,3.6011,3.6011,3.6011,3.6011,3.6014,3.6012,3.6012,3.6015,3.6019,3.6005,3.632,3.7281,3.8338,3.8144,3.9785,4.072,4.4538,4.4239,4.2697,4.1542,4.0713,4.0686,4.0614,4.0617,4.0672,4.0675,4.0675,4.0652,4.0584,4.0496,4.0312,4.0202,4.0048,4.0062,4.0067,4.008,4.0063,4.0101,4.0072,3.9994,3.9447,3.8638,3.859,3.8152,3.7321,3.6582,3.6231,3.6188,3.541,3.4931,3.4751,3.415,3.4027,3.4647,3.4225,3.3878,3.3914,3.3756,3.3964,3.4481,3.4749,3.4719,3.492,3.4952,3.4978,3.5035,3.423,3.3832,3.3834,3.3153,3.3133,3.3921,3.4687,3.5128,3.5166,3.5032,3.5147,3.5352,3.5302,3.5328,3.5386,3.546,3.5467,3.5393,3.5463,3.5483,3.5512,3.5557,3.5598,3.5601,3.5531,3.5554,3.5594,3.555,3.5132,3.4549,3.4373,3.4057,3.3341,3.4004,3.4468,3.4854,3.5383,3.5892,3.5881,3.5887,3.5912,3.5959,3.5985,3.6009,3.6019,3.6006,3.601,3.6011,3.6011,3.6011,3.6011,3.6011,3.6011,3.6011,3.6011,3.6012,3.6014,3.6018,3.6005,3.6476,3.7533,3.82,3.8085,3.9706,4.0644,4.4292,4.3757,4.3079,4.2028,4.0855,4.1271,4.1222,4.0833,4.1876,4.2011,4.156,4.1488,4.1489,4.1463,4.0811,4.0489,4.0417,4.0448,4.0453,4.0431,4.0379,4.0371,4.0425,4.03,4.0131,3.9859,3.9779,3.9289,3.8389,3.7514,3.711,3.7175,3.6904,3.6444,3.5846,3.5541,3.5307,3.5027,3.4707,3.4624,3.4698,3.475,3.4854,3.4978,3.4536,3.4507,3.5053,3.5089,3.513,3.516,3.4384,3.4006,3.4029,3.3802,3.3755,3.4073,3.438,3.4756,3.5135,3.4813,3.4793,3.5325,3.5405,3.542,3.5476,3.5493,3.5488,3.5469,3.5486,3.5502,3.5565,3.558,3.5614,3.5648,3.5608,3.558,3.5636,3.5593,3.5449,3.5102,3.4344,3.3478,3.3486,3.3547,3.3977,3.4553,3.5352,3.5812,3.5896,3.5896,3.5919,3.5924,3.5931,3.594,3.6008,3.6018,3.6005,3.601,3.6011,3.6011,3.6011,3.6011,3.6011,3.6011,3.6011,3.6012,3.6013,3.6014,3.6021,3.6396,3.7511,3.8315,3.8202,3.9823,4.0586,4.4391,4.3527,4.365,4.2943,4.1761,4.2215,4.2135,4.1741,4.2802,4.2973,4.2447,4.2137,4.1985,4.1856,4.1073,4.0647,4.0624,4.0614,4.0609,4.0617,4.0519,4.0504,4.0584,4.0442,4.0412,4.0455,4.0441,4.0059,3.9413,3.8478,3.8083,3.8137,3.7931,3.7446,3.6877,3.6827,3.6538,3.6033,3.5704,3.5587,3.5613,3.5407,3.5269,3.5134,3.4624,3.4542,3.5107,3.5147,3.5175,3.515,3.4703,3.445,3.4528,3.4543,3.455,3.455,3.4569,3.4777,3.5195,3.4857,3.481,3.5346,3.5446,3.5456,3.55,3.5491,3.5499,3.5486,3.5515,3.5562,3.5592,3.5629,3.5646,3.5679,3.5643,3.5621,3.5673,3.5648,3.5648,3.5432,3.4223,3.3585,3.3876,3.3578,3.3959,3.4849,3.5559,3.5857,3.5896,3.5892,3.5889,3.589,3.5903,3.5934,3.5985,3.6015,3.6004,3.6009,3.6011,3.6011,3.6011,3.6011,3.6011,3.6011,3.6011,3.6011,3.6011,3.6011,3.6171,3.6392,3.7411,3.8488,3.902,3.9921,4.0488,4.491,4.3677,4.4327,4.4058,4.3246,4.331,4.3337,4.316,4.3366,4.3505,4.326,4.2518,4.227,4.1918,4.1306,4.0817,4.0704,4.0641,4.0661,4.069,4.0628,4.0614,4.0604,4.0546,4.0504,4.0503,4.0441,4.04,4.0243,3.9482,3.9103,3.8958,3.8449,3.8083,3.7816,3.7816,3.7786,3.7476,3.6855,3.6549,3.65,3.5921,3.5587,3.5571,3.5456,3.5373,3.5287,3.5293,3.5312,3.5296,3.5258,3.5311,3.5294,3.5338,3.5439,3.5378,3.542,3.5458,3.5477,3.5432,3.5355,3.5474,3.5497,3.5497,3.5484,3.5499,3.5506,3.5522,3.5562,3.5601,3.5606,3.5646,3.5682,3.5704,3.5646,3.5632,3.5665,3.5646,3.5621,3.5406,3.4249,3.4082,3.4904,3.4433,3.4165,3.5203,3.5768,3.5886,3.5885,3.5897,3.589,3.5892,3.5901,3.5932,3.5964,3.6014,3.6002,3.601,3.601,3.6011,3.601,3.601,3.601,3.601,3.6011,3.6011,3.6011,3.607,3.6461,3.6836,3.7875,3.8699,3.9388,4.0036,4.0388,4.531,4.4422,4.4588,4.4194,4.3527,4.3981,4.3924,4.3549,4.4537,4.477,4.4282,4.3975,4.3546,4.2862,4.208,4.1379,4.0803,4.0756,4.0754,4.0778,4.0752,4.0716,4.0683,4.0687,4.064,4.058,4.055,4.0546,4.0504,4.0215,4.0049,4.0,3.985,3.9404,3.8792,3.8773,3.8574,3.7959,3.7686,3.7555,3.7618,3.7369,3.7222,3.7135,3.6671,3.6346,3.6278,3.5753,3.5456,3.5453,3.5437,3.5446,3.547,3.5493,3.55,3.5503,3.5503,3.5503,3.5503,3.5503,3.5503,3.5503,3.5503,3.5503,3.5488,3.5483,3.5518,3.5557,3.5604,3.5625,3.5643,3.5643,3.5648,3.5706,3.5701,3.5676,3.5686,3.5708,3.5443,3.496,3.4455,3.425,3.4191,3.3873,3.446,3.505,3.5593,3.588,3.5906,3.5899,3.5889,3.589,3.5902,3.5934,3.5984,3.6015,3.6004,3.601,3.601,3.6011,3.601,3.601,3.6009,3.601,3.6011,3.6011,3.6011,3.6265,3.6656,3.7225,3.8069,3.8775,3.9421,3.999,4.0521,4.5686,4.5253,4.5201,4.488,4.442,4.4922,4.4827,4.4456,4.5105,4.5318,4.5053,4.4448,4.4093,4.3703,4.2959,4.2297,4.1745,4.1444,4.1275,4.1201,4.0892,4.0765,4.0781,4.1074,4.1396,4.1466,4.1252,4.1114,4.111,4.0764,4.058,4.0583,4.0587,4.0318,3.978,3.9738,3.946,3.8998,3.8689,3.8549,3.85,3.827,3.8077,3.7967,3.7566,3.7167,3.6861,3.6289,3.5881,3.5608,3.5496,3.5496,3.5489,3.5491,3.5503,3.5503,3.5503,3.5503,3.5503,3.5503,3.5503,3.5503,3.5503,3.5503,3.5491,3.5486,3.5522,3.5588,3.561,3.5614,3.5673,3.5673,3.5668,3.5704,3.5715,3.5705,3.5735,3.578,3.5636,3.5166,3.4796,3.4502,3.4482,3.4285,3.4851,3.5132,3.5574,3.592,3.5928,3.5921,3.5894,3.5894,3.5928,3.5956,3.6004,3.6015,3.6007,3.601,3.6011,3.6011,3.6011,3.601,3.6009,3.601,3.6011,3.6011,3.6031,3.648,3.691,3.7616,3.838,3.9298,4.0119,4.0534,4.0966,4.5992,4.5999,4.598,4.5903,4.5845,4.5914,4.5829,4.5712,4.5204,4.5282,4.5428,4.4511,4.4066,4.4333,4.3762,4.3369,4.3217,4.2523,4.2164,4.1975,4.1528,4.118,4.1261,4.1766,4.2328,4.2797,4.2348,4.2068,4.201,4.1427,4.0855,4.1031,4.0921,4.0717,4.0653,4.0637,4.0482,4.027,3.9784,3.9476,3.946,3.8791,3.8386,3.8405,3.8296,3.7941,3.7384,3.6954,3.6404,3.5719,3.5534,3.5499,3.5502,3.5489,3.5491,3.5484,3.5503,3.5503,3.5503,3.5491,3.5491,3.5494,3.5494,3.5484,3.5498,3.5489,3.5518,3.5588,3.5599,3.5612,3.5676,3.5704,3.5706,3.5698,3.5729,3.5745,3.5784,3.5811,3.5748,3.5689,3.5227,3.4922,3.5533,3.5158,3.5286,3.5643,3.5873,3.5929,3.5951,3.5921,3.5893,3.5918,3.5948,3.6194,3.63,3.6469,3.6556,3.6987,3.6774,3.65,3.6148,3.603,3.6007,3.6009,3.6011,3.6011,3.6187,3.6617,3.7301,3.8123,3.9021,4.0054,4.0642,4.096,4.1139,4.5955,4.5999,4.5982,4.5997,4.5986,4.5989,4.6,4.5947,4.5739,4.5706,4.5883,4.5619,4.5036,4.4744,4.4533,4.4084,4.3557,4.3202,4.3022,4.2968,4.2831,4.2713,4.2699,4.2879,4.3108,4.3281,4.313,4.2963,4.294,4.2631,4.2485,4.2523,4.1915,4.167,4.1599,4.1036,4.0691,4.0665,4.0504,4.0339,4.0304,4.0156,4.0092,4.0034,3.9482,3.9041,3.8676,3.7558,3.6499,3.5694,3.5583,3.5556,3.5496,3.5496,3.5495,3.5488,3.5503,3.5503,3.5488,3.5492,3.5489,3.5489,3.5586,3.5489,3.5493,3.5502,3.5515,3.5534,3.5571,3.5626,3.5637,3.5676,3.5709,3.5766,3.5764,3.578,3.5809,3.585,3.5876,3.5851,3.5648,3.5687,3.5711,3.5716,3.5605,3.5841,3.5918,3.5915,3.5937,3.592,3.5889,3.5916,3.6025,3.6389,3.6674,3.6883,3.7261,3.7946,3.7809,3.7301,3.6695,3.605,3.6027,3.6004,3.601,3.6011,3.6305,3.6675,3.7575,3.8609,3.9391,4.0268,4.0738,4.1112,4.1194,4.5969,4.5999,4.5989,4.5983,4.5997,4.5969,4.5975,4.5922,4.5644,4.5743,4.5964,4.5678,4.5492,4.5337,4.5302,4.5024,4.4511,4.4122,4.3941,4.3908,4.3904,4.3911,4.3923,4.3927,4.4063,4.4341,4.4037,4.3879,4.3753,4.3499,4.3295,4.3131,4.2815,4.2586,4.2489,4.1735,4.1267,4.12,4.0955,4.0755,4.0746,4.0784,4.0771,4.0736,4.0255,3.9926,3.9404,3.8179,3.7046,3.6297,3.5838,3.5561,3.5534,3.5515,3.5489,3.5488,3.5503,3.5488,3.5492,3.5499,3.5689,3.5952,3.6048,3.6264,3.653,3.6582,3.6533,3.6154,3.6102,3.5931,3.5664,3.5651,3.5714,3.5757,3.5773,3.5781,3.5824,3.5893,3.589,3.5896,3.589,3.59,3.59,3.5896,3.5873,3.5873,3.5897,3.5898,3.5901,3.5885,3.595,3.6036,3.6339,3.6782,3.7262,3.7547,3.7925,3.859,3.8571,3.8082,3.7359,3.6461,3.6127,3.6105,3.6049,3.6167,3.6557,3.7142,3.8177,3.9095,3.9779,4.0367,4.0915,4.1229,4.133,4.5997,4.5997,4.5994,4.5997,4.5994,4.5929,4.596,4.5867,4.5372,4.5459,4.5859,4.5298,4.5507,4.6081,4.5889,4.5955,4.5864,4.5115,4.4904,4.4832,4.4821,4.4832,4.4846,4.4779,4.5073,4.548,4.5098,4.4837,4.4605,4.4002,4.3692,4.3744,4.3624,4.3453,4.3231,4.2531,4.2079,4.1776,4.1147,4.0809,4.0794,4.0797,4.0803,4.0774,4.0755,4.0352,3.971,3.8798,3.7983,3.7248,3.6336,3.6081,3.597,3.5859,3.5862,3.5867,3.5898,3.5793,3.5785,3.5917,3.6071,3.6749,3.6948,3.7241,3.7717,3.7809,3.7545,3.6996,3.6935,3.6671,3.6247,3.5969,3.5924,3.5958,3.5856,3.5765,3.5856,3.5891,3.588,3.5885,3.587,3.588,3.5876,3.5889,3.5859,3.5829,3.5864,3.5885,3.5891,3.5898,3.6063,3.6289,3.6713,3.7235,3.7753,3.825,3.8685,3.9156,3.902,3.8649,3.8063,3.7281,3.6558,3.6226,3.6207,3.6517,3.7021,3.7822,3.8566,3.923,3.9701,4.0487,4.1233,4.1408,4.1509,4.6,4.5999,4.5994,4.5997,4.5997,4.5989,4.5981,4.5972,4.5864,4.5898,4.6093,4.5942,4.5948,4.6106,4.6078,4.6037,4.5994,4.575,4.5717,4.5723,4.5723,4.575,4.5736,4.5611,4.5689,4.5847,4.575,4.5614,4.5473,4.5314,4.5317,4.5198,4.4604,4.4391,4.4217,4.2952,4.2093,4.1934,4.1256,4.0824,4.0806,4.0796,4.0796,4.08,4.0797,4.0736,4.0429,3.9691,3.9149,3.8798,3.8171,3.7631,3.7465,3.7437,3.7385,3.722,3.6818,3.6769,3.7193,3.6922,3.6945,3.7685,3.7871,3.7967,3.8099,3.824,3.8095,3.7826,3.7813,3.7713,3.7437,3.7013,3.678,3.6616,3.6212,3.5862,3.5846,3.584,3.5824,3.5818,3.5826,3.5819,3.5821,3.5836,3.5805,3.5805,3.583,3.5846,3.5861,3.5888,3.6199,3.6506,3.7125,3.7725,3.8575,3.8935,3.9098,3.9257,3.912,3.8805,3.8219,3.7808,3.6988,3.6558,3.6383,3.6789,3.7254,3.7416,3.7966,3.8765,3.9702,4.0626,4.1333,4.1529,4.2002,4.5989,4.5997,4.5986,4.5992,4.5994,4.596,4.5981,4.6019,4.6066,4.6119,4.6156,4.6185,4.6181,4.6152,4.6122,4.606,4.6059,4.6051,4.6038,4.6038,4.6019,4.6061,4.6081,4.6026,4.5969,4.5955,4.5941,4.5926,4.5914,4.5914,4.5811,4.5892,4.5443,4.5285,4.5036,4.3559,4.2841,4.2449,4.1433,4.0808,4.0802,4.0808,4.0811,4.0799,4.0793,4.0809,4.07,4.0387,4.0139,3.9984,3.9649,3.8977,3.8331,3.8154,3.8148,3.8005,3.7764,3.7591,3.7835,3.7794,3.7816,3.8646,3.8743,3.9013,3.92,3.9294,3.904,3.8803,3.8652,3.8585,3.8224,3.7901,3.758,3.7489,3.7151,3.6878,3.6789,3.6278,3.5803,3.5803,3.5813,3.5795,3.5793,3.5948,3.587,3.5902,3.5906,3.5925,3.5834,3.5926,3.6416,3.6844,3.7499,3.8273,3.9259,3.962,3.9453,3.9319,3.8948,3.8496,3.7927,3.7614,3.7281,3.6969,3.6696,3.6886,3.7274,3.7339,3.7773,3.8982,4.0038,4.0883,4.1512,4.1847,4.2476,4.5982,4.5999,4.5994,4.6,4.5991,4.5952,4.5953,4.5999,4.6064,4.6088,4.6122,4.616,4.6201,4.6187,4.6136,4.6126,4.6115,4.6104,4.6129,4.61,4.611,4.6121,4.6113,4.6097,4.6078,4.6037,4.6027,4.6,4.5963,4.5929,4.5919,4.591,4.592,4.5807,4.551,4.446,4.346,4.3123,4.1877,4.0958,4.0833,4.0797,4.0794,4.0811,4.0802,4.0796,4.08,4.0716,4.0736,4.0794,4.0794,4.0004,3.9077,3.8575,3.8547,3.8537,3.8469,3.8501,3.8697,3.8553,3.8653,3.9502,3.9602,3.9874,4.0314,4.0351,4.0077,3.9776,3.9494,3.9301,3.8659,3.8453,3.8416,3.8331,3.8309,3.8199,3.7987,3.6942,3.6439,3.6103,3.6418,3.6612,3.6375,3.6336,3.6154,3.6052,3.6106,3.6132,3.6099,3.6344,3.7012,3.7646,3.84,3.9058,4.0006,3.978,3.969,3.9282,3.8853,3.8304,3.7891,3.8263,3.8126,3.7322,3.7106,3.7241,3.732,3.7444,3.8149,3.9375,4.012,4.0712,4.1399,4.2144,4.2772,4.5982,4.5999,4.5994,4.6,4.5997,4.5989,4.5969,4.5997,4.6026,4.6054,4.6115,4.6181,4.6212,4.6189,4.6185,4.6179,4.6183,4.6175,4.6167,4.6139,4.6167,4.6179,4.6179,4.6158,4.6152,4.6163,4.6112,4.6061,4.6029,4.5999,4.598,4.5997,4.5981,4.5969,4.5714,4.4954,4.4048,4.3518,4.2449,4.1643,4.1083,4.0851,4.0806,4.0803,4.0808,4.0812,4.08,4.0797,4.0794,4.0794,4.0794,4.0597,4.0259,4.014,4.0101,3.993,3.9479,3.9385,3.976,3.9513,3.9676,4.0174,4.0316,4.0333,4.0539,4.0591,4.0468,4.0416,4.0291,4.024,4.0193,3.9547,3.9268,3.9116,3.8768,3.8375,3.8338,3.8089,3.753,3.712,3.7373,3.7384,3.6927,3.6778,3.6963,3.7049,3.7238,3.7303,3.732,3.7679,3.824,3.8852,3.9494,4.0115,4.0792,4.0115,3.9672,3.9185,3.8718,3.8211,3.8209,3.9127,3.9048,3.7778,3.729,3.7388,3.7468,3.7627,3.837,3.9502,4.0012,4.0443,4.1344,4.2186,4.2362,4.6017,4.6059,4.6012,4.5994,4.6,4.6,4.5986,4.6021,4.6034,4.6066,4.609,4.6145,4.6181,4.6164,4.6187,4.6212,4.6206,4.6204,4.6199,4.6174,4.6199,4.6204,4.6204,4.6204,4.6204,4.6195,4.6173,4.6123,4.61,4.6066,4.6034,4.5999,4.5986,4.6,4.58,4.5104,4.4553,4.3896,4.3205,4.2344,4.1507,4.1128,4.0854,4.0807,4.084,4.0828,4.0799,4.0796,4.0796,4.0793,4.0803,4.0797,4.079,4.0762,4.0736,4.06,4.0261,4.0137,4.0501,4.0197,4.0256,4.0476,4.0576,4.0553,4.0549,4.0534,4.0557,4.0557,4.0581,4.0584,4.0505,4.0207,4.0113,4.005,3.9651,3.9467,3.9479,3.9492,3.8934,3.8147,3.7674,3.7403,3.7072,3.7152,3.7655,3.8012,3.8281,3.8394,3.8466,3.8745,3.9137,3.9598,4.0067,4.0376,4.07,4.008,3.9597,3.913,3.8564,3.8077,3.7961,3.8644,3.8409,3.753,3.7394,3.8059,3.7962,3.8257,3.8961,3.9548,3.9958,4.0525,4.1464,4.2128,4.2207,4.6075,4.6104,4.6059,4.6017,4.6017,4.5982,4.5999,4.6004,4.6042,4.6064,4.6039,4.6128,4.6169,4.6156,4.6179,4.6197,4.6197,4.6197,4.6196,4.6197,4.6213,4.6196,4.6196,4.6201,4.6207,4.6198,4.6199,4.6183,4.6143,4.6102,4.6066,4.6034,4.6007,4.5982,4.5819,4.5395,4.4993,4.4517,4.4073,4.3236,4.2221,4.1364,4.0851,4.0809,4.0862,4.0848,4.0797,4.0803,4.08,4.0794,4.0805,4.0793,4.0806,4.0803,4.0768,4.0694,4.0661,4.0605,4.0584,4.0566,4.0514,4.0587,4.0542,4.0527,4.0527,4.0542,4.0531,4.0531,4.0568,4.0584,4.0582,4.0577,4.0593,4.0604,4.0607,4.0636,4.0501,4.0333,3.9895,3.907,3.8095,3.7622,3.7503,3.7909,3.8479,3.8612,3.8866,3.9245,3.93,3.9354,3.9701,4.0131,4.0466,4.056,4.045,3.985,3.9444,3.9115,3.8471,3.7867,3.773,3.7828,3.771,3.812,3.9079,3.9646,3.9275,3.8943,3.9549,3.9979,4.0077,4.0527,4.1367,4.166,4.1679,4.6187,4.6187,4.6108,4.6087,4.6082,4.6027,4.6004,4.6007,4.6017,4.6039,4.6081,4.6112,4.6141,4.6187,4.619,4.6199,4.6197,4.6204,4.6206,4.6211,4.6201,4.6198,4.6203,4.6201,4.6209,4.6197,4.6203,4.6213,4.6185,4.6143,4.6117,4.6069,4.601,4.5982,4.596,4.5622,4.5469,4.4898,4.4625,4.3749,4.2322,4.1352,4.0965,4.0812,4.0821,4.0823,4.0818,4.0807,4.0809,4.0809,4.0804,4.0798,4.0797,4.0814,4.0757,4.0726,4.0694,4.0641,4.0598,4.0581,4.0596,4.0593,4.057,4.0596,4.0586,4.0563,4.0566,4.0581,4.0591,4.0584,4.0593,4.0588,4.0629,4.0636,4.0648,4.0658,4.0678,4.0655,4.0271,3.9992,3.9035,3.8534,3.8269,3.8797,3.929,3.9365,3.9489,3.9833,4.0103,4.0117,4.0168,4.0577,4.0748,4.0819,4.0611,3.9931,3.9544,3.9215,3.8572,3.7947,3.8026,3.8241,3.9041,3.9608,4.0469,4.0684,4.0077,3.9921,4.0234,4.043,4.0625,4.084,4.1152,4.125,4.1308,4.6242,4.6204,4.6171,4.6152,4.615,4.6132,4.6106,4.6106,4.6106,4.613,4.6142,4.6174,4.6167,4.6203,4.62,4.6196,4.6209,4.6207,4.6195,4.6195,4.6203,4.6199,4.6205,4.621,4.6207,4.6199,4.6209,4.6206,4.6185,4.6152,4.6114,4.6098,4.6056,4.5982,4.5949,4.5552,4.5475,4.5275,4.4957,4.4147,4.3014,4.2077,4.1368,4.0909,4.0897,4.087,4.0895,4.0856,4.0842,4.0848,4.0815,4.0801,4.0809,4.0804,4.0767,4.0716,4.0739,4.0704,4.0609,4.0614,4.0595,4.0591,4.0591,4.0588,4.0591,4.0595,4.0595,4.0591,4.0591,4.0584,4.0593,4.06,4.0607,4.0617,4.0621,4.0612,4.0626,4.0612,4.0463,4.0245,4.0018,3.9517,3.9105,3.9345,3.9741,3.9909,4.0007,4.0276,4.0558,4.0718,4.08,4.0949,4.1034,4.1039,4.075,4.0286,3.9917,3.9548,3.8983,3.8534,3.8652,3.9043,3.9766,4.0215,4.0605,4.0684,4.0547,4.0644,4.0742,4.0957,4.1191,4.1348,4.1484,4.1348,4.1641,4.626,4.6224,4.6209,4.6211,4.6209,4.6201,4.6196,4.6197,4.6194,4.6199,4.6209,4.6201,4.6209,4.6213,4.6203,4.6203,4.621,4.6199,4.6204,4.6208,4.6221,4.6234,4.6239,4.6241,4.622,4.6209,4.6202,4.6201,4.6183,4.6158,4.6134,4.6136,4.6081,4.6027,4.5886,4.5636,4.5519,4.584,4.5166,4.4479,4.3719,4.2694,4.2075,4.1563,4.1199,4.1012,4.1181,4.0951,4.0893,4.0877,4.0858,4.0831,4.084,4.0826,4.0998,4.0997,4.103,4.1099,4.1122,4.1112,4.0754,4.0657,4.0657,4.0668,4.0668,4.0641,4.0641,4.0648,4.0628,4.063,4.0612,4.0604,4.06,4.0596,4.0589,4.0593,4.0593,4.0589,4.0596,4.0479,4.0327,4.0312,4.0012,3.9961,4.0136,4.0396,4.059,4.0714,4.0882,4.1065,4.1095,4.1099,4.11,4.1103,4.0931,4.0601,4.027,4.0019,3.9453,3.9355,3.959,3.9824,4.0312,4.0664,4.084,4.0898,4.0898,4.1055,4.1191,4.1191,4.1289,4.168,4.1797,4.1738,4.2187,4.6301,4.6298,4.6225,4.6206,4.6203,4.6211,4.6199,4.6208,4.6203,4.6214,4.6209,4.6219,4.6207,4.6209,4.6219,4.6208,4.6195,4.62,4.62,4.6228,4.6261,4.6285,4.6287,4.6269,4.6269,4.6281,4.6234,4.6211,4.6212,4.6204,4.6195,4.6199,4.6113,4.6091,4.6048,4.5922,4.5721,4.5843,4.5279,4.4916,4.4234,4.3377,4.2626,4.2711,4.1842,4.1245,4.2018,4.1548,4.1221,4.124,4.1269,4.1252,4.1375,4.1327,4.1556,4.177,4.1338,4.1581,4.1993,4.1416,4.0862,4.0787,4.0765,4.0759,4.0759,4.0784,4.0784,4.0755,4.071,4.069,4.0677,4.0651,4.0624,4.0582,4.0571,4.0594,4.0591,4.0576,4.0587,4.0612,4.0581,4.0528,4.0564,4.0437,4.0321,4.0546,4.0544,4.0662,4.093,4.1104,4.1096,4.1106,4.1106,4.1108,4.111,4.0877,4.0722,4.0703,4.043,4.0508,4.0762,4.0976,4.0801,4.0918,4.1055,4.1152,4.1269,4.1406,4.1465,4.1269,4.1406,4.1933,4.2715,4.3105,4.3594,4.6304,4.6301,4.6277,4.6249,4.6258,4.625,4.6263,4.6256,4.6255,4.6258,4.6262,4.6267,4.6266,4.6263,4.6269,4.6231,4.6209,4.625,4.6252,4.6257,4.6285,4.6289,4.6289,4.6289,4.6289,4.6288,4.6263,4.6252,4.6266,4.6256,4.624,4.6203,4.6125,4.6102,4.6115,4.6078,4.5838,4.5555,4.5476,4.5403,4.4718,4.4317,4.3699,4.3303,4.309,4.2629,4.2913,4.2685,4.2527,4.2446,4.2415,4.2352,4.2308,4.2337,4.2528,4.274,4.2083,4.2175,4.2376,4.1631,4.0849,4.0803,4.0794,4.0837,4.0889,4.0825,4.0816,4.0787,4.0781,4.0736,4.0631,4.0671,4.0697,4.0609,4.0576,4.058,4.058,4.0569,4.0616,4.0645,4.0694,4.0717,4.0774,4.0835,4.0715,4.063,4.0619,4.0651,4.0918,4.1121,4.1127,4.1129,4.111,4.115,4.1152,4.1152,4.1172,4.1191,4.1191,4.1191,4.1191,4.1191,4.1074,4.1191,4.1191,4.1191,4.1348,4.168,4.1719,4.1484,4.1797,4.2363,4.3242,4.4236,4.4784,4.6289,4.6287,4.6289,4.6306,4.6297,4.6296,4.6293,4.6288,4.6305,4.6304,4.6304,4.6302,4.6302,4.6303,4.6306,4.6287,4.6247,4.6277,4.628,4.6302,4.6305,4.6289,4.6289,4.6289,4.6288,4.6288,4.6304,4.6292,4.6292,4.6266,4.6248,4.6203,4.6153,4.615,4.6126,4.6061,4.5769,4.5533,4.5628,4.5886,4.5237,4.4846,4.4814,4.4149,4.3741,4.3605,4.3641,4.3505,4.3311,4.3311,4.333,4.3408,4.3447,4.352,4.3598,4.3447,4.3122,4.2743,4.2813,4.1959,4.1403,4.1688,4.1333,4.1263,4.1147,4.098,4.0816,4.0794,4.0784,4.0717,4.0602,4.0661,4.0673,4.0583,4.0583,4.0587,4.0591,4.0594,4.0645,4.0704,4.0759,4.0826,4.0907,4.096,4.0931,4.0855,4.0856,4.0858,4.0986,4.1128,4.115,4.1151,4.1132,4.1171,4.1191,4.1191,4.1191,4.1191,4.1191,4.1172,4.1172,4.1191,4.1191,4.1152,4.1152,4.1191,4.1445,4.1797,4.1797,4.168,4.2416,4.3391,4.3977,4.4916,4.5388,4.6305,4.6307,4.6304,4.6289,4.6303,4.6302,4.6301,4.6301,4.6296,4.6293,4.6292,4.6306,4.6294,4.6302,4.63,4.628,4.6282,4.6285,4.6304,4.6302,4.6303,4.6303,4.6303,4.6304,4.6304,4.6295,4.6291,4.6305,4.6289,4.6263,4.6212,4.6201,4.6178,4.6171,4.6166,4.6128,4.6111,4.6138,4.6102,4.601,4.5806,4.5279,4.5264,4.5183,4.452,4.4287,4.452,4.4265,4.4052,4.4013,4.3954,4.3954,4.3916,4.3877,4.4114,4.4536,4.384,4.4145,4.5251,4.3279,4.2675,4.2744,4.2246,4.2034,4.1825,4.1413,4.0958,4.1081,4.0842,4.0694,4.0628,4.0617,4.0619,4.0583,4.0583,4.0594,4.0601,4.0593,4.0655,4.0724,4.0839,4.0937,4.0998,4.1051,4.1072,4.1066,4.1093,4.1102,4.1108,4.1133,4.1172,4.1172,4.1152,4.1172,4.1191,4.1191,4.1191,4.1211,4.123,4.1269,4.125,4.125,4.121,4.1132,4.1152,4.123,4.1562,4.1933,4.2478,4.3195,4.3856,4.4656,4.5143,4.5476,4.5832,4.63,4.6303,4.6299,4.6302,4.6288,4.6289,4.6289,4.6288,4.6305,4.6302,4.63,4.6297,4.6298,4.6302,4.6303,4.6303,4.6304,4.6303,4.6302,4.6301,4.6301,4.6302,4.6301,4.6301,4.63,4.6298,4.6293,4.6306,4.6306,4.6253,4.6266,4.6276,4.6207,4.6146,4.6179,4.6177,4.6194,4.6168,4.6141,4.6102,4.6058,4.5775,4.5672,4.5966,4.5302,4.5205,4.5477,4.5025,4.4967,4.4948,4.4928,4.4948,4.497,4.4989,4.517,4.5348,4.4766,4.4511,4.4965,4.4059,4.3685,4.347,4.3159,4.2898,4.2773,4.207,4.1715,4.1364,4.0952,4.078,4.0654,4.0713,4.0706,4.0583,4.0572,4.0598,4.0612,4.0607,4.0655,4.0748,4.0845,4.1106,4.1258,4.1349,4.1391,4.1327,4.1332,4.1182,4.1129,4.1152,4.1191,4.1191,4.1191,4.1191,4.1211,4.1308,4.1719,4.2012,4.1777,4.1484,4.1445,4.1386,4.123,4.1151,4.1209,4.1307,4.2148,4.3046,4.4174,4.5006,4.5177,4.5366,4.5675,4.5874,4.6056,4.6293,4.6298,4.6293,4.6293,4.6299,4.6304,4.6287,4.6289,4.6289,4.6288,4.6288,4.6306,4.6306,4.6306,4.6306,4.6305,4.6304,4.6304,4.6301,4.63,4.6299,4.6297,4.6296,4.6297,4.6294,4.6295,4.6293,4.6288,4.6306,4.6302,4.6294,4.6279,4.6216,4.6198,4.6204,4.6194,4.6173,4.6156,4.6148,4.6126,4.6117,4.6036,4.6008,4.6039,4.5937,4.5973,4.5985,4.6002,4.5982,4.5982,4.5982,4.5982,4.5982,4.5999,4.5991,4.5772,4.5603,4.5198,4.5199,4.5179,4.4773,4.4468,4.4058,4.3662,4.327,4.2405,4.1786,4.138,4.11,4.0844,4.0705,4.0777,4.0757,4.0653,4.0722,4.0751,4.0853,4.0866,4.1242,4.1272,4.1578,4.1706,4.1755,4.1661,4.1741,4.1657,4.1569,4.1419,4.1306,4.1367,4.1523,4.1601,4.1621,4.1699,4.1641,4.1504,4.2012,4.2734,4.2324,4.1699,4.1699,4.1639,4.1405,4.1288,4.16,4.2146,4.3221,4.4216,4.4971,4.5447,4.5648,4.5875,4.6163,4.6207,4.6215,4.6305,4.6291,4.6303,4.6306,4.6293,4.6299,4.6303,4.6306,4.6306,4.6287,4.6287,4.6289,4.6289,4.6288,4.6289,4.6289,4.6288,4.6287,4.6304,4.6299,4.6297,4.6292,4.6288,4.6306,4.6306,4.6304,4.6302,4.6304,4.6301,4.6301,4.6295,4.6289,4.6244,4.6229,4.6206,4.618,4.6153,4.6174,4.6187,4.6168,4.6175,4.6141,4.6097,4.6085,4.6095,4.6044,4.6034,4.6024,4.6002,4.5982,4.5982,4.5982,4.5982,4.5982,4.5982,4.5974,4.5936,4.5872,4.5825,4.5747,4.5743,4.5359,4.4999,4.4328,4.3708,4.3099,4.2517,4.183,4.1401,4.1031,4.0768,4.0828,4.0881,4.0905,4.0966,4.1068,4.1212,4.149,4.1984,4.2347,4.2811,4.3008,4.2986,4.286,4.2441,4.2437,4.2388,4.2218,4.2086,4.1894,4.209,4.2383,4.2383,4.2344,4.2226,4.207,4.2637,4.3457,4.2402,4.1777,4.1835,4.2146,4.2086,4.2145,4.2321,4.2944,4.3933,4.4693,4.5319,4.5695,4.5917,4.5985,4.6152,4.616,4.6166,4.6291,4.6295,4.6299,4.6302,4.6305,4.6288,4.6293,4.6297,4.6298,4.63,4.6303,4.6305,4.6305,4.6303,4.6305,4.6287,4.6289,4.6289,4.6288,4.6305,4.6301,4.6296,4.6292,4.6289,4.6306,4.6302,4.6301,4.6302,4.6302,4.6302,4.6302,4.6297,4.6251,4.6263,4.6253,4.6207,4.6216,4.6206,4.6219,4.6208,4.6191,4.6154,4.6117,4.6106,4.6107,4.6073,4.6064,4.6026,4.6002,4.5982,4.5982,4.5982,4.5982,4.5982,4.5982,4.5982,4.5974,4.5969,4.5983,4.5981,4.5952,4.5925,4.5628,4.5534,4.4952,4.4219,4.3496,4.2699,4.1974,4.1637,4.1527,4.1531,4.1538,4.1599,4.1763,4.2027,4.2193,4.2514,4.2987,4.342,4.3898,4.3966,4.3973,4.3695,4.3335,4.3333,4.3246,4.3096,4.2867,4.2694,4.2812,4.3125,4.3105,4.3066,4.2969,4.2812,4.3496,4.3906,4.293,4.2538,4.3279,4.3492,4.3118,4.3096,4.3348,4.3881,4.4597,4.5245,4.5765,4.5895,4.6071,4.6102,4.6116,4.6121,4.6125,4.6229,4.6259,4.629,4.6292,4.6271,4.6297,4.6301,4.628,4.6285,4.6293,4.6299,4.6299,4.63,4.6302,4.6302,4.6303,4.6305,4.6287,4.6289,4.6288,4.6307,4.6303,4.6299,4.6295,4.6291,4.6306,4.6303,4.6302,4.6305,4.629,4.6291,4.6285,4.6252,4.6275,4.6272,4.626,4.6266,4.6234,4.6224,4.6214,4.6178,4.6156,4.6142,4.6106,4.6104,4.6105,4.6069,4.6029,4.6004,4.5982,4.5982,4.5982,4.5982,4.5982,4.5989,4.5989,4.6,4.5981,4.596,4.5965,4.5953,4.5918,4.5887,4.5805,4.5471,4.4838,4.4184,4.3499,4.2904,4.2437,4.2428,4.2402,4.2421,4.2437,4.2802,4.3179,4.3417,4.3673,4.4064,4.4475,4.469,4.4782,4.4656,4.4393,4.4231,4.421,4.4202,4.4151,4.3843,4.3515,4.373,4.4082,4.3926,4.3769,4.3711,4.3769,4.418,4.4414,4.3769,4.3708,4.4605,4.4466,4.3776,4.3985,4.4468,4.4915,4.5256,4.5682,4.6114,4.6157,4.6127,4.6097,4.6065,4.6057,4.6057,4.6131,4.6198,4.6273,4.6231,4.6206,4.6264,4.6263,4.6209,4.6266,4.6302,4.6291,4.6293,4.6296,4.63,4.63,4.6301,4.6302,4.6303,4.6305,4.6289,4.6289,4.6288,4.6304,4.6299,4.6297,4.6293,4.6291,4.629,4.6295,4.6297,4.6297,4.6294,4.6291,4.6288,4.6282,4.6278,4.6289,4.6285,4.6255,4.6226,4.6216,4.6198,4.6174,4.6117,4.6108,4.6075,4.6047,4.6012,4.5988,4.5985,4.5982,4.5982,4.5994,4.5991,4.5997,4.5981,4.5972,4.5955,4.5928,4.5925,4.59,4.5857,4.5807,4.5803,4.5568,4.5313,4.474,4.4309,4.3729,4.3387,4.33,4.3318,4.3348,4.3496,4.3808,4.4111,4.4344,4.4611,4.497,4.533,4.547,4.555,4.5545,4.5282,4.5115,4.511,4.5102,4.5089,4.4899,4.4491,4.4609,4.4961,4.4883,4.4785,4.494,4.496,4.494,4.4844,4.439,4.4546,4.5211,4.4893,4.4296,4.4751,4.5259,4.55,4.5829,4.6065,4.6135,4.6111,4.6063,4.6068,4.6035,4.6027,4.6025,4.6033,4.6048,4.6125,4.6135,4.6135,4.6214,4.6219,4.6211,4.6198,4.6251,4.6301,4.629,4.6294,4.6296,4.6296,4.6297,4.63,4.6297,4.63,4.6305,4.6306,4.6289,4.6289,4.6306,4.6303,4.6301,4.6299,4.6298,4.63,4.6301,4.6301,4.63,4.6297,4.6293,4.629,4.6306,4.6303,4.6305,4.6279,4.6247,4.6215,4.6207,4.6192,4.6168,4.6172,4.6123,4.6099,4.608,4.6049,4.6017,4.6004,4.5991,4.5989,4.5992,4.5975,4.5929,4.5941,4.5929,4.5931,4.5912,4.5912,4.587,4.5834,4.5814,4.5726,4.5591,4.5348,4.4979,4.4667,4.4379,4.4205,4.4241,4.4317,4.4557,4.4778,4.499,4.5198,4.55,4.5831,4.6001,4.6168,4.6205,4.6219,4.6151,4.6061,4.5993,4.5983,4.597,4.5876,4.5605,4.5488,4.5742,4.5879,4.5878,4.5955,4.5818,4.5583,4.5485,4.5171,4.5444,4.5834,4.5553,4.5226,4.5599,4.5997,4.6006,4.5981,4.5983,4.6032,4.603,4.6032,4.6025,4.602,4.6012,4.6007,4.5983,4.5993,4.6041,4.608,4.6104,4.6142,4.6152,4.6154,4.6162,4.6193,4.6251,4.6254,4.6267,4.6291,4.6293,4.6291,4.6294,4.629,4.6293,4.6298,4.6301,4.6304,4.6288,4.6289,4.6289,4.6287,4.6305,4.6304,4.6305,4.6306,4.6306,4.6305,4.6301,4.63,4.6298,4.6294,4.6293,4.6297,4.6293,4.6267,4.6213,4.6223,4.621,4.6206,4.6192,4.6172,4.6157,4.6135,4.6091,4.6063,4.6039,4.6065,4.608,4.6102,4.6061,4.602,4.5988,4.5964,4.5944,4.5944,4.5943,4.5908,4.5911,4.5895,4.5914,4.5776,4.5722,4.5412,4.5376,4.5131,4.516,4.5189,4.5212,4.5365,4.5502,4.5663,4.5768,4.59,4.6058,4.6107,4.6227,4.6259,4.6271,4.6261,4.617,4.6177,4.6262,4.6284,4.6287,4.6289,4.6289,4.6289,4.6289,4.6289,4.619,4.6072,4.5935,4.5875,4.5815,4.5948,4.608,4.619,4.6252,4.6195,4.6135,4.6131,4.6091,4.602,4.6002,4.6012,4.601,4.6004,4.5982,4.5982,4.5982,4.5896,4.5977,4.5955,4.6017,4.6064,4.6066,4.6078,4.6084,4.6083,4.6127,4.6176,4.6178,4.6229,4.6282,4.629,4.6285,4.6302,4.6303,4.6287,4.6291,4.6294,4.6299,4.6302,4.6305,4.6288,4.6289,4.6289,4.6288,4.6288,4.6289,4.6289,4.6288,4.6288,4.6306,4.6304,4.6302,4.6302,4.6302,4.6301,4.6301,4.6273,4.624,4.6229,4.6212,4.6215,4.6217,4.6187,4.6157,4.6128,4.6111,4.6105,4.6105,4.6129,4.6146,4.6119,4.608,4.608,4.6044,4.6013,4.5995,4.6002,4.5977,4.5985,4.599,4.6007,4.5986,4.5919,4.5888,4.5874,4.5835,4.5861,4.5889,4.5925,4.5946,4.6057,4.6131,4.6171,4.6207,4.621,4.6212,4.6244,4.6293,4.6303,4.6291,4.6296,4.6302,4.6305,4.6306,4.6289,4.6289,4.6289,4.6289,4.6289,4.6289,4.6289,4.6228,4.611,4.6129,4.6088,4.6216,4.6285,4.6277,4.6261,4.623,4.6194,4.6134,4.6099,4.6037,4.6004,4.6002,4.5982,4.5982,4.5982,4.5982,4.5982,4.5788,4.5854,4.5838,4.5874,4.5941,4.5952,4.5978,4.6019,4.6011,4.6049,4.61,4.6121,4.6157,4.6223,4.6225,4.623,4.6249,4.6274,4.63,4.6303,4.6289,4.6293,4.6296,4.6301,4.6305,4.6287,4.6288,4.6289,4.6289,4.6288,4.6288,4.6289,4.6289,4.6289,4.6289,4.6288,4.6306,4.6306,4.6305,4.6305,4.6305,4.6281,4.6278,4.6294,4.6273,4.6259,4.6224,4.6175,4.6191,4.6188,4.6178,4.6157,4.616,4.6164,4.6137,4.6134,4.6135,4.6097,4.6065,4.6078,4.6069,4.6022,4.6029,4.6046,4.6065,4.6065,4.6042,4.6039,4.6018,4.5959,4.5974,4.6039,4.6069,4.6089,4.6147,4.616,4.6194,4.6243,4.6268,4.6275,4.6283,4.6291,4.6298,4.6301,4.6303,4.6306,4.6287,4.6289,4.6289,4.6289,4.6328,4.6308,4.6328,4.6289,4.6288,4.6306,4.6227,4.6285,4.6284,4.6294,4.6281,4.6246,4.6224,4.6187,4.6152,4.6113,4.6056,4.601,4.6004,4.5982,4.5982,4.5982,4.5982,4.5982,4.5982]}]]